[[{"header":{"parameterUnit":"m.s-1","parameterCategory":1,"la1":30.6,"la2":29.2853,"lo1":-89.7004,"lo2":-87.6739,"dy":0.0162,"dx":0.0183,"nx":112,"ny":82,"refTime":"2025-12-17T12:00:00:Z","depth":0,"parameterNumber":2,"parameterNumberName":"U-component_of_WINDS"},"data":[0.0,0.0,0.0,0.0,0.0,0.0,0.0,0.0,0.0,0.0,0.0,0.0,0.0,0.0,0.0,0.0,0.0,0.0,0.0,0.0,0.0,0.0,0.0,0.0,0.0,0.0,0.0,0.0,0.0,0.0,0.0,0.0,0.0,0.0,0.0,0.0,0.0,0.0,0.0,0.0,0.0,0.0,0.0,0.0,0.0,0.0,0.0,0.0,0.0,0.0,0.0,0.0,0.0,0.0,0.0,0.0,0.0,0.0,0.0,0.0,0.0,0.0,0.0,0.0,0.0,0.0,0.0,0.0,0.0,0.0,0.0,0.0,0.0,0.0,0.0,0.0,0.0,0.0,0.0,0.0,0.0,0.0,0.0,0.0,0.0,0.0,0.0,0.0,0.0,0.0,-2.1346,-2.3285,-2.4645,-2.5415,-2.5415,-2.5333,-2.3865,-2.0519,0.0,0.0,0.0,0.0,0.0,0.0,0.0,0.0,0.0,0.0,0.0,0.0,0.0,0.0,0.0,0.0,0.0,0.0,0.0,0.0,0.0,0.0,0.0,0.0,0.0,0.0,0.0,0.0,0.0,0.0,0.0,0.0,0.0,0.0,0.0,0.0,0.0,0.0,0.0,0.0,0.0,0.0,0.0,0.0,0.0,0.0,0.0,0.0,0.0,0.0,0.0,0.0,0.0,0.0,0.0,0.0,0.0,0.0,0.0,0.0,0.0,0.0,0.0,0.0,0.0,0.0,0.0,0.0,0.0,0.0,0.0,0.0,0.0,0.0,0.0,0.0,0.0,0.0,0.0,0.0,0.0,0.0,0.0,0.0,0.0,0.0,0.0,0.0,0.0,0.0,0.0,0.0,0.0,0.0,0.0,0.0,0.0,0.0,0.0,0.0,0.0,0.0,0.0,0.0,-2.1816,-2.496,-2.5405,-2.5476,-2.5476,-2.5379,-2.3865,-2.0519,0.0,0.0,0.0,0.0,0.0,0.0,0.0,0.0,0.0,0.0,0.0,0.0,0.0,0.0,0.0,0.0,0.0,0.0,0.0,0.0,0.0,0.0,0.0,0.0,0.0,0.0,0.0,0.0,0.0,0.0,0.0,0.0,0.0,0.0,0.0,0.0,0.0,0.0,0.0,0.0,0.0,0.0,0.0,0.0,0.0,0.0,0.0,0.0,0.0,0.0,0.0,0.0,0.0,0.0,0.0,0.0,0.0,0.0,0.0,0.0,0.0,0.0,0.0,0.0,0.0,0.0,0.0,0.0,0.0,0.0,0.0,0.0,0.0,0.0,0.0,0.0,0.0,0.0,0.0,0.0,0.0,0.0,0.0,0.0,0.0,0.0,0.0,0.0,0.0,0.0,0.0,0.0,0.0,0.0,0.0,0.0,0.0,0.0,0.0,0.0,0.0,0.0,0.0,-2.1211,-2.293,-2.543,-2.5607,-2.5545,-2.5493,-2.5404,-2.3901,-2.0504,-1.8657,0.0,0.0,0.0,0.0,0.0,0.0,0.0,0.0,0.0,0.0,0.0,0.0,0.0,0.0,0.0,0.0,0.0,0.0,0.0,0.0,0.0,0.0,0.0,0.0,0.0,0.0,0.0,0.0,0.0,0.0,0.0,0.0,0.0,0.0,0.0,0.0,0.0,0.0,0.0,0.0,0.0,0.0,0.0,0.0,0.0,0.0,0.0,0.0,0.0,0.0,0.0,0.0,0.0,0.0,0.0,0.0,0.0,0.0,0.0,0.0,0.0,0.0,0.0,0.0,0.0,0.0,0.0,0.0,0.0,0.0,0.0,0.0,0.0,0.0,0.0,0.0,0.0,0.0,0.0,0.0,0.0,0.0,0.0,0.0,0.0,0.0,0.0,0.0,0.0,0.0,0.0,0.0,0.0,0.0,0.0,0.0,0.0,0.0,0.0,0.0,0.0,0.0,-2.3203,-2.4219,-2.5566,-2.5636,-2.5567,-2.5515,-2.5075,-2.3519,-2.0489,-1.8292,0.0,0.0,0.0,0.0,0.0,0.0,0.0,0.0,0.0,0.0,0.0,0.0,0.0,0.0,0.0,0.0,0.0,0.0,0.0,0.0,0.0,0.0,0.0,0.0,0.0,0.0,0.0,0.0,0.0,0.0,0.0,0.0,0.0,0.0,0.0,0.0,0.0,0.0,0.0,0.0,0.0,0.0,0.0,0.0,0.0,0.0,0.0,0.0,0.0,0.0,0.0,0.0,0.0,0.0,0.0,0.0,0.0,0.0,0.0,0.0,0.0,0.0,0.0,0.0,0.0,0.0,0.0,0.0,0.0,0.0,0.0,0.0,0.0,0.0,0.0,0.0,0.0,0.0,0.0,0.0,0.0,0.0,0.0,0.0,0.0,0.0,0.0,0.0,0.0,0.0,0.0,0.0,0.0,0.0,0.0,0.0,0.0,0.0,0.0,0.0,0.0,0.0,-2.3555,-2.5566,-2.5684,-2.5636,-2.5567,-2.5515,-2.4014,-2.2281,-2.0412,-1.7192,0.0,0.0,0.0,0.0,0.0,0.0,0.0,0.0,0.0,0.0,0.0,0.0,0.0,0.0,0.0,0.0,0.0,0.0,0.0,0.0,0.0,0.0,0.0,0.0,0.0,0.0,0.0,0.0,0.0,0.0,0.0,0.0,0.0,0.0,0.0,0.0,0.0,0.0,0.0,0.0,0.0,0.0,0.0,0.0,0.0,0.0,0.0,0.0,0.0,0.0,0.0,0.0,0.0,0.0,0.0,0.0,0.0,0.0,0.0,0.0,0.0,0.0,0.0,0.0,0.0,0.0,0.0,0.0,0.0,0.0,0.0,0.0,0.0,0.0,0.0,0.0,0.0,0.0,0.0,0.0,0.0,0.0,0.0,0.0,0.0,0.0,0.0,0.0,0.0,0.0,0.0,0.0,0.0,0.0,0.0,0.0,0.0,0.0,0.0,0.0,0.0,0.0,-2.3008,-2.4531,-2.5586,-2.5682,-2.5635,-2.5564,-2.4912,-2.3334,-2.054,0.0,0.0,0.0,0.0,0.0,0.0,0.0,0.0,0.0,0.0,0.0,0.0,0.0,0.0,0.0,0.0,0.0,0.0,0.0,0.0,0.0,0.0,0.0,0.0,0.0,0.0,0.0,0.0,0.0,0.0,0.0,0.0,0.0,0.0,0.0,0.0,0.0,0.0,0.0,0.0,0.0,0.0,0.0,0.0,0.0,0.0,0.0,0.0,0.0,0.0,0.0,0.0,0.0,0.0,0.0,0.0,0.0,0.0,0.0,0.0,0.0,0.0,0.0,0.0,0.0,0.0,0.0,0.0,0.0,0.0,0.0,0.0,0.0,0.0,0.0,0.0,0.0,0.0,0.0,0.0,0.0,0.0,0.0,0.0,0.0,0.0,0.0,0.0,0.0,0.0,0.0,0.0,0.0,0.0,0.0,0.0,0.0,0.0,0.0,0.0,0.0,0.0,-2.1445,-2.3125,-2.4336,-2.5195,-2.5293,-2.5154,-2.4822,-2.4009,-2.2501,-2.0142,0.0,0.0,0.0,0.0,0.0,0.0,0.0,0.0,0.0,0.0,0.0,0.0,0.0,0.0,0.0,0.0,0.0,0.0,0.0,0.0,0.0,0.0,0.0,0.0,0.0,0.0,0.0,0.0,0.0,0.0,0.0,0.0,0.0,0.0,0.0,0.0,0.0,0.0,0.0,0.0,0.0,0.0,0.0,0.0,0.0,0.0,0.0,0.0,0.0,0.0,0.0,0.0,0.0,0.0,0.0,0.0,0.0,0.0,0.0,0.0,0.0,0.0,0.0,0.0,0.0,0.0,0.0,0.0,0.0,0.0,0.0,0.0,0.0,0.0,0.0,0.0,0.0,0.0,0.0,0.0,0.0,0.0,0.0,0.0,0.0,0.0,0.0,0.0,0.0,0.0,0.0,0.0,0.0,0.0,0.0,0.0,0.0,0.0,0.0,0.0,0.0,0.0,-2.168,-2.4121,-2.5352,-2.4473,-2.4394,-2.4041,-2.316,-2.0726,-1.9188,0.0,0.0,0.0,0.0,0.0,0.0,0.0,0.0,0.0,0.0,0.0,0.0,0.0,0.0,0.0,0.0,0.0,0.0,0.0,0.0,0.0,0.0,0.0,0.0,0.0,0.0,0.0,0.0,0.0,0.0,0.0,0.0,0.0,0.0,0.0,0.0,0.0,0.0,0.0,0.0,0.0,0.0,0.0,0.0,0.0,0.0,0.0,0.0,0.0,0.0,0.0,0.0,0.0,0.0,0.0,0.0,0.0,0.0,0.0,0.0,0.0,0.0,0.0,0.0,0.0,0.0,0.0,0.0,0.0,0.0,0.0,0.0,0.0,0.0,0.0,0.0,0.0,0.0,0.0,0.0,0.0,0.0,0.0,0.0,0.0,0.0,0.0,0.0,0.0,0.0,0.0,0.0,0.0,0.0,0.0,0.0,0.0,0.0,0.0,0.0,0.0,0.0,0.0,-2.1602,-2.3594,-2.4453,-2.3574,-2.3535,-2.3437,-2.3123,-2.1839,-2.0506,-1.9246,0.0,0.0,0.0,0.0,0.0,0.0,0.0,0.0,0.0,0.0,0.0,0.0,0.0,0.0,0.0,0.0,0.0,0.0,0.0,0.0,0.0,0.0,0.0,0.0,0.0,0.0,0.0,0.0,0.0,0.0,0.0,0.0,0.0,0.0,0.0,0.0,0.0,0.0,0.0,0.0,0.0,0.0,0.0,0.0,0.0,0.0,0.0,0.0,0.0,0.0,0.0,0.0,0.0,0.0,0.0,0.0,0.0,0.0,0.0,0.0,0.0,0.0,0.0,0.0,0.0,0.0,0.0,0.0,0.0,0.0,0.0,0.0,0.0,0.0,0.0,0.0,0.0,0.0,0.0,0.0,0.0,0.0,0.0,0.0,0.0,0.0,0.0,0.0,0.0,0.0,0.0,0.0,0.0,0.0,0.0,0.0,0.0,0.0,0.0,0.0,0.0,0.0,-2.1562,-2.3359,-2.4082,-2.3223,-2.3184,-2.3047,-2.2656,-2.1809,-2.0406,-1.8329,0.0,0.0,0.0,0.0,0.0,0.0,0.0,0.0,0.0,0.0,0.0,0.0,0.0,0.0,0.0,0.0,0.0,0.0,0.0,0.0,0.0,0.0,0.0,0.0,0.0,0.0,0.0,0.0,0.0,0.0,0.0,0.0,0.0,0.0,0.0,0.0,0.0,0.0,0.0,0.0,0.0,0.0,0.0,0.0,0.0,0.0,0.0,0.0,0.0,0.0,0.0,0.0,0.0,0.0,0.0,0.0,0.0,0.0,0.0,0.0,0.0,0.0,0.0,0.0,0.0,0.0,0.0,0.0,0.0,0.0,0.0,0.0,0.0,0.0,0.0,0.0,0.0,0.0,0.0,0.0,0.0,0.0,0.0,0.0,0.0,0.0,0.0,0.0,0.0,0.0,0.0,0.0,0.0,0.0,0.0,0.0,0.0,0.0,0.0,0.0,0.0,0.0,-2.1562,-2.3359,-2.4062,-2.3164,-2.3086,-2.2734,-2.1855,-2.0914,-1.9364,-1.6958,0.0,0.0,0.0,0.0,0.0,0.0,0.0,0.0,0.0,0.0,0.0,0.0,0.0,0.0,0.0,0.0,0.0,0.0,0.0,0.0,0.0,0.0,0.0,0.0,0.0,0.0,0.0,0.0,0.0,0.0,0.0,0.0,0.0,0.0,0.0,0.0,0.0,0.0,0.0,0.0,0.0,0.0,0.0,0.0,0.0,0.0,0.0,0.0,0.0,0.0,0.0,0.0,0.0,0.0,0.0,0.0,0.0,0.0,0.0,0.0,-1.8315,0.0,0.0,0.0,0.0,0.0,0.0,0.0,0.0,0.0,0.0,0.0,0.0,0.0,0.0,0.0,0.0,0.0,0.0,0.0,0.0,0.0,0.0,0.0,0.0,0.0,0.0,0.0,0.0,0.0,0.0,0.0,0.0,0.0,0.0,0.0,0.0,0.0,0.0,0.0,0.0,0.0,-2.1562,-2.3359,-2.3828,-2.2344,-2.2187,-2.1816,-2.0957,-2.0078,-1.9001,-1.7721,-1.5402,0.0,0.0,0.0,0.0,0.0,0.0,0.0,0.0,0.0,0.0,0.0,0.0,0.0,0.0,0.0,0.0,0.0,0.0,0.0,0.0,0.0,0.0,0.0,0.0,0.0,0.0,0.0,0.0,0.0,0.0,0.0,0.0,0.0,0.0,0.0,0.0,0.0,0.0,0.0,0.0,0.0,0.0,0.0,0.0,0.0,0.0,0.0,0.0,0.0,0.0,0.0,0.0,0.0,0.0,0.0,0.0,0.0,0.0,0.0,0.0,-2.0254,0.0,0.0,0.0,0.0,0.0,0.0,0.0,0.0,0.0,0.0,0.0,0.0,0.0,0.0,0.0,0.0,0.0,0.0,0.0,0.0,0.0,0.0,0.0,0.0,0.0,0.0,0.0,0.0,0.0,0.0,0.0,0.0,0.0,0.0,0.0,0.0,0.0,0.0,0.0,0.0,-2.1621,-2.3008,-2.3437,-2.2578,-2.248,-2.2285,-2.1836,-2.1426,-2.0429,-1.8688,-1.6534,0.0,0.0,0.0,0.0,0.0,0.0,0.0,0.0,0.0,0.0,0.0,0.0,0.0,0.0,0.0,0.0,0.0,0.0,0.0,0.0,0.0,0.0,0.0,0.0,0.0,0.0,0.0,0.0,0.0,0.0,0.0,0.0,0.0,0.0,0.0,0.0,0.0,0.0,0.0,0.0,0.0,0.0,0.0,0.0,0.0,0.0,0.0,0.0,0.0,0.0,0.0,0.0,0.0,-2.4779,-2.5543,-2.6173,-2.5505,-2.6048,-2.7371,-2.5255,-2.4413,-2.4394,-2.2504,0.0,0.0,0.0,0.0,0.0,0.0,0.0,0.0,0.0,0.0,0.0,0.0,0.0,0.0,0.0,0.0,0.0,0.0,0.0,0.0,0.0,0.0,0.0,0.0,-2.1735,-2.0927,0.0,0.0,0.0,0.0,0.0,0.0,0.0,0.0,0.0,0.0,0.0,0.0,-2.1894,-2.2949,-2.3496,-2.334,-2.332,-2.3262,-2.3125,-2.3027,-2.1992,-1.9668,-1.7889,-1.6259,0.0,0.0,0.0,0.0,0.0,0.0,0.0,0.0,0.0,0.0,0.0,0.0,0.0,0.0,0.0,0.0,0.0,0.0,0.0,0.0,0.0,0.0,0.0,0.0,0.0,0.0,0.0,0.0,0.0,0.0,0.0,0.0,-1.8008,-1.9863,0.0,0.0,0.0,0.0,0.0,0.0,0.0,0.0,0.0,0.0,0.0,0.0,0.0,-2.4061,-2.5755,-2.6621,-2.7453,-2.828,-2.9159,-2.9635,-2.9712,-2.9615,-3.0096,-3.1006,-3.0679,0.0,-2.6082,-2.3639,0.0,0.0,0.0,0.0,0.0,0.0,0.0,0.0,0.0,0.0,0.0,0.0,0.0,0.0,0.0,0.0,0.0,0.0,0.0,0.0,0.0,0.0,-2.3283,-2.2759,-2.2624,-2.2293,0.0,-1.9196,-1.7619,-1.7357,-1.5601,0.0,0.0,0.0,0.0,0.0,0.0,0.0,-2.2734,-2.4355,-2.5078,-2.4316,-2.4238,-2.3945,-2.3242,-2.25,-2.1602,-2.0508,-1.8787,-1.7708,-1.7406,-1.5148,0.0,0.0,0.0,0.0,0.0,0.0,0.0,0.0,0.0,0.0,0.0,0.0,0.0,0.0,0.0,0.0,0.0,0.0,0.0,0.0,0.0,0.0,0.0,0.0,0.0,0.0,0.0,0.0,0.0,-1.8008,-2.0488,-2.123,-2.0996,-2.043,0.0,0.0,0.0,0.0,0.0,0.0,0.0,0.0,0.0,-2.5606,-2.6506,-2.7547,-2.8712,-2.9602,-3.0217,-3.0564,-3.141,-3.1558,-3.1154,-3.1596,-3.1775,-3.1737,-3.2179,-3.1525,-2.9948,-2.7395,-2.5563,-2.4197,0.0,0.0,0.0,0.0,-2.2538,-2.275,-2.4101,-2.3755,0.0,-2.2489,0.0,0.0,0.0,0.0,0.0,0.0,0.0,0.0,0.0,0.0,0.0,-2.5644,-2.5664,-2.5568,-2.5178,-2.3447,-2.1424,0.0,-1.9094,-1.8534,-1.7066,0.0,0.0,0.0,0.0,-2.1934,-2.3613,-2.4492,-2.4824,-2.4434,-2.4394,-2.4258,-2.3906,-2.3086,-2.2402,-2.2031,-1.9941,-1.8708,-1.8639,-1.7092,-1.5947,0.0,0.0,0.0,0.0,0.0,0.0,0.0,0.0,0.0,0.0,0.0,0.0,0.0,0.0,0.0,0.0,0.0,0.0,0.0,0.0,0.0,0.0,0.0,0.0,0.0,0.0,0.0,0.0,-2.0352,-2.2539,-2.2539,-2.2734,-2.2363,0.0,0.0,0.0,0.0,0.0,0.0,-2.4386,-2.588,-2.7373,-2.8838,-2.9697,-3.0546,-3.1371,-3.1795,-3.2122,-3.2333,-3.2718,-3.2583,-3.2025,-3.2622,-3.2564,-3.2045,-3.2641,-3.2776,-3.2449,-3.0544,-2.889,-2.7428,-2.5952,-2.5486,-2.5654,-2.5885,-2.5827,-2.5846,-2.7371,-2.7286,-2.6365,-2.5564,0.0,-2.4406,-2.2135,0.0,0.0,0.0,0.0,-2.401,-2.5567,-2.6447,-2.7101,-2.7761,-2.7895,-2.7895,-2.7895,-2.689,-2.5096,0.0,-2.2099,-2.182,-1.9584,0.0,0.0,0.0,0.0,-2.2988,-2.4238,-2.459,-2.4727,-2.4727,-2.4727,-2.4727,-2.4727,-2.3926,-2.334,-2.3144,-2.1133,-1.9843,-1.9564,-1.8723,-1.7546,-1.6004,0.0,0.0,0.0,0.0,0.0,0.0,0.0,0.0,0.0,0.0,0.0,0.0,0.0,0.0,0.0,0.0,0.0,0.0,0.0,0.0,0.0,0.0,0.0,0.0,0.0,0.0,0.0,0.0,0.0,-2.4277,-2.5,0.0,0.0,0.0,0.0,-2.4112,-2.5671,-2.7301,-2.879,-2.9743,-3.0625,-3.1487,-3.2282,-3.3128,-3.3994,-3.3237,-3.3256,-3.4071,-3.3276,-3.2872,-3.2833,-3.2872,-3.2872,-3.2833,-3.2872,-3.2468,-3.1756,-3.1621,-3.1019,-3.0115,-2.9198,-2.789,-2.664,-2.7467,-2.7255,-2.6678,-2.7582,-2.7156,-2.6485,-2.8049,-2.7747,-2.6588,-2.5677,-2.4832,0.0,0.0,-2.5896,-2.6295,-2.7467,-2.7799,-2.7857,-2.7895,-2.7895,-2.7895,-2.7895,-2.7838,-2.7236,0.0,-2.3158,-2.1829,-2.261,0.0,-2.1891,-2.2851,-2.373,-2.4297,-2.4394,-2.5117,-2.5625,-2.5625,-2.5625,-2.5625,-2.5625,-2.4844,-2.4004,-2.3242,-2.2305,-2.1406,-2.0566,-1.9687,-1.8768,-1.7798,-1.5381,0.0,0.0,0.0,0.0,0.0,0.0,0.0,0.0,0.0,0.0,0.0,0.0,0.0,0.0,0.0,0.0,0.0,0.0,0.0,0.0,0.0,0.0,0.0,0.0,0.0,0.0,0.0,0.0,-2.6914,-2.8164,0.0,-2.6992,-2.7317,-2.7816,-2.833,-2.9415,-3.027,-3.078,-3.2137,-3.2755,-3.2487,-3.3295,-3.3622,-3.3372,-3.3064,-3.3064,-3.3353,-3.3045,-3.2622,-3.216,-3.266,-3.2622,-3.216,-3.2679,-3.2737,-3.2468,-3.2468,-3.1654,-3.0423,-3.0679,-3.0063,-2.9154,-3.0025,-2.9794,-2.9173,-3.0044,-2.9715,-2.8912,-2.8962,-2.8248,-2.7323,-2.7164,-2.6818,-2.6572,-2.7077,-2.7636,-2.8169,-2.8571,-2.9083,-2.95,-2.95,-2.95,-2.95,-2.95,-2.9063,-2.8492,-2.7871,-2.6582,-2.558,-2.5477,-2.5189,-2.4939,-2.4823,-2.5059,-2.5234,-2.5234,-2.5508,-2.5703,-2.5703,-2.5703,-2.5703,-2.5703,-2.4902,-2.4062,-2.3242,-2.2383,-2.1504,-2.0644,-2.0293,-1.9453,-1.7986,-1.7069,-1.5349,0.0,0.0,0.0,0.0,0.0,0.0,0.0,0.0,0.0,0.0,0.0,0.0,0.0,0.0,0.0,0.0,0.0,0.0,0.0,0.0,0.0,0.0,0.0,0.0,0.0,-2.6387,-2.873,-2.873,-3.0273,-3.0879,-2.9707,-3.0003,-3.0717,-3.1806,-3.2626,-3.3181,-3.3378,-3.4449,-3.4641,-3.3795,-3.4334,-3.4218,-3.3353,-3.3045,-3.2756,-3.2487,-3.2199,-3.1775,-3.1269,-3.1814,-3.1775,-3.1288,-3.1833,-3.2064,-3.2064,-3.2064,-3.1404,-3.0519,-3.166,-3.1602,-3.0904,-3.1487,-3.1154,-3.0475,-3.0957,-3.0746,-3.0158,-2.9506,-2.8838,-2.8329,-2.8478,-2.8412,-2.8344,-2.8549,-2.8982,-2.9416,-2.9514,-2.9967,-3.0404,-3.0404,-3.0404,-3.0404,-3.0404,-2.9948,-2.9544,-2.9544,-2.864,-2.7745,-2.7297,-2.7212,-2.7072,-2.6613,-2.6308,-2.6133,-2.6133,-2.5879,-2.5703,-2.5703,-2.5703,-2.5703,-2.5703,-2.5176,-2.4375,-2.3262,-2.2637,-2.166,-2.0215,-2.0449,-1.9785,-1.8027,-1.7715,-1.6425,-1.4119,0.0,0.0,0.0,0.0,0.0,0.0,0.0,0.0,0.0,0.0,0.0,0.0,0.0,0.0,0.0,0.0,0.0,0.0,0.0,0.0,0.0,0.0,0.0,-2.582,-2.8066,-2.9746,-2.9785,-3.1309,-3.1719,-3.0039,-3.1294,-3.2842,-3.4392,-3.5243,-3.5987,-3.6668,-3.6692,-3.6327,-3.5481,-3.5462,-3.5045,-3.4167,-3.3314,-3.2506,-3.1737,-3.0885,-3.0481,-3.0481,-3.0442,-3.0442,-3.0442,-3.0404,-3.0404,-3.0404,-3.0404,-3.0404,-3.0558,-3.2218,-3.2372,-3.166,-3.1698,-3.1173,-3.0399,-3.0115,-3.0032,-3.0022,-2.9799,-2.9722,-2.9722,-2.9722,-2.9722,-2.9754,-2.9962,-3.0013,-3.0075,-3.0304,-3.0365,-3.0365,-3.0365,-3.0346,-3.0346,-3.0385,-3.0365,-3.0327,-3.0346,-2.9044,-2.797,-2.8064,-2.8133,-2.8175,-2.8207,-2.7533,0.0,-2.6973,-2.6211,-2.5703,-2.5703,-2.5703,-2.5703,-2.5703,-2.5684,-2.4941,-2.3301,-2.3105,-2.1934,-1.9434,-2.0156,-1.9785,-1.8066,-1.7168,-1.6699,-1.6699,0.0,0.0,0.0,0.0,0.0,0.0,0.0,0.0,0.0,0.0,0.0,0.0,0.0,0.0,0.0,0.0,0.0,0.0,0.0,0.0,0.0,-2.6836,-2.8535,-2.8535,-3.0742,-3.2812,-3.4082,-3.5215,-3.5957,-3.6113,-3.6433,-3.6796,-3.7202,-3.739,-3.7253,-3.6726,-3.6692,-3.6045,-3.4603,-3.4564,-3.4141,-3.3276,-3.3026,-3.2795,-3.2564,-3.2333,-3.2218,-3.2199,-3.1621,-3.1346,-3.1308,-3.0673,-3.0404,-3.0404,-3.0404,-3.0404,-3.0519,-3.1602,-3.1506,-3.0827,-3.1468,-3.1545,-3.1244,-3.0528,-3.0702,-3.1117,-3.0439,-3.0208,-3.0208,-3.0208,-3.0208,-3.0215,-3.0267,-3.0299,-3.0157,-2.959,-2.9467,-2.9467,-2.9467,-2.9006,-2.8929,-3.0135,-2.9448,-2.8756,-2.9333,-2.9088,-2.8997,-2.9683,-2.9864,-2.9518,-2.8363,-2.8041,0.0,-2.6211,-2.5859,-2.5703,-2.5703,-2.5703,-2.5703,-2.5703,-2.5117,-2.4297,-2.3203,-2.2559,-2.1621,-2.0293,-2.0469,-2.0078,-1.8965,-1.7461,-1.6699,0.0,0.0,0.0,0.0,0.0,0.0,0.0,0.0,0.0,0.0,0.0,0.0,0.0,0.0,0.0,0.0,0.0,0.0,0.0,0.0,0.0,0.0,-2.9805,-3.1855,-3.2226,-3.3555,-3.5137,-3.6875,-3.7539,-3.8047,-3.8555,-3.8484,-3.8517,-3.882,-3.8447,-3.7916,-3.7284,-3.6904,-3.6103,-3.4795,-3.4737,-3.4334,-3.3449,-3.343,-3.3256,-3.2891,-3.2891,-3.2891,-3.2872,-3.2429,-3.2025,0.0,-3.1154,-3.0731,-3.0404,-3.0404,-3.0404,0.0,0.0,0.0,0.0,0.0,-3.1154,-3.1077,-3.0577,-3.0669,-3.0932,-3.0534,-3.0317,-3.0254,-3.0361,-3.0404,-3.0404,-3.0404,-3.0404,-3.0288,-2.9775,-2.964,-2.964,-2.964,-2.9006,-2.8665,-2.966,-2.8832,-2.8145,-2.8934,-2.9107,0.0,-2.9815,-2.9962,-2.959,-2.8351,-2.7891,-2.7361,-2.6367,-2.623,-2.623,-2.623,-2.623,-2.623,-2.623,-2.5449,0.0,0.0,0.0,-2.1894,-2.0644,-2.0254,0.0,0.0,0.0,0.0,0.0,0.0,0.0,0.0,-1.7285,-1.7285,0.0,0.0,0.0,0.0,0.0,0.0,0.0,0.0,0.0,0.0,0.0,0.0,0.0,0.0,0.0,0.0,-3.2891,-3.5332,-3.6309,-3.6445,-3.7012,-3.8555,-3.875,-3.8789,-3.8887,-3.8799,-3.8953,-3.9556,-3.8826,-3.821,-3.7868,0.0,0.0,0.0,0.0,-3.5141,-3.4359,-3.4359,-3.3949,-3.3199,-3.3199,-3.3199,-3.3199,-3.3083,-3.266,-3.1968,-3.1775,-3.125,-3.0538,-3.0442,-3.0404,-3.0404,-3.0404,-3.0404,-3.0404,-3.0404,-3.0404,-3.0404,-3.0404,0.0,0.0,-3.0317,-3.0248,-3.0089,-3.0323,-3.0404,-3.0404,-3.0404,-3.0404,-3.0385,-3.0288,-3.025,-3.025,-3.025,-2.9583,-2.8992,-2.9088,-2.8396,-2.7953,-2.8684,-2.8819,-2.88,-2.8684,-2.8965,-2.8923,-2.8082,-2.7353,-2.6924,-2.6992,-2.6992,-2.7031,-2.7148,0.0,0.0,-2.7012,-2.6191,-2.5019,-2.3437,-2.3242,-2.2519,-2.0957,-2.0137,-2.0781,-2.3066,-2.2402,-2.2773,-2.4258,-2.3477,-2.2793,-2.2129,-1.9707,-1.9785,0.0,0.0,0.0,0.0,0.0,0.0,0.0,0.0,0.0,0.0,0.0,0.0,0.0,0.0,0.0,-3.3301,-3.5449,-3.7344,-3.8926,-3.9141,-3.9277,-3.9609,-3.9648,-3.9922,-4.0625,-4.0664,-4.0355,-3.9656,-3.9428,-3.8622,-3.7041,-3.6788,-3.6327,-3.5538,-3.55,-3.5423,-3.525,-3.525,-3.5154,-3.5,0.0,0.0,-3.4962,-3.4276,-3.3859,-3.3648,-3.2295,-3.1602,-3.1385,-3.0692,-3.0404,-3.0404,-3.0404,-3.0404,-3.0404,-3.0404,-3.0404,-3.0404,-3.0404,-3.0361,-3.0323,-3.0373,-3.0361,-3.0323,-3.0373,-3.0404,0.0,-3.0404,-3.0404,-3.0231,-2.9525,-2.9357,-2.9357,-2.9357,-2.8723,-2.8319,-2.8953,-2.7909,-2.6909,-2.7044,-2.7082,-2.6871,-2.6154,-2.7846,-2.8767,-2.7285,-2.7004,-2.6992,-2.6992,-2.6992,-2.7266,-2.7969,-2.8047,-2.7754,-2.7051,-2.6191,-2.5254,-2.4238,-2.3555,-2.3047,-2.2715,-2.248,-2.2598,-2.3086,-2.2949,-2.3027,-2.3359,-2.3242,-2.3437,-2.3887,-2.2734,-2.209,0.0,0.0,0.0,0.0,0.0,0.0,0.0,0.0,0.0,0.0,0.0,-2.7012,-2.916,0.0,-3.3496,-3.5644,-3.7461,-3.8906,-3.9785,-4.0273,-4.0547,-4.0547,-4.0547,-4.0547,-4.0547,-4.0547,-4.0107,-3.9029,-3.8551,-3.7836,-3.6752,-3.6327,-3.5923,-3.5519,-3.55,-3.55,-3.55,-3.55,-3.55,-3.55,-3.55,-3.55,-3.5481,-3.5045,-3.4603,-3.4148,-3.3314,-3.2699,-3.2237,-3.1404,-3.0788,-3.0404,-3.0404,-3.0404,-3.0404,-3.0404,-3.0404,-3.0404,-3.0404,-3.0311,-3.0215,-3.0355,-3.0311,-3.0215,-3.0361,-3.0404,-3.0404,-3.0404,-3.0404,-3.0308,-2.9871,-2.9756,-2.9756,-2.9756,-2.9102,-2.8607,-2.9011,-2.8126,-2.7255,-2.7255,-2.7255,-2.6967,-2.6096,-2.7097,-2.7576,-2.6334,-2.6607,-2.6969,-2.6992,-2.7754,-2.8476,-2.8906,-2.8945,-2.8769,-2.834,-2.6699,-2.5508,-2.5078,-2.3887,-2.3184,-2.3144,-2.3144,-2.3535,-2.4375,-2.4394,-2.4629,-2.5059,-2.5098,-2.5078,-2.5039,-2.4648,-2.4219,0.0,0.0,0.0,0.0,0.0,0.0,0.0,-2.3516,-2.5059,-2.7519,-2.8828,-3.0449,-3.3379,-3.4766,-3.5976,-3.7559,-3.9121,-4.0156,-4.0156,-4.0762,-4.1191,-4.1191,-4.1055,-4.0664,-3.9961,-3.9746,-3.9207,-3.813,-3.7403,-3.6845,-3.6483,-3.5846,-3.55,-3.55,-3.55,-3.55,-3.55,-3.55,-3.55,-3.55,-3.55,-3.55,-3.55,-3.55,-3.5122,-3.443,-3.4263,-3.3705,-3.2852,-3.2199,-3.1525,-3.0865,-3.0712,-3.0654,-3.0635,-3.0462,-3.0404,-3.0404,-3.0404,-3.026,-3.0103,-3.0323,-3.0254,-3.0129,-3.0323,-3.0404,-3.0404,-3.0404,-3.0404,-3.0404,-3.0404,-3.0404,-3.0404,-3.0404,-2.9871,-2.9319,-2.9146,-2.8588,-2.8088,-2.7934,-2.7895,-2.7621,-2.6755,-2.6663,-2.6438,-2.5615,-2.6144,-2.6725,-2.6972,-2.8379,-2.9355,-2.9355,-2.9648,-2.9785,-2.9609,-2.7519,-2.6211,-2.6211,-2.4941,-2.418,-2.4102,-2.4004,-2.457,-2.5937,-2.5781,-2.6055,-2.6758,-2.6758,-2.6387,-2.5703,-2.5703,-2.5703,-2.3284,-2.1641,-2.132,-2.4178,-2.3979,-2.4238,0.0,-2.9297,-2.9394,-3.123,-3.2871,-3.4336,-3.5508,-3.7051,-3.8476,-3.9453,-4.043,-4.1055,-4.1055,-4.1133,-4.1191,-4.1191,-4.0527,-4.0019,-3.9902,-3.9199,-3.8291,-3.7225,-3.7056,-3.6593,-3.5674,-3.5558,-3.55,-3.55,-3.55,-3.55,-3.55,-3.55,-3.55,-3.55,-3.55,-3.55,-3.55,-3.55,-3.5442,-3.5308,-3.4545,-3.3705,-3.2891,-3.2795,-3.2718,-3.2545,-3.1833,-3.1545,-3.1468,-3.0692,-3.0404,-3.0404,-3.0404,-3.0373,-3.0361,-3.0398,-3.0373,-3.0361,-3.0398,-3.0404,-3.0404,-3.0404,-3.0404,-3.0404,-3.0404,-3.0404,-3.0404,-3.0404,-3.0327,-3.0038,-2.928,-2.903,-2.8742,-2.8049,-2.7895,-2.7621,-2.6755,-2.6663,-2.6438,-2.5615,-2.5636,-2.6042,-2.6894,-2.7851,-2.8457,-2.8457,-2.9824,-3.0449,-2.9668,-2.8613,-2.8008,-2.8008,-2.7832,-2.7734,-2.7715,-2.6973,-2.666,-2.6855,-2.6094,-2.5742,-2.5859,-2.5859,-2.5801,-2.5703,-2.5703,-2.5703,-2.6884,-2.6162,-2.5912,-2.6925,-2.8163,-2.957,-3.1269,-3.2129,-3.3066,-3.4805,-3.5723,-3.6621,-3.8027,-3.8867,-3.9648,-4.0508,-4.0957,-4.1191,-4.1191,-4.1191,-4.1016,-4.0508,-4.0117,-3.9707,-3.9199,-3.8809,-3.7983,-3.6462,-3.6281,-3.6036,-3.5587,-3.5522,-3.55,-3.55,-3.55,-3.55,-3.55,-3.55,-3.55,-3.55,-3.55,-3.55,-3.55,-3.55,-3.55,-3.5481,-3.5115,-3.4468,-3.3667,-3.3667,-3.3353,-3.2814,-3.2006,-3.1698,-3.1583,-3.0712,-3.0404,-3.0404,-3.0404,-3.0404,-3.0404,-3.0404,-3.0404,-3.0404,-3.0404,-3.0404,-3.0404,-3.0404,-3.0404,-3.0404,-3.0404,-3.0404,-3.0404,-3.0404,-3.0404,-3.0308,-2.9948,-2.9871,-2.9602,-2.8761,-2.8607,-2.8338,-2.7505,-2.7378,-2.7142,-2.6379,-2.6316,-2.651,-2.6933,-2.7754,-2.8301,-2.8301,-2.8945,-2.9238,-2.8867,-2.8047,-2.7539,-2.7539,-2.7539,-2.7324,-2.6816,-2.6914,-2.6992,-2.6992,-2.6641,-2.6465,-2.6465,-2.6465,-2.6191,-2.5703,-2.5703,-2.5703,-2.8918,-2.9166,-2.9431,-2.9622,-3.1738,-3.373,-3.3633,-3.4551,-3.5918,-3.7656,-3.8027,-3.8476,-3.998,-4.0254,-4.0469,-4.1094,-4.1191,-4.1191,-4.1191,-4.0996,-4.0605,-3.998,-3.9687,-3.9297,-3.8652,-3.8379,-3.7693,-3.6355,-3.5943,-3.5719,-3.563,-3.5568,-3.5534,-3.5534,-3.5508,-3.55,-3.55,-3.55,-3.55,-3.55,-3.55,-3.55,-3.55,-3.55,-3.55,-3.55,-3.55,-3.5135,-3.4564,-3.4564,-3.4199,-3.3545,-3.2718,-3.2391,-3.2275,-3.1404,-3.0808,-3.0404,-3.0404,-3.0404,-3.0404,-3.0404,-3.0404,-3.0404,-3.0404,-3.0404,-3.0404,-3.0404,-3.0404,-3.0404,-3.0404,-3.0404,-3.0404,-3.0404,-3.0404,-3.0404,-3.0404,-3.0404,-3.0212,-2.9583,-2.9467,-2.9198,-2.8376,-2.8222,-2.7996,-2.7264,-2.7197,-2.7086,-2.6699,-2.7187,-2.7773,-2.8242,-2.8086,-2.8047,-2.8281,-2.7715,-2.7363,-2.7363,-2.7363,-2.707,-2.6445,-2.6797,-2.6992,-2.6992,-2.6758,-2.6641,-2.6641,-2.6641,-2.6328,-2.5703,-2.5703,-2.5703,-2.8016,-2.8715,-2.999,-3.2515,-3.3902,-3.5098,-3.6777,-3.7187,-3.7715,-3.9453,-3.9824,-4.0098,-4.0996,-4.1152,-4.1172,-4.1191,-4.1191,-4.1191,-4.1191,-4.0469,-3.9922,-3.9902,-3.9141,-3.8633,0.0,-3.7832,-3.7282,-3.7177,-3.637,-3.5838,-3.5707,-3.5635,-3.56,-3.56,-3.5534,-3.55,-3.55,-3.55,-3.55,-3.55,-3.55,-3.55,-3.55,-3.55,-3.55,-3.55,-3.55,-3.5481,-3.5462,-3.5462,-3.5442,-3.5327,-3.4449,-3.4129,-3.4013,-3.3141,-3.1795,-3.0404,-3.0404,-3.0404,-3.0404,-3.0404,-3.0404,-3.0404,-3.0404,-3.0404,-3.0404,-3.0404,-3.0404,-3.0404,-3.0404,-3.0404,-3.0404,-3.0404,-3.0404,-3.0404,-3.0404,-3.0404,-3.0385,-3.0365,-3.0365,-3.0077,-2.9204,-2.9069,-2.885,-2.8164,-2.8054,-2.7496,-2.5937,-2.5762,-2.6426,-2.8125,-2.7539,-2.7383,-2.8223,-2.8281,-2.8262,-2.8262,-2.8262,-2.8242,-2.8223,-2.7422,-2.6992,-2.6992,-2.6172,-2.5742,-2.5742,-2.5742,-2.5723,-2.5703,-2.5703,-2.5703,-3.0839,-3.2034,-3.3275,-3.5309,-3.7004,-3.8301,-3.8887,-3.9473,-3.9883,-3.9902,-3.9902,-3.9805,-3.9531,-3.9941,-4.0332,-4.0332,-4.082,-4.1191,-4.1191,-4.0957,-4.0332,-3.918,-3.9805,-3.9863,-3.8711,-3.832,0.0,-3.7301,-3.6953,-3.6481,-3.5877,-3.5682,-3.5611,-3.5611,-3.5534,-3.55,-3.55,-3.55,-3.55,-3.55,-3.55,-3.55,-3.55,-3.55,-3.55,-3.55,-3.55,-3.55,-3.55,-3.55,-3.55,-3.5404,-3.4545,-3.4205,-3.409,-3.3218,-3.2545,-3.2064,-3.2064,-3.1327,-3.05,-3.1077,-3.0865,-3.0404,-3.0404,-3.0404,-3.0404,-3.0404,-3.0404,-3.0404,-3.0404,-3.0404,-3.0404,-3.0404,-3.0404,-3.0404,-3.0404,-3.0404,-3.0404,-3.0404,-3.0404,-3.0308,-3.0,-2.9967,-2.9727,-2.8997,-2.8039,-2.716,-2.6621,-2.6055,-2.5918,-2.6504,-2.6309,-2.6269,-2.6543,-2.6562,-2.6562,-2.6562,-2.7129,-2.7187,-2.6602,-2.6855,-2.6738,-2.6152,-2.5859,-2.5703,-2.5703,-2.5703,-2.5703,-2.5703,-2.6289,-2.6562,-3.2836,-3.4383,-3.5797,-3.7581,-3.9161,-4.0309,-4.0351,-4.0566,-4.0488,-3.9629,-3.9199,-3.8691,-3.7832,-3.8125,-3.8711,-3.9336,-3.9902,-4.0488,-4.1113,-4.0937,-4.0312,-3.9199,-3.9785,-3.9941,-3.9141,-3.9062,-3.8828,-3.8262,-3.7611,-3.6998,-3.6431,-3.5911,-3.5639,-3.5639,-3.5546,-3.55,-3.55,-3.55,-3.55,-3.55,-3.55,-3.55,-3.55,-3.55,-3.55,-3.55,-3.55,-3.55,-3.55,-3.55,-3.55,-3.5442,-3.4872,-3.4661,-3.4603,-3.4045,-3.3622,-3.3314,-3.3006,-3.2199,-3.1385,-3.1948,-3.1756,-3.1288,-3.1288,-3.1288,-3.1231,-3.0942,-3.0865,-3.0788,-3.0481,-3.0404,-3.0404,-3.0404,-3.0404,-3.0404,-3.0404,-3.0404,-3.0404,-3.0404,-3.0404,-3.0404,-3.0404,-3.0411,-3.0289,-2.9836,-2.8696,-2.7791,-2.75,-2.6699,-2.6152,-2.6152,-2.5898,-2.5703,-2.5703,-2.5703,-2.5703,-2.5703,-2.623,-2.6289,-2.5723,-2.623,-2.6269,-2.5703,-2.5703,-2.5859,-2.6152,-2.6152,-2.6328,-2.6641,-2.7207,-2.7461,-3.406,-3.5809,-3.7531,-3.9363,-4.0446,-4.1087,-4.1112,-4.0469,-3.9551,-3.8594,-3.7715,-3.6816,-3.5859,-3.582,-3.6465,-3.8125,-3.8555,-3.9277,-4.1016,-4.0547,-4.0039,-4.0039,-3.9297,-3.9101,-3.9883,-3.9961,-3.9961,-3.9961,0.0,-3.7344,-3.7305,-3.6274,-3.5707,-3.5707,-3.556,-3.55,-3.55,-3.55,-3.55,-3.55,-3.55,-3.55,-3.55,-3.55,-3.55,-3.55,-3.55,-3.55,-3.55,-3.55,-3.55,-3.55,-3.55,-3.55,-3.55,-3.55,-3.4988,-3.4148,-3.3314,-3.2968,-3.291,-3.2949,-3.2949,-3.2891,-3.2891,-3.2891,-3.2737,-3.1987,-3.1737,-3.1506,-3.0673,-3.0423,-3.0404,-3.0404,-3.0404,-3.0404,-3.0404,-3.0404,-3.0404,-3.0404,-3.0404,-3.0404,-3.0404,-3.0452,-3.0517,-3.0587,-3.0016,-2.9261,-2.8476,-2.7617,-2.707,-2.707,-2.6328,-2.582,-2.582,-2.5781,-2.5762,-2.5762,-2.5723,-2.5703,-2.5703,-2.5703,-2.5723,-2.5762,-2.5762,-2.6191,-2.707,-2.707,-2.748,-2.8301,-2.8359,-2.8379,-3.7217,-3.8852,-4.0012,-4.119,-4.1736,-4.1669,-4.0507,-3.9551,-3.832,-3.6133,-3.5,-3.375,-3.1621,-3.3301,-3.5176,-3.5625,-3.7871,-4.0156,-4.1855,-4.1894,-4.1758,-4.1758,-4.1562,-4.1289,-4.0918,-4.0879,-4.0879,0.0,-3.9258,-3.7988,-3.7324,-3.6274,-3.5707,-3.5707,-3.556,-3.55,-3.55,-3.55,-3.55,-3.55,-3.55,-3.55,-3.55,-3.55,-3.55,-3.55,-3.55,-3.55,-3.55,-3.55,-3.55,-3.55,-3.55,-3.55,-3.55,-3.55,-3.5365,-3.5135,-3.4904,-3.3987,-3.3006,-3.366,-3.343,-3.2891,-3.2891,-3.2891,-3.2852,-3.2641,-3.216,-3.166,-3.1429,-3.0885,-3.0404,-3.0404,-3.0404,-3.0404,-3.0404,-3.0404,-3.0404,-3.0404,-3.0404,-3.0404,-3.0404,-3.0452,-3.0511,-3.0517,-3.0458,-3.0121,-2.9375,-2.8516,-2.7969,-2.7969,-2.7773,-2.7637,-2.7637,-2.7031,-2.668,-2.668,-2.6055,-2.5703,-2.5703,-2.5703,-2.6016,-2.666,-2.668,-2.7109,-2.7969,-2.7969,-2.8086,-2.832,-2.8965,-2.9277,-3.9207,-4.0796,-4.185,-4.2018,-4.2181,-4.1663,-3.9227,-3.8045,-3.6621,-3.3633,-3.2344,-3.1172,-2.9355,-3.1211,-3.3398,-3.4512,-3.6973,-3.9609,-4.2051,-4.2109,-4.1992,-4.2363,-4.209,-4.1543,-4.0703,-4.0625,-4.0469,-4.0098,-3.9141,-3.8398,-3.7891,-3.6491,-3.5707,-3.5707,-3.556,-3.55,-3.55,-3.55,-3.55,-3.55,-3.55,-3.55,-3.55,-3.55,-3.55,-3.55,0.0,-3.55,-3.55,-3.55,-3.55,-3.55,-3.55,-3.55,-3.55,-3.55,-3.55,-3.55,-3.55,-3.4865,-3.4122,-3.4603,-3.4356,-3.3897,-3.4019,-3.4045,-3.3968,-3.3583,-3.3141,-3.2718,-3.2333,-3.1602,-3.0962,-3.0962,-3.0673,-3.0404,-3.0404,-3.0404,-3.0404,-3.0404,-3.0404,-3.0404,-3.0404,-3.0439,-3.0472,-3.0494,-3.0594,-3.0524,-3.0129,-2.9374,-2.8867,-2.8867,-2.8535,-2.8301,-2.8301,-2.7851,-2.7578,-2.7578,-2.7109,-2.6836,-2.6836,-2.6836,-2.707,-2.7559,-2.7578,-2.8008,-2.8867,-2.8867,-2.9062,-2.9453,-2.9941,-3.0176,-4.06,-4.2091,-4.3205,-4.2393,-4.2229,-4.1369,-3.7778,-3.6281,-3.4687,-3.1269,-2.9863,-2.8945,-2.7969,-2.9394,-3.1523,-3.3965,-3.6016,-3.8496,-4.1914,-4.1797,-4.166,-4.248,-4.1855,-4.1016,-4.0156,-3.9961,-3.9531,-3.8672,-3.8496,-3.8437,-3.8437,-3.6686,-3.5693,-3.5667,-3.5562,-3.55,-3.55,-3.55,-3.55,-3.55,-3.55,-3.55,-3.55,-3.55,-3.55,-3.55,0.0,0.0,-3.55,-3.55,-3.55,-3.55,-3.55,-3.55,-3.55,-3.55,-3.55,-3.55,-3.55,-3.5486,-3.5446,-3.5446,-3.5312,-3.519,-3.5383,-3.546,-3.5346,-3.4584,-3.4302,-3.4032,-3.3276,-3.2468,-3.1852,-3.1852,-3.1192,-3.0577,-3.0577,-3.0481,-3.0404,-3.0404,-3.0404,-3.0404,-3.0404,-3.0404,-3.0411,-3.0477,-3.054,-3.0628,-3.0682,-3.015,-2.9766,-2.9766,-2.9101,-2.8652,-2.8652,-2.8535,-2.8476,-2.8476,-2.8359,-2.8301,-2.8301,-2.8301,-2.8359,-2.8476,-2.8476,-2.8906,-2.9766,-2.9766,-3.0156,-3.0898,-3.0898,-3.0898,-4.2256,-4.3537,-4.4219,-4.3364,-4.2737,-4.1236,-3.7124,-3.498,-3.2871,-2.9453,-2.8066,-2.6953,-2.5371,-2.7676,-3.0449,-3.2324,-3.5254,-3.8496,-4.1914,-4.2285,-4.2519,-4.3379,-4.2715,-4.1875,-4.1055,-4.0312,-3.9531,-3.8672,-3.793,-3.7539,-3.7539,-3.6352,-3.5646,-3.554,-3.5515,-3.55,-3.55,-3.55,-3.55,-3.55,-3.55,-3.55,-3.55,-3.55,-3.55,-3.55,-3.55,0.0,-3.55,-3.55,-3.55,-3.55,-3.55,-3.55,-3.55,-3.55,-3.55,-3.55,-3.55,-3.5361,-3.5174,-3.5174,-3.5289,-3.5391,-3.5223,-3.532,-3.5462,-3.5327,-3.4757,-3.4167,-3.4013,-3.3333,-3.2699,-3.2699,-3.2064,-3.1468,-3.1468,-3.0904,-3.0404,-3.0404,-3.0404,-3.0404,-3.0404,-3.0404,-3.039,-3.0419,-3.0513,-3.0609,-3.0623,-3.0648,-3.0664,-3.0664,-3.0547,-3.0449,-3.0449,-2.9785,-2.9375,-2.9375,-2.8691,-2.8301,-2.8301,-2.8301,-2.8633,-2.9355,-2.9375,-2.9805,-3.0664,-3.0664,-3.0742,-3.0898,-3.0898,-3.0898,-4.3044,-4.3991,-4.4527,-4.3631,-4.2217,-3.991,-3.5574,-3.3298,-3.1113,-2.7656,-2.6602,-2.6074,-2.5234,-2.7187,-2.9492,-3.123,-3.3281,-3.6152,-4.0488,-3.9922,-3.9902,-4.2129,-4.123,-4.0098,-3.9258,-3.8789,-3.8184,-3.7305,-3.6855,-3.6816,-3.7285,-3.6274,-3.5644,-3.5494,-3.55,-3.55,-3.55,-3.55,-3.55,-3.55,-3.55,-3.55,-3.55,-3.55,-3.55,-3.55,-3.55,0.0,-3.55,-3.55,-3.55,-3.55,-3.55,-3.55,-3.55,-3.55,-3.55,-3.55,-3.55,-3.5424,-3.5289,-3.5157,-3.519,-3.5297,-3.5304,-3.5391,-3.55,-3.55,-3.5192,-3.4872,-3.4872,-3.4237,-3.3583,-3.3583,-3.2929,-3.2218,-3.1795,-3.1371,-3.0942,-3.05,-3.0404,-3.0404,-3.0404,-3.0404,-3.0404,-3.0404,-3.052,-3.0603,-3.0603,-3.0781,-3.0898,-3.0898,-3.0898,-3.0898,-3.0898,-3.0527,-3.0273,-3.0273,-2.9883,-2.9648,-2.9648,-2.9648,-2.9844,-3.0273,-3.0273,-3.0488,-3.0898,-3.0898,-3.0898,-3.0898,-3.0898,-3.0898,-4.3082,-4.3821,-4.4335,-4.3406,-4.1372,-3.8515,-3.4276,-3.1926,-2.9687,-2.6387,-2.5703,-2.5703,-2.5703,-2.6973,-2.8594,-3.0332,-3.1504,-3.3867,-3.8672,-3.7734,-3.7637,-4.0566,-3.9707,-3.8457,-3.7402,-3.7305,-3.6934,-3.6074,-3.5996,-3.6288,-3.6928,-3.6163,-3.5644,-3.5494,-3.55,-3.55,-3.55,-3.55,-3.55,-3.55,-3.55,-3.55,-3.55,-3.55,-3.55,-3.55,-3.55,0.0,0.0,-3.55,-3.55,-3.55,-3.55,-3.55,-3.55,-3.55,-3.55,-3.55,-3.55,-3.55,-3.5479,-3.5246,-3.519,-3.5215,-3.5369,-3.5446,-3.55,-3.55,-3.55,-3.55,-3.55,-3.4988,-3.443,-3.4244,-3.368,-3.2949,-3.2122,-3.1814,-3.1506,-3.0808,-3.0538,-3.0404,-3.0404,-3.0404,-3.0404,-3.0404,-3.052,-3.0603,-3.0603,-3.0781,-3.0898,-3.0898,-3.0898,-3.0898,-3.0898,-3.0898,-3.0898,-3.0898,-3.0898,-3.0898,-3.0898,-3.0898,-3.0898,-3.0898,-3.0898,-3.0898,-3.0898,-3.0898,-3.0898,-3.0898,-3.0898,-3.0898,-4.2046,-4.2999,-4.3571,-4.2637,-4.0552,-3.7773,-3.4218,-3.1484,-2.8945,-2.6269,-2.5703,-2.5703,-2.5703,-2.6484,-2.7695,-2.9434,-3.1113,-3.3457,-3.7031,-3.8008,-3.8769,-3.9883,-3.9883,-3.9121,-3.7461,-3.7305,-3.6934,-3.6074,-3.5996,-3.5967,-3.5855,-3.5752,-3.5644,-3.5494,-3.55,-3.55,-3.55,-3.55,-3.55,-3.55,-3.55,-3.55,-3.55,-3.55,-3.55,-3.55,-3.55,0.0,0.0,-3.55,-3.55,-3.55,-3.55,-3.55,-3.55,-3.55,-3.55,-3.55,-3.55,-3.55,-3.55,-3.546,-3.5453,-3.5424,-3.5207,-3.5304,-3.55,-3.55,-3.55,-3.55,-3.55,-3.5442,-3.5173,-3.4398,-3.4148,-3.384,-3.2987,-3.2218,-3.1679,-3.1602,-3.0942,-3.0404,-3.0404,-3.0404,-3.0404,-3.0404,-3.052,-3.0603,-3.0603,-3.0781,-3.0898,-3.0898,-3.0898,-3.0898,-3.0898,-3.0898,-3.0898,-3.0898,-3.0898,-3.0898,-3.0898,-3.0898,-3.0898,-3.0898,-3.0898,-3.0898,-3.0898,-3.0898,-3.0898,-3.0898,-3.0898,-3.0898,-4.1931,-4.259,-4.2715,-4.185,-3.9314,-3.6269,-3.334,-3.0684,-2.8223,-2.6133,-2.5703,-2.5703,-2.5703,-2.5977,-2.6621,-2.7832,-2.8184,-2.9492,-3.2969,-3.3281,-3.4082,-3.6484,-3.6777,-3.6699,-3.6523,-3.6523,-3.6367,-3.6035,-3.5996,-3.5907,-3.5713,-3.5707,-3.5644,-3.5494,-3.55,-3.55,-3.55,-3.55,-3.55,-3.55,-3.55,-3.55,-3.55,-3.55,-3.55,-3.55,-3.55,0.0,0.0,-3.55,-3.55,-3.55,-3.55,-3.55,-3.55,-3.55,-3.55,-3.55,-3.55,-3.55,-3.55,-3.55,-3.5383,-3.5273,-3.532,-3.5424,-3.55,-3.55,-3.55,-3.55,-3.55,-3.55,-3.5269,-3.4417,-3.4603,-3.4737,-3.3872,-3.343,-3.291,-3.191,-3.1429,-3.1019,-3.05,-3.0404,-3.0404,-3.0404,-3.052,-3.0603,-3.0603,-3.0781,-3.0898,-3.0898,-3.0898,-3.0898,-3.0898,-3.0898,-3.0898,-3.0898,-3.0898,-3.0898,-3.0898,-3.0898,-3.0898,-3.0898,-3.0898,-3.0898,-3.0898,-3.0898,-3.0898,-3.0898,-3.0898,-3.0898,-4.0742,-4.1465,-4.1523,-4.0957,-3.8184,-3.5019,-3.2715,-2.998,-2.748,-2.6016,-2.5703,-2.5703,-2.5703,-2.5703,-2.5898,-2.6523,-2.6328,-2.7207,-3.0449,-3.0586,-3.1445,-3.4355,-3.4922,-3.5215,-3.5586,-3.5859,-3.5996,-3.5996,-3.5996,-3.5907,-3.5713,-3.5707,-3.5644,-3.5494,-3.55,-3.55,-3.55,-3.55,-3.55,-3.55,-3.55,-3.55,-3.55,-3.55,-3.55,-3.55,-3.55,0.0,0.0,-3.55,-3.55,-3.55,-3.55,-3.55,-3.55,-3.55,-3.55,-3.55,-3.55,-3.55,-3.5493,-3.5417,-3.5246,-3.5122,-3.5223,-3.5312,-3.5391,-3.5486,-3.55,-3.55,-3.55,-3.55,-3.5346,-3.4737,-3.5045,-3.5327,-3.4718,-3.4379,-3.3859,-3.266,-3.2045,-3.1506,-3.0885,-3.0577,-3.0404,-3.0404,-3.0509,-3.0578,-3.06,-3.0732,-3.0858,-3.0898,-3.0898,-3.0898,-3.0898,-3.0898,-3.0898,-3.0898,-3.0898,-3.0898,-3.0898,-3.0898,-3.0898,-3.0898,-3.0898,-3.1035,-3.1289,-3.1289,-3.1406,-3.1641,-3.1641,-3.1641,-3.793,-3.9277,-3.9922,-3.9922,-3.7285,-3.4277,-3.2578,-2.9512,-2.6758,-2.5879,-2.5703,-2.5703,-2.5703,-2.5703,-2.5703,-2.5703,-2.6426,-2.7891,-3.0527,-3.1621,-3.2793,-3.4492,-3.5469,-3.5644,-3.4805,-3.5488,-3.5996,-3.5996,-3.5996,0.0,-3.5713,-3.5707,-3.5644,-3.5494,-3.55,-3.55,-3.55,-3.55,-3.55,-3.55,-3.55,-3.55,-3.55,-3.55,-3.55,0.0,0.0,0.0,0.0,-3.55,-3.55,-3.55,-3.55,-3.55,-3.55,-3.55,-3.55,-3.55,-3.55,-3.55,-3.5453,-3.519,-3.5105,-3.5062,-3.4803,-3.4898,-3.5166,-3.5432,-3.55,-3.55,-3.55,-3.55,-3.55,-3.5481,-3.5481,-3.55,-3.5481,-3.4814,-3.4186,-3.4186,-3.2833,-3.1698,-3.1698,-3.0962,-3.0404,-3.0404,-3.0457,-3.0521,-3.0594,-3.0665,-3.0747,-3.0898,-3.0898,-3.0898,-3.0898,-3.0898,-3.0898,-3.0898,-3.0898,-3.0898,-3.0898,-3.0898,-3.0898,-3.0898,-3.0898,-3.1328,-3.2187,-3.2187,-3.2598,-3.3379,-3.3379,-3.3379,-3.4668,-3.5684,-3.6074,-3.4922,-3.3359,-3.1641,-2.9922,-2.8223,-2.6758,-2.5879,-2.5703,-2.5703,-2.5703,-2.5703,-2.6094,-2.7285,-2.7715,-2.8398,-2.9805,-3.1758,-3.3223,-3.375,-3.5625,-3.6543,-3.5664,-3.584,-3.5996,-3.5996,-3.5996,-3.5907,-3.5713,-3.5707,-3.5644,-3.5494,-3.55,-3.55,-3.55,-3.55,-3.55,-3.55,-3.55,-3.55,-3.55,-3.55,-3.55,0.0,0.0,0.0,0.0,-3.55,-3.55,-3.55,-3.55,-3.55,-3.55,-3.55,-3.55,-3.55,-3.55,-3.55,-3.5453,-3.519,-3.4972,-3.4832,-3.4944,-3.4908,-3.4889,-3.5147,-3.5361,-3.5365,-3.4776,-3.5045,-3.5346,-3.4757,-3.5064,-3.5346,-3.4737,-3.4391,-3.3859,-3.2718,-3.2506,-3.216,-3.1,-3.1077,-3.1096,-3.05,-3.0457,-3.0521,-3.0594,-3.0665,-3.0746,-3.0898,-3.0898,-3.0898,-3.0898,-3.0898,-3.0898,-3.0898,-3.0898,-3.0898,-3.0898,-3.0898,-3.0898,-3.0898,-3.1484,-3.1914,-3.2207,-3.2754,-3.3144,-3.3398,-3.3398,-3.3711,-3.1953,-3.3086,-3.3516,-3.2461,-3.1309,-3.0039,-2.8613,-2.7363,-2.6367,-2.5801,-2.5703,-2.5703,-2.5703,-2.5703,-2.6055,-2.7148,-2.7324,-2.7851,-2.9375,-3.125,-3.2949,-3.4238,-3.582,-3.6601,-3.6055,-3.5996,-3.5996,-3.5996,-3.5996,-3.5907,-3.5713,-3.5707,-3.5644,-3.5494,-3.55,-3.55,-3.55,-3.55,-3.55,-3.55,-3.55,-3.55,-3.55,-3.55,-3.55,0.0,0.0,0.0,0.0,-3.55,-3.55,-3.55,-3.55,-3.5308,-3.5007,-3.5007,-3.4795,-3.4558,-3.4911,-3.4788,-3.4531,-3.4579,-3.4159,-3.3609,-3.3672,-3.4302,-3.5027,-3.5088,-3.5297,-3.5385,-3.4834,-3.5084,-3.5365,-3.4814,-3.5122,-3.5346,-3.4814,-3.468,-3.4372,-3.3353,-3.3276,-3.3064,-3.2006,-3.1756,-3.1525,-3.0962,-3.0642,-3.0509,-3.0591,-3.0645,-3.0711,-3.0879,-3.0898,-3.0898,-3.0898,-3.0898,-3.0898,-3.0898,-3.0898,-3.0898,-3.0898,-3.0898,-3.1055,-3.1387,-3.1914,-3.2519,-3.3144,-3.3984,-3.4375,-3.4375,-3.4375,-3.4668,0.0,-3.1074,-3.1816,-3.1758,-3.0527,-2.9101,-2.8301,-2.6855,0.0,-2.5703,-2.5703,-2.5723,-2.5781,-2.5742,-2.5762,-2.5957,-2.5977,-2.6855,-2.9336,-3.0547,-3.2422,-3.5781,-3.6133,-3.6074,-3.6016,-3.5996,-3.5996,-3.5996,-3.5996,-3.5907,-3.5713,-3.5707,-3.5644,-3.5494,-3.55,-3.55,-3.55,-3.55,-3.55,-3.55,-3.55,-3.55,-3.55,-3.55,-3.5462,0.0,0.0,0.0,0.0,-3.5327,-3.5327,-3.5327,-3.5327,-3.4814,-3.4109,-3.4109,-3.3603,-3.3026,-3.384,-3.3583,-3.2993,-3.3528,-3.2855,-3.1771,-3.1501,-3.3269,-3.5295,-3.5043,-3.5224,-3.55,-3.55,-3.55,-3.55,-3.55,-3.55,-3.5481,-3.5423,-3.5404,-3.5385,-3.5327,-3.4718,-3.4167,-3.4032,-3.2833,-3.1814,-3.1641,-3.0962,-3.0528,-3.0575,-3.06,-3.0674,-3.0878,-3.0898,-3.0898,-3.0898,-3.0898,-3.0937,-3.0996,-3.0996,-3.1016,-3.1074,-3.1074,-3.1465,-3.2266,-3.2344,-3.3164,-3.4785,-3.5605,-3.5996,-3.5996,-3.5996,-3.5996,-2.4766,0.0,-2.8066,-2.7383,-2.6914,-2.6562,0.0,-2.5996,-2.5703,-2.5703,-2.5703,-2.5898,-2.6562,-2.6152,-2.6348,-2.8359,-2.8672,-2.9121,-3.041,-3.2441,-3.4844,-3.7656,-3.7402,-3.6738,-3.6055,-3.5996,-3.5996,-3.5996,-3.5996,-3.5907,-3.5713,-3.5707,-3.5644,-3.5494,-3.55,-3.55,-3.55,-3.55,-3.55,-3.55,-3.55,-3.55,-3.55,-3.55,-3.5135,0.0,0.0,0.0,-3.3506,-3.3506,-3.3506,-3.3506,-3.3506,-3.3391,-3.3218,-3.3218,-3.3083,-3.2929,-3.3122,-3.3064,-3.2878,-3.2833,-3.2491,-3.2068,-3.1793,-3.2724,-3.3873,-3.3809,-3.4612,-3.55,-3.55,-3.55,-3.55,-3.55,-3.55,-3.5327,-3.4641,-3.4507,-3.4314,-3.3641,-3.3872,-3.3801,-3.2506,-3.3026,-3.2949,-3.1,-3.1096,-3.1185,-3.0597,-3.0565,-3.0638,-3.0742,-3.0837,-3.0898,-3.0898,-3.0898,-3.1172,-3.1855,-3.1894,-3.2168,-3.2793,-3.2812,-3.291,-3.3105,-3.3769,-3.4629,-3.5684,-3.5898,-3.5996,-3.5996,-3.5996,-3.5996,-2.2556,-2.4136,-2.5661,-2.5215,-2.5389,-2.5661,-2.5683,-2.5703,-2.5703,-2.5703,-2.5703,-2.584,-2.6328,-2.6348,-2.6758,-2.8184,-2.873,-2.9726,-3.1758,-3.4277,-3.6426,-3.7832,-3.7598,-3.6953,0.0,-3.5996,-3.5996,-3.5996,-3.5996,-3.5907,-3.5713,-3.5707,-3.5454,-3.4924,-3.4911,-3.5103,-3.55,-3.55,-3.55,-3.55,-3.5084,-3.4911,-3.4891,-3.4487,-3.4045,0.0,0.0,0.0,-3.2891,-3.2891,-3.2891,-3.2891,-3.2891,-3.2679,-3.2352,-3.2352,-3.2102,-3.1814,-3.2218,-3.2263,-3.2053,-3.1423,-3.108,-3.0872,-3.0598,-3.1354,-3.2383,-3.2761,-3.3541,-3.4404,-3.4795,-3.4911,-3.5007,-3.5404,-3.55,-3.5365,-3.4911,-3.4795,-3.4661,-3.418,-3.4468,-3.4507,-3.3596,-3.3853,-3.3725,-3.2352,-3.2199,-3.2099,-3.1695,-3.1685,-3.1754,-3.1874,-3.1957,-3.2007,-3.2031,-3.2051,-3.209,-3.2187,-3.2559,-3.2949,-3.3379,-3.3398,-3.3594,-3.3984,-3.4844,-3.5527,-3.5996,-3.5996,-3.5996,-3.5996,-3.5996,-3.5996,-2.1938,-2.3095,-2.4284,-2.437,-2.4987,-2.5601,-2.566,-2.5662,-2.5662,-2.5683,-2.5683,-2.5761,-2.6055,-2.6699,-2.7285,-2.7559,-2.832,-3.0039,-3.332,-3.5586,-3.6992,-3.7266,-3.7187,0.0,-3.6074,-3.5996,-3.5996,-3.5996,-3.5879,-3.5711,-3.5522,-3.5395,-3.4911,-3.402,-3.3994,-3.4353,-3.5096,-3.5096,-3.5096,-3.5096,-3.4353,-3.3994,-3.3975,-3.3237,-3.2833,-3.2718,0.0,0.0,-3.2526,-3.2526,-3.2526,-3.2526,-3.2526,-3.2102,-3.15,-3.1456,-3.1001,-3.0494,-3.1206,-3.128,-3.0917,-3.0,-2.9561,-2.9361,-2.9134,-2.988,-3.0939,-3.1628,-3.2332,-3.3064,-3.3821,-3.3994,-3.4218,-3.5096,-3.5308,-3.5346,-3.5462,-3.55,-3.55,-3.55,-3.55,-3.5462,-3.5327,-3.4795,-3.4321,-3.4052,-3.3487,-3.3069,-3.2995,-3.2982,-3.3063,-3.326,-3.3298,-3.3339,-3.3398,-3.3516,-3.3301,-3.2617,-3.3223,-3.3652,-3.3789,-3.3809,-3.4141,-3.4883,-3.5625,-3.5996,-3.5996,-3.5996,-3.5996,-3.5996,-3.5996,-3.5996,-2.2431,-2.3463,-2.416,-2.428,-2.4912,-2.5526,-2.5535,-2.5537,-2.5551,-2.5603,-2.5628,-2.6083,-2.7617,-2.8008,-2.8574,-3.0059,-3.1035,-3.2539,-3.5215,-3.5312,-3.5644,-3.7129,0.0,-3.6152,-3.6016,-3.5996,-3.5996,-3.5996,0.0,-3.4833,-3.4688,-3.3975,-3.3436,-3.3115,-3.3103,-3.316,-3.3295,-3.3295,-3.3295,-3.3295,-3.316,-3.3103,-3.3103,-3.2968,-3.2526,0.0,0.0,-3.1468,-3.0788,-3.0788,-3.0788,-3.0788,-3.0788,-3.0712,-3.0559,-3.0334,-3.0317,-3.0386,-3.0296,-3.0114,-2.9926,-2.9751,-2.9561,-2.9392,-2.9351,-2.9598,-2.9931,-3.0044,-3.1444,-3.2929,-3.3064,-3.3103,-3.3314,-3.418,-3.4398,-3.4603,-3.5346,-3.55,-3.55,-3.55,-3.55,-3.5269,-3.4526,-3.4911,-3.4788,-3.3314,-3.3603,-3.375,-3.3018,-3.2968,-3.3057,-3.32,-3.3278,-3.3339,-3.3398,-3.4082,-3.4453,-3.4316,-3.4434,-3.4824,-3.5566,-3.5605,-3.5664,-3.5801,-3.5937,-3.5996,-3.5996,-3.5996,-3.5996,-3.5996,-3.5996,-3.5996,-2.1346,-2.2486,-2.3575,-2.4066,-2.5185,-2.6152,-2.6193,-2.6203,-2.6347,-2.6857,-2.6959,-2.7213,-2.8092,-2.8995,-3.0171,-3.1953,-3.2988,-3.3965,-3.5137,-3.5351,-3.5703,0.0,0.0,-3.5801,-3.5332,-3.5293,-3.5098,-3.4629,0.0,0.0,-3.379,-3.343,-3.2912,-3.2269,-3.2256,-3.2025,-3.1538,-3.1538,-3.2006,-3.2891,-3.2468,-3.2256,-3.2237,-3.1756,-3.1346,-3.1,0.0,-3.0769,-3.0404,-3.0404,-3.0404,-3.0404,-3.0404,-3.0404,-3.0367,-3.0096,-3.0075,-3.0143,-2.9908,-2.9713,-2.9542,-2.9542,-2.9384,-2.9171,-2.9171,-2.9435,-2.9705,-2.9705,-3.0597,-3.1654,-3.2141,-3.2256,-3.2468,-3.3295,-3.3859,-3.4321,-3.4718,-3.5173,-3.55,-3.55,-3.55,-3.5365,-3.4968,-3.5231,-3.5231,-3.4423,-3.4661,-3.4757,-3.4365,-3.4334,-3.4395,-3.4495,-3.4559,-3.4629,-3.4733,-3.5154,-3.5391,-3.5391,-3.5391,-3.5586,-3.5976,-3.5996,-3.5996,-3.5996,-3.5996,-3.5996,-3.5996,-3.5996,-3.5996,-3.5996,-3.5996,-3.5996,-2.0828,-2.2014,-2.3373,-2.4181,-2.5382,-2.654,-2.7193,-2.7187,-2.7369,-2.843,-2.8508,-2.8465,-2.8714,-3.0159,-3.1839,-3.3437,-3.4434,-3.4922,-3.4726,-3.5273,-3.5625,-3.543,-3.5391,-3.5137,-3.4453,-3.4394,-3.4121,0.0,0.0,0.0,-3.2891,-3.2691,-3.2208,-3.1416,-3.141,-3.1077,-3.0404,-3.0404,-3.1038,-3.2314,-3.1698,-3.141,-3.1365,-3.0692,-3.0404,-3.0404,-3.0404,-3.0404,-3.0404,-3.0404,-3.0404,-3.0404,-3.0404,-3.0361,-3.0286,-3.0025,-2.9901,-2.9837,-2.9687,-2.9494,-2.931,-2.931,-2.9178,-2.9005,-2.9005,-2.9334,-2.9705,-2.9705,-3.0037,-3.0558,-3.1212,-3.141,-3.1602,-3.2429,-3.3276,-3.3955,-3.4167,-3.4872,-3.55,-3.55,-3.55,-3.55,-3.55,-3.55,-3.55,-3.55,-3.55,-3.55,-3.55,-3.55,-3.5528,-3.5595,-3.5657,-3.5736,-3.5896,-3.5951,-3.5996,-3.5996,-3.5996,-3.5996,-3.5996,-3.5996,-3.5996,-3.5996,-3.5996,-3.5996,-3.5996,-3.5996,-3.5996,-3.5996,-3.5996,-3.5996,-2.2281,-2.3358,-2.4211,-2.5005,-2.5313,-2.6015,-2.8398,-2.8364,-2.8299,-2.9983,-2.9733,-2.9466,-3.0283,-3.1891,-3.3441,-3.4433,-3.5332,-3.5625,-3.4805,0.0,-3.4492,-3.3672,-3.3594,-3.3555,-3.3496,-3.3496,0.0,0.0,0.0,0.0,-3.1999,-3.1173,-3.0627,-3.0506,-3.05,-3.0462,-3.0404,-3.0404,-3.0462,-3.0577,-3.0519,-3.05,-3.05,-3.0423,-3.0404,-3.0404,-3.0404,-3.0404,-3.0404,-3.0404,-3.0404,-3.0404,-3.0404,-3.0254,-2.9999,-2.9796,-2.9607,-2.9444,-2.9424,-2.9246,-2.904,-2.904,-2.9017,-2.9005,-2.9005,-2.9334,-2.9705,-2.9705,-3.0037,-3.0404,-3.0481,-3.05,-3.0712,-3.1583,-3.241,-3.3218,-3.4032,-3.4872,-3.55,-3.55,-3.55,-3.55,-3.55,-3.55,-3.55,-3.55,-3.55,-3.55,-3.55,-3.55,-3.5528,-3.5595,-3.5596,-3.5698,-3.5875,-3.5951,-3.5996,-3.5996,-3.5996,-3.5996,-3.5996,-3.5996,-3.5996,-3.5996,-3.5996,-3.5996,-3.5996,-3.5996,-3.5996,-3.5996,-3.5996,-3.5996,-2.112,-2.2654,-2.4168,-2.449,-2.5736,-2.7294,-2.878,-2.8857,-2.9272,-3.1532,-3.1811,-3.1786,-3.2156,-3.2835,-3.3648,-3.4503,-3.4959,-3.5078,-3.4746,-3.4238,-3.3769,-3.3437,-3.3398,-3.3203,-3.2695,-3.2656,0.0,0.0,0.0,0.0,-3.1101,-3.075,-3.0516,-3.039,-3.0404,-3.0404,-3.0404,-3.0404,-3.0404,-3.0404,-3.0404,-3.0404,-3.0404,-3.0404,-3.0404,-3.0404,-3.0404,-3.0404,-3.0404,-3.0404,-3.0404,-3.0404,-3.0404,-3.0241,-2.9977,-2.9771,-2.957,-2.9382,-2.9203,-2.9078,-2.9005,-2.9005,-2.9005,-2.9005,-2.9005,-2.9238,-2.9551,-2.9661,-2.992,-3.0196,-3.0361,-3.0404,-3.0481,-3.0808,-3.1545,-3.2372,-3.3218,-3.4083,-3.4853,-3.5385,-3.55,-3.55,-3.55,-3.55,-3.55,-3.55,-3.55,-3.55,-3.55,-3.55,-3.5508,-3.5534,-3.5577,-3.567,-3.5875,-3.5917,-3.597,-3.5996,-3.5996,-3.5996,-3.5996,-3.5996,-3.5996,-3.5996,-3.5996,-3.5996,-3.5996,-3.5996,-3.5996,-3.5996,-3.5996,-3.5996,-2.07,-2.2355,-2.4168,-2.4413,-2.601,-2.7909,-2.9544,-2.9915,-3.0641,-3.3199,-3.3354,-3.3073,-3.3215,-3.3285,-3.3622,-3.448,-3.4666,-3.4609,-3.4336,-3.3555,-3.293,-3.2637,-3.2617,-3.2383,-3.1836,0.0,0.0,0.0,0.0,0.0,0.0,-3.0581,-3.0524,-3.039,-3.0404,-3.0404,-3.0404,-3.0404,-3.0404,-3.0404,-3.0404,-3.0404,-3.0404,-3.0404,-3.0404,-3.0404,-3.0404,-3.0404,-3.0404,-3.0404,-3.0404,-3.0398,-3.0311,-3.0157,-2.9969,-2.9705,-2.9523,-2.9361,-2.9089,-2.9005,-2.9005,-2.9005,-2.9005,-2.9005,-2.9005,-2.92,-2.9444,-2.9634,-2.9845,-3.0068,-3.0323,-3.0404,-3.0404,-3.0404,-3.1077,-3.1852,-3.241,-3.341,-3.4379,-3.4968,-3.5308,-3.55,-3.55,-3.55,-3.55,-3.55,-3.55,-3.55,-3.55,-3.55,-3.55,-3.55,-3.5556,-3.5657,-3.5829,-3.5873,-3.5939,-3.5996,-3.5996,-3.5996,-3.5996,-3.5996,-3.5996,-3.5996,-3.5996,-3.5996,-3.5996,-3.5996,-3.5996,-3.5996,-3.5996,-3.5996,-2.1513,-2.2778,-2.4298,-2.5096,-2.5962,-2.7525,-3.0929,-3.1698,-3.2429,-3.4981,-3.4122,-3.2993,-3.3251,-3.3268,-3.3548,-3.4549,-3.4687,-3.4394,-3.3516,-3.2715,-3.1875,-3.1016,-3.0918,-3.0918,-3.0918,0.0,0.0,0.0,0.0,0.0,0.0,-3.0541,-3.0463,-3.041,-3.0404,-3.0404,-3.0404,-3.0404,-3.0404,-3.0404,-3.0404,-3.0404,-3.0404,-3.0404,-3.0404,-3.0404,-3.0404,-3.0404,-3.0404,-3.0404,-3.0404,-3.0367,-3.0096,-2.9999,-2.9954,-2.9561,-2.9402,-2.9361,-2.9089,-2.9005,-2.9005,-2.9005,-2.9005,-2.9005,-2.9005,-2.92,-2.9434,-2.9634,-2.9845,-3.0061,-3.0323,-3.0404,-3.0404,-3.0404,-3.1058,-3.1698,-3.1698,-3.3006,-3.4186,-3.4205,-3.4911,-3.5481,-3.55,-3.55,-3.55,-3.55,-3.55,-3.55,-3.55,-3.55,-3.55,-3.55,-3.5556,-3.5621,-3.5696,-3.5812,-3.5938,-3.5996,-3.5996,-3.5996,-3.5996,-3.5996,-3.5996,-3.5996,-3.5996,-3.5996,-3.5996,-3.5996,-3.5996,-3.5996,-3.5996,-3.5996,-2.1513,-2.2778,-2.4298,-2.5096,-2.7308,-2.9692,-3.1333,-3.1698,-3.2447,-3.504,-3.4749,-3.4047,-3.4133,-3.4202,-3.4345,-3.4597,-3.4158,-3.3691,-3.3437,-3.2715,-3.2109,-3.1855,-3.2305,-3.2441,0.0,0.0,0.0,0.0,0.0,0.0,0.0,-3.0581,-3.0528,-3.039,-3.0404,-3.0404,-3.0404,-3.0404,-3.0404,-3.0404,-3.0404,-3.0404,-3.0404,-3.0404,-3.0404,-3.0404,-3.0404,-3.0404,-3.0404,-3.0404,-3.0404,-3.0367,-3.0096,-2.9916,-2.9765,-2.9494,-2.9278,-2.9112,-2.904,-2.9005,-2.9005,-2.9005,-2.9005,-2.9005,-2.9005,-2.9062,-2.9203,-2.9588,-2.9729,-2.9888,-3.0292,-3.0404,-3.0404,-3.0404,-3.0596,-3.0942,-3.1564,-3.2083,-3.2795,-3.3975,-3.4417,-3.4776,-3.5385,-3.55,-3.55,-3.55,-3.55,-3.55,-3.55,-3.55,-3.55,-3.55,-3.5528,-3.555,-3.5616,-3.5712,-3.5809,-3.5918,-3.5974,-3.5996,-3.5996,-3.5996,-3.5996,-3.5996,-3.5996,-3.5996,-3.5996,-3.5996,-3.5996,-3.5996,-3.5996,-3.5996,-2.2303,-2.3573,-2.4882,-2.6053,-2.8385,-3.0808,-3.2333,-3.2968,-3.3667,-3.523,-3.4932,-3.4495,-3.4899,-3.4493,-3.4338,-3.5048,-3.4178,-3.3516,-3.3867,-3.3203,-3.2676,-3.2676,-3.2812,-3.2734,0.0,0.0,0.0,0.0,0.0,0.0,0.0,-3.0603,-3.0541,-3.0396,-3.0404,-3.0404,-3.0404,-3.0404,-3.0231,-2.989,-3.0231,-3.0212,-2.991,-3.0231,-3.0404,-3.0404,-3.0404,-3.0404,-3.0404,-3.0404,-3.0404,-3.0373,-3.0215,-3.0018,-2.9788,-2.9598,-2.9373,-2.9145,-2.9051,-2.9005,-2.9005,-2.9005,-2.9005,-2.9005,-2.9005,-2.9005,-2.9089,-2.9465,-2.9579,-2.967,-3.0135,-3.0248,-3.0267,-3.0367,-3.0404,-3.0538,-3.1077,-3.1468,-3.2006,-3.3006,-3.3744,-3.4379,-3.4891,-3.5269,-3.55,-3.55,-3.55,-3.55,-3.55,-3.55,-3.55,-3.55,-3.55,-3.5534,-3.5595,-3.5644,-3.5723,-3.5898,-3.5944,-3.5974,-3.5996,-3.5996,-3.5996,-3.5996,-3.5996,-3.5996,-3.5996,-3.5996,-3.5996,-3.5996,-3.5996,-3.5996,-2.3388,-2.4667,-2.571,-2.7454,-2.9217,-3.1154,-3.3648,-3.4814,-3.5404,-3.5481,-3.4866,-3.4612,-3.5535,-3.4465,-3.4014,-3.5721,-3.4609,-3.3809,-3.459,-3.4023,-3.3496,-3.3418,-3.2812,0.0,0.0,0.0,0.0,0.0,0.0,0.0,0.0,-3.0603,-3.0541,-3.0396,-3.0404,-3.0404,-3.0404,-3.0404,-3.0,0.0,-3.0019,-2.9987,-2.9242,-3.0038,-3.0365,-3.0288,-3.0288,-3.0288,-3.0288,-3.0365,-3.0404,-3.0404,-3.0367,-3.0202,-2.9954,-2.9756,-2.9533,-2.933,-2.9078,-2.9005,-2.9005,-2.9005,-2.9005,-2.9005,-2.9005,-2.9005,-2.9062,-2.932,-2.9402,-2.9484,-2.9901,-3.0006,-3.0068,-3.0343,-3.0404,-3.0404,-3.0404,-3.1019,-3.1602,-3.1679,-3.2987,-3.4109,-3.4186,-3.493,-3.55,-3.55,-3.55,-3.55,-3.55,-3.55,-3.55,-3.55,-3.55,-3.5528,-3.5599,-3.56,-3.5685,-3.5862,-3.5896,-3.5938,-3.5995,-3.5996,-3.5996,-3.5996,-3.5996,-3.5996,-3.5996,-3.5996,-3.5996,-3.5996,-3.5996,-3.6035,-2.2585,-2.3737,-2.4941,-2.7304,-2.9679,-3.191,-3.3782,-3.4359,-3.4661,-3.5365,-3.5379,-3.5388,-3.5647,-3.5482,-3.5477,-3.5937,-3.5117,-3.4492,-3.4668,-3.4531,-3.418,-3.3476,-3.3848,0.0,0.0,0.0,0.0,0.0,0.0,0.0,-3.0611,-3.0603,-3.0541,-3.0396,-3.0404,-3.0404,-3.0404,-3.0404,-3.0308,0.0,-3.0308,-3.0308,-3.0135,-3.0308,-3.0019,-2.9371,-2.9371,-2.9371,-2.9429,-3.0115,-3.0404,-3.0373,-3.0182,-2.9947,-2.9748,-2.9542,-2.9301,-2.9078,-2.9028,-2.9005,-2.9005,-2.9005,-2.9005,-2.9005,-2.9005,-2.9005,-2.9062,-2.932,-2.9402,-2.9484,-2.9901,-3.0006,-3.0068,-3.0343,-3.0404,-3.0404,-3.0404,-3.0558,-3.0885,-3.1564,-3.2506,-3.3391,-3.409,-3.493,-3.55,-3.55,-3.55,-3.55,-3.55,-3.55,-3.55,-3.55,-3.55,-3.5514,-3.5515,-3.556,-3.5616,-3.5668,-3.5811,-3.5907,-3.5916,-3.5974,-3.5996,-3.5996,-3.5996,-3.5996,-3.5996,-3.5996,-3.5996,-3.5996,-3.5996,-3.6367,-2.228,-2.4068,-2.6048,-2.8984,-3.0717,-3.2025,-3.3295,-3.3583,-3.3699,-3.416,-3.4943,-3.5568,-3.5678,-3.5446,-3.5403,-3.5917,-3.4922,-3.4219,-3.4648,-3.4336,-3.3906,-3.3457,-3.3457,0.0,0.0,0.0,0.0,0.0,0.0,-3.081,-3.0611,-3.0603,-3.0541,-3.0396,-3.0404,-3.0404,-3.0404,-3.0404,-3.0192,-2.9775,-3.0192,-3.0404,-3.0404,-3.0404,-3.0154,-2.9698,-2.928,-2.9107,-2.9107,-2.9179,-2.9198,-2.9225,-2.9468,-2.9456,-2.929,-2.9475,-2.9385,-2.916,-2.9033,-2.9005,-2.9005,-2.9005,-2.9005,-2.9005,-2.9005,-2.9005,-2.904,-2.9178,-2.9299,-2.9474,-2.9771,-2.9931,-3.0068,-3.0343,-3.0404,-3.0404,-3.0404,-3.0404,-3.0538,-3.0981,-3.1756,-3.2583,-3.343,-3.4661,-3.55,-3.55,-3.55,-3.55,-3.55,-3.55,-3.55,-3.55,-3.55,-3.55,-3.55,-3.5528,-3.5574,-3.5605,-3.571,-3.5803,-3.59,-3.5922,-3.5973,-3.5996,-3.5996,-3.5996,-3.5996,-3.5996,-3.5996,-3.5996,-3.5996,-3.6465,-2.1604,-2.4308,-2.7218,-3.0452,-3.1352,-3.1698,-3.2506,-3.2699,-3.2743,-3.2884,-3.4058,-3.5114,-3.5243,-3.474,-3.4577,-3.5409,-3.4336,-3.3652,-3.4375,-3.3848,-3.3359,-3.3203,0.0,0.0,0.0,0.0,0.0,0.0,0.0,-3.081,-3.0611,-3.0603,-3.0541,-3.0396,-3.0404,-3.0404,-3.0404,-3.0404,-3.0038,-2.9338,-3.0058,-3.0404,-3.0404,-3.0404,-3.0327,-3.0135,-2.9275,-2.8896,-2.8838,-2.8165,-2.7879,-2.7915,-2.8574,-2.8683,-2.8544,-2.9194,-2.9308,-2.9113,-2.9041,-2.9005,-2.9005,-2.9005,-2.9005,-2.9005,-2.9005,-2.9005,-2.9005,-2.9005,-2.9167,-2.9384,-2.9634,-2.9821,-3.0013,-3.0336,-3.0404,-3.0404,-3.0404,-3.0404,-3.0404,-3.0404,-3.1096,-3.2006,-3.2968,-3.4314,-3.5327,-3.5481,-3.55,-3.55,-3.55,-3.55,-3.55,-3.55,-3.55,-3.55,-3.55,-3.55,-3.5541,-3.56,-3.5611,-3.5702,-3.5898,-3.591,-3.5946,-3.5996,-3.5996,-3.5996,-3.5996,-3.5996,-3.5996,-3.5996,-3.5996,-3.6543,-1.9228,-2.2434,-2.6116,-2.878,-3.0006,-3.0808,-3.166,-3.1852,-3.2062,-3.2835,-3.3165,-3.3369,-3.3504,-3.3495,-3.3526,-3.371,-3.3555,-3.3437,-3.3555,-3.3476,-3.3144,-3.2441,0.0,0.0,0.0,0.0,0.0,0.0,-3.0898,-3.081,-3.0611,-3.0603,-3.0541,-3.0396,-3.0404,-3.0404,-3.0404,-3.0404,-3.0346,-3.0231,-3.0346,-3.0404,-3.0404,-3.0404,-2.9981,-2.9223,-2.8415,-2.8068,-2.8049,-2.7934,-2.7804,-2.765,-2.7765,-2.7532,-2.7259,-2.8017,-2.8186,-2.8099,-2.876,-2.9005,-2.9005,-2.9005,-2.9005,-2.9005,-2.9005,-2.9005,-2.9005,-2.9005,-2.9028,-2.916,-2.9588,-2.9722,-2.9856,-3.0292,-3.0404,-3.0404,-3.0404,-3.0404,-3.0404,-3.0404,-3.1096,-3.2199,-3.3763,-3.4225,-3.4622,-3.5385,-3.55,-3.55,-3.55,-3.55,-3.55,-3.55,-3.55,-3.55,-3.55,-3.55,-3.5541,-3.56,-3.5655,-3.5749,-3.59,-3.597,-3.5996,-3.5996,-3.5996,-3.5996,-3.5996,-3.5996,-3.5996,-3.5996,-3.5996,-3.6875,-2.1108,-2.3201,-2.5236,-2.7799,-2.9044,-2.9775,-3.016,-3.0651,-3.1144,-3.1526,-3.1654,-3.2024,-3.3069,-3.3288,-3.3317,-3.3398,-3.3027,-3.2734,-3.2734,-3.2305,-3.1875,-3.1504,0.0,0.0,0.0,0.0,0.0,0.0,-3.0898,-3.081,-3.0611,-3.0603,-3.0541,-3.0396,-3.0404,-3.0404,-3.0404,-3.0404,-3.0404,-3.0404,-3.0404,-3.0404,-3.0404,-3.0404,-2.9929,-2.9069,-2.8261,-2.7621,-2.7121,-2.664,-2.6329,-2.62,-2.667,-2.6605,-2.6339,-2.714,-2.7579,-2.7842,-2.8209,-2.862,-2.9005,-2.9005,-2.9005,-2.9005,-2.9005,-2.9005,-2.9005,-2.9005,-2.9112,-2.9278,-2.9474,-2.9705,-2.9916,-3.0129,-3.0299,-3.0404,-3.0404,-3.0404,-3.0404,-3.0404,-3.1096,-3.2083,-3.3276,-3.3878,-3.4507,-3.5365,-3.55,-3.55,-3.55,-3.55,-3.55,-3.55,-3.55,-3.55,-3.55,-3.55,-3.5541,-3.56,-3.5626,-3.5728,-3.5898,-3.5939,-3.5951,-3.5996,-3.5996,-3.5996,-3.5996,-3.5996,-3.5996,-3.5996,-3.5996,-3.6934,-2.2028,-2.3278,-2.4048,-2.6601,-2.8025,-2.8849,-2.9079,-2.9665,-3.0249,-3.0494,-3.0621,-3.1106,-3.2439,-3.2694,-3.2702,-3.2754,-3.2266,-3.1875,-3.1875,-3.1309,-3.0898,-3.0898,0.0,0.0,0.0,0.0,0.0,0.0,-3.0878,-3.0784,-3.0611,-3.0584,-3.0513,-3.039,-3.0404,-3.0404,-3.0404,-3.0404,-3.0404,-3.0404,-3.0404,-3.0404,-3.0385,-3.0173,-2.9602,-2.8761,-2.8165,-2.7409,-2.6524,-2.5654,-2.5152,-2.5025,-2.5698,-2.5699,-2.5421,-2.6284,-2.6857,-2.7229,-2.742,-2.8026,-2.8693,-2.8693,-2.8822,-2.9005,-2.9005,-2.9005,-2.9005,-2.9005,-2.9145,-2.931,-2.9382,-2.9661,-2.9939,-2.9991,-3.0202,-3.0404,-3.0404,-3.0404,-3.0404,-3.0404,-3.0923,-3.1698,-3.2718,-3.343,-3.4237,-3.5346,-3.55,-3.55,-3.55,-3.55,-3.55,-3.55,-3.55,-3.55,-3.55,-3.55,-3.554,-3.5611,-3.5621,-3.5721,-3.5914,-3.5938,-3.5948,-3.5996,-3.5996,-3.5996,-3.5996,-3.5996,-3.5996,-3.5996,-3.5996,-3.6934,-1.9558,-2.1038,-2.2254,-2.4808,-2.6717,-2.8182,-2.9021,-2.922,-2.9535,-3.0496,-3.0692,-3.0764,-3.0976,-3.1015,-3.1035,-3.1035,-3.0996,-3.0976,-3.0976,-3.0937,-3.0898,-3.0898,0.0,0.0,0.0,0.0,0.0,0.0,-3.0771,-3.0677,-3.0609,-3.0545,-3.0467,-3.041,-3.0404,-3.0404,-3.0404,-3.0404,-3.0404,-3.0404,-3.0404,-3.0404,-3.0365,-2.9544,-2.8723,-2.7953,-2.7915,-2.7409,-2.6524,-2.5654,-2.5109,-2.4832,-2.5006,-2.4731,-2.4403,-2.5402,-2.5653,-2.5631,-2.6392,-2.72,-2.786,-2.786,-2.8374,-2.9005,-2.9005,-2.9005,-2.9005,-2.9005,-2.9017,-2.9078,-2.933,-2.957,-2.9754,-2.9962,-3.0202,-3.0404,-3.0404,-3.0404,-3.0404,-3.0404,-3.0442,-3.0981,-3.2622,-3.2949,-3.3545,-3.5231,-3.55,-3.55,-3.55,-3.55,-3.55,-3.55,-3.55,-3.55,-3.55,-3.55,-3.557,-3.5686,-3.5696,-3.5788,-3.5996,-3.5996,-3.5996,-3.5996,-3.5996,-3.5996,-3.5996,-3.5996,-3.5996,-3.5996,-3.5996,-3.6934,-1.8157,-1.9257,-2.0373,-2.237,-2.4201,-2.5731,-2.6564,-2.7689,-2.8816,-2.9731,-2.9968,-3.0174,-3.0781,-3.0898,-3.0898,-3.0898,-3.0898,-3.0898,-3.0898,-3.0898,-3.0898,-3.0898,0.0,0.0,0.0,0.0,0.0,0.0,0.0,-3.0642,-3.0548,-3.0505,-3.0463,-3.041,-3.0404,-3.0404,-3.0404,-3.0404,-3.0404,-3.0404,-3.0404,-3.0404,-3.0385,-3.0077,-2.9198,-2.7895,-2.7895,-2.7082,-2.5731,-2.5423,-2.5141,-2.4911,-2.4884,-2.4674,-2.4421,-2.4644,-2.502,-2.5429,-2.5723,-2.6696,-2.7798,-2.7798,-2.8338,-2.9005,-2.9005,-2.9005,-2.9005,-2.9005,-2.9005,-2.9028,-2.9123,-2.9322,-2.9589,-2.9924,-3.0202,-3.0404,-3.0404,-3.0404,-3.0404,-3.0404,-3.0404,-3.0923,-3.2602,-3.2891,-3.368,-3.5923,-3.5827,-3.5692,-3.6192,-3.5827,-3.55,-3.55,-3.55,-3.55,-3.55,-3.55,-3.555,-3.5693,-3.5707,-3.5795,-3.5996,-3.5996,-3.5996,-3.5996,-3.5996,-3.5996,-3.5996,-3.5996,-3.5996,-3.5996,-3.5996,-3.6934,-1.7064,-1.8126,-1.9396,-2.1081,-2.2393,-2.3661,-2.5114,-2.6393,-2.7542,-2.846,-2.8923,-2.9336,-2.9922,-3.0039,-3.0215,-3.0801,-3.0898,-3.0801,-3.0508,-3.0469,-3.0351,-3.0059,0.0,0.0,0.0,0.0,0.0,0.0,0.0,0.0,-2.9663,-2.9635,-2.9607,-2.9563,-2.9558,-2.9692,-2.9967,-2.9967,-3.0115,-3.0404,-3.0404,-3.0404,-3.0385,-2.9827,-2.8948,-2.7876,-2.7274,-2.6365,-2.5308,-2.5308,-2.5173,-2.4998,-2.4904,-2.4719,-2.4486,-2.4348,-2.4597,-2.5007,-2.5007,-2.587,-2.7045,-2.731,-2.7952,-2.8638,-2.8932,-2.9005,-2.9005,-2.9005,-2.9005,-2.9005,-2.9005,-2.9238,-2.9589,-2.9924,-3.0202,-3.0404,-3.0404,-3.0404,-3.0404,-3.0404,-3.0635,-3.1269,-3.266,-3.3141,-3.4007,-3.6,-3.5846,-3.5692,-3.6231,-3.5827,-3.55,-3.55,-3.55,-3.55,-3.55,-3.55,-3.5546,-3.5663,-3.5675,-3.5746,-3.5882,-3.593,-3.5972,-3.5972,-3.5995,-3.5996,-3.5996,-3.5996,-3.5996,-3.5996,-3.5996,-3.6934,0.0,0.0,0.0,-2.0985,-2.1389,-2.2092,-2.4743,-2.5364,-2.5691,-2.6737,-2.7637,-2.8242,-2.8281,-2.8301,-2.8848,-3.0547,-3.082,-3.0527,-2.9687,-2.9551,-2.9258,0.0,0.0,0.0,0.0,0.0,0.0,0.0,-2.8132,-2.8061,-2.7993,-2.7933,-2.7895,-2.7895,-2.7895,-2.828,-2.9069,-2.9069,-2.9486,-3.0327,-3.0346,-3.0365,-3.0308,-2.8698,-2.7953,-2.7838,-2.6154,-2.5404,-2.5365,-2.5327,-2.5173,-2.501,-2.5004,-2.479,-2.4512,-2.4495,-2.4366,-2.419,-2.419,-2.4732,-2.5521,-2.6319,-2.7126,-2.7952,-2.873,-2.8987,-2.9005,-2.9005,-2.9005,-2.9005,-2.9005,-2.9336,-2.9729,-2.9947,-3.0196,-3.0398,-3.0404,-3.0404,-3.0404,-3.0404,-3.1096,-3.1968,-3.2756,-3.3622,-3.4507,-3.5404,-3.5538,-3.5538,-3.5538,-3.5538,-3.5538,-3.55,-3.55,-3.55,-3.55,-3.55,-3.5541,-3.56,-3.5611,-3.563,-3.57,-3.5814,-3.588,-3.588,-3.5952,-3.5996,-3.5996,-3.5996,-3.5996,-3.5996,-3.6055,-3.6973,-1.658,0.0,0.0,0.0,0.0,0.0,-2.1346,-2.2308,-2.3369,-2.5534,-2.6183,-2.6753,-2.8066,-2.8301,-2.8457,-2.8945,-2.9023,-2.8945,-2.8691,-2.8652,-2.8574,0.0,0.0,0.0,0.0,0.0,0.0,0.0,-2.8104,-2.8051,-2.7928,-2.7916,-2.7895,-2.7895,-2.7895,-2.8011,-2.8222,-2.8222,-2.8352,-2.8602,-2.9179,-2.9467,-2.9467,-2.964,-2.9352,-2.8742,-2.8261,-2.7717,-2.7082,-2.5827,-2.5269,-2.5198,-2.4955,-2.4792,-2.4678,-2.4393,-2.4256,-2.419,-2.419,-2.4732,-2.5429,-2.5668,-2.6678,-2.7842,-2.8062,-2.8528,-2.9005,-2.9005,-2.9005,-2.9005,-2.9005,-2.9246,-2.9523,-2.9739,-2.9939,-3.0157,-3.0361,-3.0404,-3.0404,-3.0404,-3.1096,-3.1968,-3.2756,-3.3622,-3.468,-3.6154,-3.6365,-3.6365,-3.6365,-3.6365,-3.6154,-3.5558,-3.55,-3.55,-3.55,-3.55,-3.5541,-3.56,-3.5611,-3.563,-3.57,-3.5746,-3.5758,-3.5758,-3.5878,-3.5938,-3.5939,-3.5974,-3.5996,-3.6035,-3.7285,-3.8144,-1.7237,-1.7603,-1.8238,-1.8234,0.0,0.0,-1.999,-2.0538,-2.1302,0.0,-2.4311,-2.4899,-2.5976,-2.6445,-2.668,-2.668,-2.668,-2.6934,-2.7656,-2.7754,-2.7617,0.0,0.0,0.0,0.0,-2.7226,-2.716,-2.7036,-2.7026,-2.6954,-2.6828,-2.6813,-2.6813,-2.6813,-2.6813,-2.6986,-2.7351,-2.7351,-2.7544,-2.7915,-2.8376,-2.8607,-2.8626,-2.9121,-2.9083,-2.8607,-2.8607,-2.8338,-2.7818,-2.6794,-2.6329,-2.6182,-2.5906,-2.5529,-2.514,-2.482,-2.4493,-2.419,-2.419,-2.4511,-2.4952,-2.5283,-2.6256,-2.7365,-2.7695,-2.8356,-2.9005,-2.9005,-2.9005,-2.9005,-2.9005,-2.9211,-2.9454,-2.9643,-2.9853,-3.0075,-3.0349,-3.0404,-3.0404,-3.0404,-3.1365,-3.2352,-3.2814,-3.391,-3.5064,-3.6058,-3.6192,-3.6192,-3.6192,-3.6192,-3.6019,-3.5558,-3.55,-3.55,-3.55,-3.55,-3.5528,-3.557,-3.5556,-3.5577,-3.5602,-3.5633,-3.5659,-3.5659,-3.5821,-3.5911,-3.5945,-3.5975,-3.5996,-3.6035,-3.7422,-3.8242,-1.8334,-1.868,-1.9257,-1.9173,-1.8558,0.0,-1.9789,-1.9618,-1.9632,0.0,-2.2245,-2.2851,-2.3027,-2.3711,-2.4258,-2.4258,-2.4258,-2.4863,-2.6602,-2.6855,-2.6562,-2.5781,0.0,0.0,-2.5703,-2.5703,-2.5637,-2.55,-2.5495,-2.5421,-2.5317,-2.5308,-2.5308,-2.5308,-2.5308,-2.5673,-2.6447,-2.6467,-2.6832,-2.7601,-2.7717,-2.7761,-2.7761,-2.7857,-2.7953,-2.803,-2.803,-2.8088,-2.8179,-2.8179,-2.7909,-2.7475,-2.7275,-2.6643,-2.5819,-2.5611,-2.5026,-2.4318,-2.4318,-2.4263,-2.4318,-2.5026,-2.586,-2.6741,-2.7438,-2.8301,-2.9005,-2.9005,-2.9005,-2.9005,-2.9005,-2.9178,-2.9414,-2.9643,-2.9837,-3.0047,-3.0343,-3.0404,-3.0404,-3.0404,-3.175,-3.2891,-3.2891,-3.4346,-3.55,-3.55,-3.5577,-3.5596,-3.5519,-3.5577,-3.5596,-3.5519,-3.55,-3.55,-3.55,-3.55,-3.55,-3.55,-3.55,-3.55,-3.55,-3.555,-3.5585,-3.5585,-3.5788,-3.5918,-3.5996,-3.5996,-3.5996,-3.6016,-3.6894,-3.7773,-2.0792,-2.0889,-2.0869,-2.0212,-1.9923,0.0,-1.8477,-1.8654,-1.9164,0.0,-2.0369,-2.1186,-2.1991,-2.2852,-2.3418,-2.3359,-2.3359,-2.3965,-2.5703,-2.5957,-2.5898,-2.5723,0.0,0.0,-2.5703,-2.5703,-2.5637,-2.55,-2.5406,-2.5321,-2.5308,-2.5308,-2.5308,-2.5308,-2.5308,-2.5385,-2.5558,-2.5558,-2.5635,-2.5827,-2.6524,-2.6851,-2.689,-2.7582,-2.8261,-2.8876,-2.8876,-2.9256,-2.9904,-2.9904,-2.8963,-2.7475,-2.7275,-2.6981,-2.6628,-2.6448,-2.586,-2.5172,-2.5172,-2.475,-2.4226,-2.4373,-2.5419,-2.662,-2.6796,-2.7849,-2.9005,-2.9005,-2.9005,-2.9005,-2.9005,-2.9051,-2.9174,-2.9598,-2.9739,-2.988,-3.0299,-3.0404,-3.0404,-3.0404,-3.175,-3.2891,-3.2891,-3.4346,-3.55,-3.55,-3.6058,-3.6231,-3.5577,-3.6077,-3.6212,-3.5577,-3.55,-3.55,-3.55,-3.55,-3.55,-3.55,-3.55,-3.55,-3.55,-3.5515,-3.5515,-3.5515,-3.5666,-3.583,-3.5996,-3.5996,-3.5996,-3.6016,-3.6894,-3.7773,-2.2274,-2.2158,-2.1947,-2.1119,-2.0596,0.0,0.0,-1.8399,-1.8321,-2.017,-1.9799,-1.9588,-2.0996,-2.1602,-2.1894,-2.1855,-2.2227,-2.2812,-2.3672,-2.418,-2.4453,-2.4453,0.0,0.0,-2.5019,-2.5059,-2.5188,-2.5481,-2.5387,-2.5308,-2.5308,-2.5308,-2.5308,-2.5308,-2.5308,-2.5308,-2.5308,-2.5308,-2.5308,-2.5308,-2.5731,-2.5942,-2.5981,-2.6851,-2.7467,-2.789,-2.8742,-2.9357,-2.9769,-3.0088,-2.9577,-2.8597,-2.8482,-2.7997,-2.7342,-2.7253,-2.6439,-2.5393,-2.5393,-2.4879,-2.419,-2.419,-2.5016,-2.608,-2.6484,-2.7721,-2.9005,-2.9005,-2.9005,-2.9005,-2.9005,-2.9005,-2.91,-2.9465,-2.9635,-2.9799,-3.0122,-3.0305,-3.0404,-3.0404,-3.175,-3.2891,-3.2891,-3.4346,-3.55,-3.55,-3.5846,-3.5962,-3.5558,-3.5846,-3.5942,-3.5538,-3.55,-3.55,-3.55,-3.55,-3.55,-3.55,-3.55,-3.55,-3.55,-3.55,-3.5528,-3.5605,-3.5675,-3.5799,-3.5996,-3.5996,-3.5996,-3.6016,-3.6445,-3.7344,-2.3466,-2.3274,-2.3024,-2.2004,-2.1381,-2.0861,0.0,0.0,0.0,-2.0601,-1.9544,-1.8605,-2.0078,0.0,0.0,0.0,0.0,0.0,0.0,-2.1894,0.0,-2.2676,0.0,0.0,0.0,-2.3769,-2.4031,-2.4953,-2.4757,-2.4721,-2.5058,-2.5212,-2.5308,-2.5308,-2.5308,-2.5308,-2.5308,-2.5308,-2.5308,-2.5308,-2.5308,-2.5308,-2.5327,-2.6019,-2.6447,-2.6678,-2.8203,-2.8953,-2.9154,-2.9759,-2.9885,-2.9696,-2.9652,-2.8976,-2.8026,-2.8026,-2.7119,-2.5833,-2.5686,-2.5099,-2.442,-2.4245,-2.486,-2.5778,-2.6594,-2.7849,-2.9005,-2.9005,-2.9005,-2.9005,-2.9005,-2.9051,-2.9145,-2.9394,-2.9616,-2.9813,-3.004,-3.0254,-3.0404,-3.0404,-3.175,-3.2891,-3.2891,-3.4346,-3.55,-3.55,-3.55,-3.55,-3.55,-3.55,-3.55,-3.55,-3.55,-3.55,-3.55,-3.55,-3.55,-3.55,-3.55,-3.55,-3.55,-3.55,-3.555,-3.5675,-3.5696,-3.5792,-3.5975,-3.5996,-3.5996,-3.5996,-3.5996,-3.6934,-2.5038,-2.5019,-2.4635,-2.3043,-2.3153,-2.2889,-1.9856,0.0,-1.9655,-1.8575,0.0,-1.9132,0.0,0.0,0.0,0.0,0.0,0.0,-1.8555,-1.9199,-2.0039,-2.0801,0.0,0.0,0.0,-2.1437,-2.1584,-2.3178,-2.2501,-2.2662,-2.4168,-2.4909,-2.5308,-2.5308,-2.5308,-2.5308,-2.5308,-2.5308,-2.5308,-2.5308,-2.5308,-2.5308,-2.5308,-2.5404,-2.5865,-2.6659,-2.7621,-2.8434,-2.9154,-2.9759,-2.9885,-2.9678,-2.9504,-2.9201,-2.8858,-2.8858,-2.8301,-2.7431,-2.6704,-2.5933,-2.5154,-2.4428,-2.5236,-2.6612,-2.742,-2.8301,-2.9005,-2.9005,-2.9005,-2.9005,-2.9005,-2.9178,-2.9404,-2.9626,-2.9821,-3.004,-3.0299,-3.0373,-3.0404,-3.0404,-3.175,-3.2891,-3.2891,-3.4346,-3.55,-3.55,-3.55,-3.55,-3.55,-3.55,-3.55,-3.55,-3.55,-3.55,-3.55,-3.55,-3.55,-3.55,-3.55,-3.55,-3.55,-3.55,-3.5534,-3.5611,-3.5659,-3.5769,-3.591,-3.5973,-3.5996,-3.5996,-3.5996,-3.6934,-2.5308,-2.5308,-2.5019,-2.3855,0.0,0.0,-2.1,0.0,-1.9807,0.0,0.0,0.0,0.0,0.0,0.0,0.0,-1.8555,0.0,0.0,0.0,-1.8301,0.0,0.0,0.0,0.0,0.0,0.0,0.0,-2.1955,-2.181,-2.3975,-2.4413,-2.4812,-2.5288,-2.5308,-2.5308,-2.5308,-2.5308,-2.5308,-2.5308,-2.5308,-2.5308,-2.5308,-2.5308,-2.55,-2.5885,-2.6774,-2.7621,-2.8462,-2.9052,-2.9467,-2.9678,-2.9493,-2.9235,-2.9005,-2.9005,-2.8198,-2.7053,-2.6722,-2.5768,-2.4658,-2.43,-2.5291,-2.6657,-2.6998,-2.7978,-2.9005,-2.9005,-2.9005,-2.9005,-2.9005,-2.9211,-2.9414,-2.9504,-2.9763,-3.0028,-3.0143,-3.0299,-3.0558,-3.1058,-3.2102,-3.3064,-3.3564,-3.468,-3.55,-3.55,-3.55,-3.55,-3.55,-3.55,-3.55,-3.55,-3.55,-3.55,-3.55,-3.55,-3.55,-3.55,-3.55,-3.55,-3.55,-3.55,-3.5528,-3.5605,-3.5675,-3.5764,-3.5901,-3.5973,-3.5996,-3.5996,-3.5996,-3.666,-2.533,0.0,0.0,0.0,0.0,0.0,0.0,0.0,0.0,0.0,0.0,0.0,0.0,0.0,-1.8281,-1.8047,0.0,-1.7383,0.0,-1.6152,0.0,0.0,0.0,0.0,0.0,0.0,0.0,0.0,0.0,0.0,-2.3244,-2.3841,-2.4375,-2.4947,-2.5192,-2.5308,-2.5308,-2.5308,-2.5308,-2.5308,-2.5308,-2.5308,-2.5308,-2.5308,-2.5308,-2.5346,-2.6212,-2.7082,-2.7956,-2.8562,-2.9163,-2.9678,-2.9493,-2.9235,-2.9005,-2.9005,-2.8124,-2.6906,-2.6686,-2.5548,-2.4245,-2.4456,-2.5474,-2.6638,-2.6869,-2.7904,-2.9005,-2.9005,-2.9005,-2.9005,-2.9005,-2.9246,-2.9474,-2.9474,-2.9807,-3.0103,-3.0103,-3.026,-3.0654,-3.1525,-3.2352,-3.3179,-3.4052,-3.493,-3.55,-3.55,-3.55,-3.55,-3.55,-3.55,-3.55,-3.55,-3.55,-3.55,-3.55,-3.55,-3.55,-3.55,-3.55,-3.55,-3.55,-3.55,-3.5522,-3.5566,-3.5644,-3.573,-3.5843,-3.5925,-3.5975,-3.5996,-3.5996,-3.6465,0.0,0.0,0.0,-2.3359,0.0,0.0,0.0,0.0,-2.1561,0.0,0.0,0.0,0.0,-1.9863,-1.8984,-1.8144,-1.8008,0.0,0.0,0.0,0.0,0.0,0.0,0.0,0.0,0.0,0.0,0.0,0.0,0.0,-2.1451,-2.3182,-2.411,-2.4149,-2.4889,-2.5308,-2.5308,-2.5308,-2.5308,-2.5308,-2.5308,-2.5308,-2.5308,-2.5308,-2.5308,-2.5346,-2.6212,-2.7082,-2.7956,-2.8562,-2.9163,-2.9678,-2.9493,-2.9235,-2.9005,-2.9005,-2.8473,-2.764,-2.6869,-2.5548,-2.4318,-2.5117,-2.5915,-2.6759,-2.753,-2.8338,-2.9005,-2.9005,-2.9005,-2.9005,-2.9005,-2.9336,-2.9696,-2.9696,-3.0044,-3.0398,-3.0398,-3.0398,-3.0654,-3.1525,-3.2352,-3.3179,-3.4052,-3.493,-3.55,-3.55,-3.55,-3.55,-3.55,-3.55,-3.55,-3.55,-3.55,-3.55,-3.55,-3.55,-3.55,-3.55,-3.55,-3.55,-3.55,-3.55,-3.55,-3.5507,-3.5579,-3.5639,-3.571,-3.5841,-3.5942,-3.5996,-3.5996,-3.6465,0.0,0.0,-2.519,-2.4051,0.0,0.0,0.0,0.0,0.0,0.0,0.0,0.0,0.0,-1.9492,-1.9199,-1.8906,-1.7891,-1.6523,0.0,0.0,0.0,0.0,0.0,-1.8086,0.0,0.0,0.0,0.0,-1.8613,0.0,0.0,-2.2913,-2.349,-2.4072,-2.4356,-2.4755,-2.5288,-2.5308,-2.5308,-2.5308,-2.5308,-2.5308,-2.5308,-2.5308,-2.5308,-2.5327,-2.5615,-2.6563,-2.7928,-2.8123,-2.8805,-2.9696,-2.9635,-2.9355,-2.9005,-2.9005,-2.8143,-2.6814,-2.5474,-2.4667,-2.4318,-2.5136,-2.5933,-2.6759,-2.7548,-2.8356,-2.9005,-2.9005,-2.9005,-2.9005,-2.9005,-2.9336,-2.9705,-2.9705,-3.0052,-3.0404,-3.0404,-3.0846,-3.1506,-3.2333,-3.3179,-3.4045,-3.4911,-3.5308,-3.55,-3.55,-3.55,-3.55,-3.55,-3.55,-3.55,-3.55,-3.55,-3.55,-3.55,-3.55,-3.55,-3.55,-3.55,-3.55,-3.55,-3.55,-3.55,-3.55,-3.5574,-3.5635,-3.5707,-3.5838,-3.5922,-3.5996,-3.5949,-3.6127,-2.5547,-2.5541,0.0,-2.4443,-2.3859,0.0,-2.1638,0.0,-2.144,0.0,0.0,0.0,0.0,-2.0156,-1.9668,-1.9355,-1.8105,-1.6543,0.0,-1.4121,0.0,0.0,0.0,-1.7598,0.0,-1.613,-1.6931,-1.9737,-1.8615,-1.914,0.0,0.0,-2.3201,-2.4072,-2.411,-2.449,-2.5288,-2.5308,-2.5308,-2.5308,-2.5308,-2.5308,-2.5308,-2.5308,-2.5308,-2.5308,-2.5308,-2.6288,-2.7895,-2.7895,-2.8612,-2.9705,-2.9705,-2.923,-2.8565,-2.8565,-2.7548,-2.597,-2.4649,-2.419,-2.4373,-2.5466,-2.6172,-2.6804,-2.7897,-2.8583,-2.9005,-2.9005,-2.9005,-2.9005,-2.9005,-2.9312,-2.9616,-2.9687,-3.0,-3.0273,-3.0373,-3.1077,-3.1948,-3.2737,-3.3603,-3.4468,-3.5346,-3.55,-3.55,-3.55,-3.55,-3.55,-3.55,-3.55,-3.55,-3.55,-3.55,-3.55,-3.55,-3.55,-3.55,-3.55,-3.55,-3.55,-3.55,-3.55,-3.55,-3.55,-3.5534,-3.5606,-3.5707,-3.5794,-3.5882,-3.5952,-3.5914,-3.5917]},{"header":{"parameterUnit":"m.s-1","parameterCategory":1,"la1":30.6,"la2":29.2853,"lo1":-89.7004,"lo2":-87.6739,"dy":0.0162,"dx":0.0183,"nx":112,"ny":82,"refTime":"2025-12-17T12:00:00:Z","depth":0,"parameterNumber":3,"parameterNumberName":"V-component_of_WINDS"},"data":[0.0,0.0,0.0,0.0,0.0,0.0,0.0,0.0,0.0,0.0,0.0,0.0,0.0,0.0,0.0,0.0,0.0,0.0,0.0,0.0,0.0,0.0,0.0,0.0,0.0,0.0,0.0,0.0,0.0,0.0,0.0,0.0,0.0,0.0,0.0,0.0,0.0,0.0,0.0,0.0,0.0,0.0,0.0,0.0,0.0,0.0,0.0,0.0,0.0,0.0,0.0,0.0,0.0,0.0,0.0,0.0,0.0,0.0,0.0,0.0,0.0,0.0,0.0,0.0,0.0,0.0,0.0,0.0,0.0,0.0,0.0,0.0,0.0,0.0,0.0,0.0,0.0,0.0,0.0,0.0,0.0,0.0,0.0,0.0,0.0,0.0,0.0,0.0,0.0,0.0,0.0233,0.0864,0.2237,0.3121,0.3121,0.3984,0.4235,0.3641,0.0,0.0,0.0,0.0,0.0,0.0,0.0,0.0,0.0,0.0,0.0,0.0,0.0,0.0,0.0,0.0,0.0,0.0,0.0,0.0,0.0,0.0,0.0,0.0,0.0,0.0,0.0,0.0,0.0,0.0,0.0,0.0,0.0,0.0,0.0,0.0,0.0,0.0,0.0,0.0,0.0,0.0,0.0,0.0,0.0,0.0,0.0,0.0,0.0,0.0,0.0,0.0,0.0,0.0,0.0,0.0,0.0,0.0,0.0,0.0,0.0,0.0,0.0,0.0,0.0,0.0,0.0,0.0,0.0,0.0,0.0,0.0,0.0,0.0,0.0,0.0,0.0,0.0,0.0,0.0,0.0,0.0,0.0,0.0,0.0,0.0,0.0,0.0,0.0,0.0,0.0,0.0,0.0,0.0,0.0,0.0,0.0,0.0,0.0,0.0,0.0,0.0,0.0,0.0,0.0048,0.0163,0.1498,0.2369,0.2369,0.368,0.4235,0.3641,0.0,0.0,0.0,0.0,0.0,0.0,0.0,0.0,0.0,0.0,0.0,0.0,0.0,0.0,0.0,0.0,0.0,0.0,0.0,0.0,0.0,0.0,0.0,0.0,0.0,0.0,0.0,0.0,0.0,0.0,0.0,0.0,0.0,0.0,0.0,0.0,0.0,0.0,0.0,0.0,0.0,0.0,0.0,0.0,0.0,0.0,0.0,0.0,0.0,0.0,0.0,0.0,0.0,0.0,0.0,0.0,0.0,0.0,0.0,0.0,0.0,0.0,0.0,0.0,0.0,0.0,0.0,0.0,0.0,0.0,0.0,0.0,0.0,0.0,0.0,0.0,0.0,0.0,0.0,0.0,0.0,0.0,0.0,0.0,0.0,0.0,0.0,0.0,0.0,0.0,0.0,0.0,0.0,0.0,0.0,0.0,0.0,0.0,0.0,0.0,0.0,0.0,0.0,0.0,0.0,0.0,0.095,0.1758,0.2174,0.3204,0.3786,0.3615,0.329,0.0,0.0,0.0,0.0,0.0,0.0,0.0,0.0,0.0,0.0,0.0,0.0,0.0,0.0,0.0,0.0,0.0,0.0,0.0,0.0,0.0,0.0,0.0,0.0,0.0,0.0,0.0,0.0,0.0,0.0,0.0,0.0,0.0,0.0,0.0,0.0,0.0,0.0,0.0,0.0,0.0,0.0,0.0,0.0,0.0,0.0,0.0,0.0,0.0,0.0,0.0,0.0,0.0,0.0,0.0,0.0,0.0,0.0,0.0,0.0,0.0,0.0,0.0,0.0,0.0,0.0,0.0,0.0,0.0,0.0,0.0,0.0,0.0,0.0,0.0,0.0,0.0,0.0,0.0,0.0,0.0,0.0,0.0,0.0,0.0,0.0,0.0,0.0,0.0,0.0,0.0,0.0,0.0,0.0,0.0,0.0,0.0,0.0,0.0,0.0,0.0,0.0,0.0,0.0,0.0,0.0671,0.1396,0.2148,0.2829,0.3305,0.359,0.3225,0.0,0.0,0.0,0.0,0.0,0.0,0.0,0.0,0.0,0.0,0.0,0.0,0.0,0.0,0.0,0.0,0.0,0.0,0.0,0.0,0.0,0.0,0.0,0.0,0.0,0.0,0.0,0.0,0.0,0.0,0.0,0.0,0.0,0.0,0.0,0.0,0.0,0.0,0.0,0.0,0.0,0.0,0.0,0.0,0.0,0.0,0.0,0.0,0.0,0.0,0.0,0.0,0.0,0.0,0.0,0.0,0.0,0.0,0.0,0.0,0.0,0.0,0.0,0.0,0.0,0.0,0.0,0.0,0.0,0.0,0.0,0.0,0.0,0.0,0.0,0.0,0.0,0.0,0.0,0.0,0.0,0.0,0.0,0.0,0.0,0.0,0.0,0.0,0.0,0.0,0.0,0.0,0.0,0.0,0.0,0.0,0.0,0.0,0.0,0.0,0.0,0.0,0.0,0.0,0.0,0.0671,0.1396,0.2148,0.2656,0.3131,0.3576,0.3051,0.0,0.0,0.0,0.0,0.0,0.0,0.0,0.0,0.0,0.0,0.0,0.0,0.0,0.0,0.0,0.0,0.0,0.0,0.0,0.0,0.0,0.0,0.0,0.0,0.0,0.0,0.0,0.0,0.0,0.0,0.0,0.0,0.0,0.0,0.0,0.0,0.0,0.0,0.0,0.0,0.0,0.0,0.0,0.0,0.0,0.0,0.0,0.0,0.0,0.0,0.0,0.0,0.0,0.0,0.0,0.0,0.0,0.0,0.0,0.0,0.0,0.0,0.0,0.0,0.0,0.0,0.0,0.0,0.0,0.0,0.0,0.0,0.0,0.0,0.0,0.0,0.0,0.0,0.0,0.0,0.0,0.0,0.0,0.0,0.0,0.0,0.0,0.0,0.0,0.0,0.0,0.0,0.0,0.0,0.0,0.0,0.0,0.0,0.0,0.0,0.0,0.0,0.0,0.0,0.0,0.0252,0.0699,0.1452,0.2097,0.2581,0.2887,0.0,0.0,0.0,0.0,0.0,0.0,0.0,0.0,0.0,0.0,0.0,0.0,0.0,0.0,0.0,0.0,0.0,0.0,0.0,0.0,0.0,0.0,0.0,0.0,0.0,0.0,0.0,0.0,0.0,0.0,0.0,0.0,0.0,0.0,0.0,0.0,0.0,0.0,0.0,0.0,0.0,0.0,0.0,0.0,0.0,0.0,0.0,0.0,0.0,0.0,0.0,0.0,0.0,0.0,0.0,0.0,0.0,0.0,0.0,0.0,0.0,0.0,0.0,0.0,0.0,0.0,0.0,0.0,0.0,0.0,0.0,0.0,0.0,0.0,0.0,0.0,0.0,0.0,0.0,0.0,0.0,0.0,0.0,0.0,0.0,0.0,0.0,0.0,0.0,0.0,0.0,0.0,0.0,0.0,0.0,0.0,0.0,0.0,0.0,0.0,0.0,0.0,0.0,0.0,0.0,0.0,0.0,0.0302,0.103,0.16,0.2092,0.2473,0.0,0.0,0.0,0.0,0.0,0.0,0.0,0.0,0.0,0.0,0.0,0.0,0.0,0.0,0.0,0.0,0.0,0.0,0.0,0.0,0.0,0.0,0.0,0.0,0.0,0.0,0.0,0.0,0.0,0.0,0.0,0.0,0.0,0.0,0.0,0.0,0.0,0.0,0.0,0.0,0.0,0.0,0.0,0.0,0.0,0.0,0.0,0.0,0.0,0.0,0.0,0.0,0.0,0.0,0.0,0.0,0.0,0.0,0.0,0.0,0.0,0.0,0.0,0.0,0.0,0.0,0.0,0.0,0.0,0.0,0.0,0.0,0.0,0.0,0.0,0.0,0.0,0.0,0.0,0.0,0.0,0.0,0.0,0.0,0.0,0.0,0.0,0.0,0.0,0.0,0.0,0.0,0.0,0.0,0.0,0.0,0.0,0.0,0.0,0.0,0.0,0.0,0.0,0.0,0.0,0.0,0.0,0.0288,0.1037,0.1222,0.1637,0.0,0.0,0.0,0.0,0.0,0.0,0.0,0.0,0.0,0.0,0.0,0.0,0.0,0.0,0.0,0.0,0.0,0.0,0.0,0.0,0.0,0.0,0.0,0.0,0.0,0.0,0.0,0.0,0.0,0.0,0.0,0.0,0.0,0.0,0.0,0.0,0.0,0.0,0.0,0.0,0.0,0.0,0.0,0.0,0.0,0.0,0.0,0.0,0.0,0.0,0.0,0.0,0.0,0.0,0.0,0.0,0.0,0.0,0.0,0.0,0.0,0.0,0.0,0.0,0.0,0.0,0.0,0.0,0.0,0.0,0.0,0.0,0.0,0.0,0.0,0.0,0.0,0.0,0.0,0.0,0.0,0.0,0.0,0.0,0.0,0.0,0.0,0.0,0.0,0.0,0.0,0.0,0.0,0.0,0.0,0.0,0.0,0.0,0.0,0.0,0.0,0.0,0.0,0.0,0.0,0.0,0.0,0.0,0.0077,0.0303,0.0834,0.1299,0.1642,0.0,0.0,0.0,0.0,0.0,0.0,0.0,0.0,0.0,0.0,0.0,0.0,0.0,0.0,0.0,0.0,0.0,0.0,0.0,0.0,0.0,0.0,0.0,0.0,0.0,0.0,0.0,0.0,0.0,0.0,0.0,0.0,0.0,0.0,0.0,0.0,0.0,0.0,0.0,0.0,0.0,0.0,0.0,0.0,0.0,0.0,0.0,0.0,0.0,0.0,0.0,0.0,0.0,0.0,0.0,0.0,0.0,0.0,0.0,0.0,0.0,0.0,0.0,0.0,0.0,0.0,0.0,0.0,0.0,0.0,0.0,0.0,0.0,0.0,0.0,0.0,0.0,0.0,0.0,0.0,0.0,0.0,0.0,0.0,0.0,0.0,0.0,0.0,0.0,0.0,0.0,0.0,0.0,0.0,0.0,0.0,0.0,0.0,0.0,0.0,0.0,0.0,0.0,0.0,0.0,0.0,0.0,0.0,0.0,0.0571,0.098,0.1061,0.0,0.0,0.0,0.0,0.0,0.0,0.0,0.0,0.0,0.0,0.0,0.0,0.0,0.0,0.0,0.0,0.0,0.0,0.0,0.0,0.0,0.0,0.0,0.0,0.0,0.0,0.0,0.0,0.0,0.0,0.0,0.0,0.0,0.0,0.0,0.0,0.0,0.0,0.0,0.0,0.0,0.0,0.0,0.0,0.0,0.0,0.0,0.0,0.0,0.0,0.0,0.0,0.0,0.0,0.0,0.0,0.0,0.0,0.0,0.0,0.0,0.0,0.0,0.0,0.0,0.0,0.0,0.0,0.0,0.0,0.0,0.0,0.0,0.0,0.0,0.0,0.0,0.0,0.0,0.0,0.0,0.0,0.0,0.0,0.0,0.0,0.0,0.0,0.0,0.0,0.0,0.0,0.0,0.0,0.0,0.0,0.0,0.0,0.0,0.0,0.0,0.0,0.0,0.0,0.0,0.0,0.0,0.0,0.0,0.0388,0.0655,0.0703,0.0,0.0,0.0,0.0,0.0,0.0,0.0,0.0,0.0,0.0,0.0,0.0,0.0,0.0,0.0,0.0,0.0,0.0,0.0,0.0,0.0,0.0,0.0,0.0,0.0,0.0,0.0,0.0,0.0,0.0,0.0,0.0,0.0,0.0,0.0,0.0,0.0,0.0,0.0,0.0,0.0,0.0,0.0,0.0,0.0,0.0,0.0,0.0,0.0,0.0,0.0,0.0,0.0,0.0,0.0,0.0,0.0,0.0,0.0,0.0,-0.3209,0.0,0.0,0.0,0.0,0.0,0.0,0.0,0.0,0.0,0.0,0.0,0.0,0.0,0.0,0.0,0.0,0.0,0.0,0.0,0.0,0.0,0.0,0.0,0.0,0.0,0.0,0.0,0.0,0.0,0.0,0.0,0.0,0.0,0.0,0.0,0.0,0.0,0.0,0.0,0.0,0.0,0.0,0.0,0.0,0.0,0.0,0.0,0.0,0.0088,0.0311,0.0677,0.0925,0.0,0.0,0.0,0.0,0.0,0.0,0.0,0.0,0.0,0.0,0.0,0.0,0.0,0.0,0.0,0.0,0.0,0.0,0.0,0.0,0.0,0.0,0.0,0.0,0.0,0.0,0.0,0.0,0.0,0.0,0.0,0.0,0.0,0.0,0.0,0.0,0.0,0.0,0.0,0.0,0.0,0.0,0.0,0.0,0.0,0.0,0.0,0.0,0.0,0.0,0.0,0.0,0.0,0.0,0.0,0.0,0.0,0.0,0.0,0.0,-0.3571,0.0,0.0,0.0,0.0,0.0,0.0,0.0,0.0,0.0,0.0,0.0,0.0,0.0,0.0,0.0,0.0,0.0,0.0,0.0,0.0,0.0,0.0,0.0,0.0,0.0,0.0,0.0,0.0,0.0,0.0,0.0,0.0,0.0,0.0,0.0,0.0,0.0,0.0,0.0,0.0,0.0,0.0,0.0,0.0,0.0,0.0,0.0,0.0,0.0111,0.0347,0.0541,0.0,0.0,0.0,0.0,0.0,0.0,0.0,0.0,0.0,0.0,0.0,0.0,0.0,0.0,0.0,0.0,0.0,0.0,0.0,0.0,0.0,0.0,0.0,0.0,0.0,0.0,0.0,0.0,0.0,0.0,0.0,0.0,0.0,0.0,0.0,0.0,0.0,0.0,0.0,0.0,0.0,0.0,0.0,0.0,0.0,0.0,0.0,0.0,0.0,0.0,0.0,0.0,0.0,-0.4341,-0.4504,-0.4644,-0.4497,-0.4564,-0.4826,-0.4453,-0.4277,-0.4274,-0.3968,0.0,0.0,0.0,0.0,0.0,0.0,0.0,0.0,0.0,0.0,0.0,0.0,0.0,0.0,0.0,0.0,0.0,0.0,0.0,0.0,0.0,0.0,0.0,0.0,-0.3832,-0.369,0.0,0.0,0.0,0.0,0.0,0.0,0.0,0.0,0.0,0.0,0.0,0.0,0.0,0.0,0.0,0.0,0.0,0.0,0.0,0.0,0.0,0.0,0.0254,0.0586,0.0,0.0,0.0,0.0,0.0,0.0,0.0,0.0,0.0,0.0,0.0,0.0,0.0,0.0,0.0,0.0,0.0,0.0,0.0,0.0,0.0,0.0,0.0,0.0,0.0,0.0,0.0,0.0,0.0,0.0,0.0,0.0,0.0,0.0,0.0,0.0,0.0,0.0,0.0,0.0,0.0,0.0,0.0,0.0,0.0,0.0,0.0,-0.4134,-0.4541,-0.4694,-0.481,-0.4955,-0.5142,-0.5259,-0.5272,-0.5255,-0.5341,-0.5467,-0.541,0.0,-0.4599,-0.4168,0.0,0.0,0.0,0.0,0.0,0.0,0.0,0.0,0.0,0.0,0.0,0.0,0.0,0.0,0.0,0.0,0.0,0.0,0.0,0.0,0.0,0.0,-0.4053,-0.3987,-0.3964,-0.3931,0.0,-0.3385,-0.2988,-0.2652,-0.2245,0.0,0.0,0.0,0.0,0.0,0.0,0.0,0.0,0.0,0.0,0.0,0.0,0.0,0.0,0.0,0.0,0.0,0.0246,0.0502,0.0741,0.091,0.0,0.0,0.0,0.0,0.0,0.0,0.0,0.0,0.0,0.0,0.0,0.0,0.0,0.0,0.0,0.0,0.0,0.0,0.0,0.0,0.0,0.0,0.0,0.0,0.0,0.0,0.0,0.0,0.0,0.0,0.0,0.0,0.0,0.0,0.0,0.0,0.0,0.0,0.0,0.0,0.0,0.0,0.0,-0.4486,-0.4317,-0.4486,-0.5095,-0.522,-0.5328,-0.5389,-0.5538,-0.56,-0.5528,-0.5607,-0.5603,-0.5596,-0.5674,-0.5559,-0.5281,-0.48,-0.4507,-0.4267,0.0,0.0,0.0,0.0,-0.3999,-0.4037,-0.425,-0.4189,0.0,-0.394,0.0,0.0,0.0,0.0,0.0,0.0,0.0,0.0,0.0,0.0,0.0,-0.4493,-0.4496,-0.4479,-0.444,-0.4134,-0.3681,0.0,-0.279,-0.2419,-0.1212,0.0,0.0,0.0,0.0,0.0,0.0,0.0,0.0,0.0,0.0,0.0,0.0,0.0,0.0,0.0,0.0109,0.0327,0.0692,0.0765,0.0975,0.0,0.0,0.0,0.0,0.0,0.0,0.0,0.0,0.0,0.0,0.0,0.0,0.0,0.0,0.0,0.0,0.0,0.0,0.0,0.0,0.0,0.0,0.0,0.0,0.0,0.0,0.0,0.0,0.0,0.0,0.0,0.0,0.0,0.0,0.0,0.0,0.0,0.0,0.0,-0.3971,-0.3897,-0.4213,-0.5052,-0.477,-0.4906,-0.5532,-0.5606,-0.5664,-0.5701,-0.5769,-0.5745,-0.5647,-0.5752,-0.5742,-0.565,-0.5755,-0.5779,-0.5722,-0.5386,-0.5094,-0.4836,-0.4547,-0.4494,-0.4552,-0.4593,-0.4583,-0.4586,-0.4826,-0.4965,-0.5006,-0.4825,0.0,-0.5327,-0.5519,0.0,0.0,0.0,0.0,-0.4531,-0.4594,-0.4663,-0.4779,-0.4864,-0.4887,-0.4887,-0.4887,-0.4741,-0.434,0.0,-0.3426,-0.3042,-0.1584,0.0,0.0,0.0,0.0,0.0,0.0,0.0,0.0,0.0,0.0,0.0,0.0,0.0,0.0,0.0,0.0,0.0152,0.0512,0.0531,0.067,0.0996,0.0,0.0,0.0,0.0,0.0,0.0,0.0,0.0,0.0,0.0,0.0,0.0,0.0,0.0,0.0,0.0,0.0,0.0,0.0,0.0,0.0,0.0,0.0,0.0,0.0,0.0,0.0,0.0,0.0,0.0,0.0,0.0,0.0,0.0,0.0,-0.1528,-0.1626,-0.2358,-0.411,-0.4346,-0.4782,-0.5552,-0.5656,-0.5804,-0.5956,-0.5861,-0.5864,-0.5969,-0.5867,-0.5796,-0.5789,-0.5796,-0.5796,-0.5789,-0.5796,-0.5725,-0.5599,-0.5576,-0.5504,-0.5344,-0.5148,-0.4918,-0.4697,-0.4843,-0.4806,-0.4704,-0.4863,-0.534,-0.5963,-0.6218,-0.7144,-0.8161,-0.8065,-0.7889,0.0,0.0,-0.6337,-0.5739,-0.506,-0.487,-0.4881,-0.4887,-0.4887,-0.4887,-0.4887,-0.4877,-0.4802,0.0,-0.4083,-0.3384,-0.2177,0.0,-0.1363,-0.0174,0.0,0.0,0.0,0.0,0.0,0.0,0.0,0.0,0.0,0.0,0.0,0.0,0.0,0.0,0.0045,0.0043,0.0246,0.0719,0.0537,0.0,0.0,0.0,0.0,0.0,0.0,0.0,0.0,0.0,0.0,0.0,0.0,0.0,0.0,0.0,0.0,0.0,0.0,0.0,0.0,0.0,0.0,0.0,0.0,0.0,0.0,0.0,0.0,0.0,0.0,0.0,0.0,-0.0626,-0.1397,-0.223,-0.3027,-0.3952,-0.5047,-0.5342,-0.5555,-0.5728,-0.5871,-0.5928,-0.5884,-0.583,-0.583,-0.5881,-0.5827,-0.5752,-0.5671,-0.5759,-0.5752,-0.5671,-0.5762,-0.5772,-0.5725,-0.5725,-0.5617,-0.5399,-0.541,-0.5301,-0.5173,-0.5294,-0.5254,-0.5177,-0.5298,-0.5474,-0.562,-0.5564,-0.6133,-0.6749,-0.624,-0.6346,-0.6533,-0.5817,-0.5528,-0.5348,-0.5102,-0.5128,-0.5235,-0.5235,-0.5235,-0.5235,-0.5235,-0.5125,-0.4992,-0.4914,-0.4687,-0.4051,-0.2565,-0.2287,-0.1744,-0.0217,0.0,0.0,0.0,0.0,0.0,0.0,0.0,0.0,0.0,0.0,0.0,0.0,0.0,0.0,0.0,0.0,0.0085,0.0255,0.0186,0.0268,0.0,0.0,0.0,0.0,0.0,0.0,0.0,0.0,0.0,0.0,0.0,0.0,0.0,0.0,0.0,0.0,0.0,0.0,0.0,0.0,0.0,0.0,0.0,0.0,0.0,0.0,0.0,0.0,0.0,0.0,0.0,-0.0982,-0.198,-0.2853,-0.4006,-0.4996,-0.5848,-0.6074,-0.6108,-0.5959,-0.6054,-0.6034,-0.5881,-0.5827,-0.5776,-0.5728,-0.5677,-0.5603,-0.5549,-0.561,-0.5603,-0.5552,-0.5613,-0.5654,-0.5654,-0.5654,-0.5573,-0.5416,-0.5583,-0.5572,-0.5484,-0.5552,-0.5528,-0.5442,-0.5842,-0.5907,-0.5862,-0.6037,-0.636,-0.6573,-0.6086,-0.6299,-0.6511,-0.5744,-0.5568,-0.5585,-0.527,-0.5284,-0.5395,-0.5395,-0.5395,-0.5395,-0.5395,-0.5281,-0.5209,-0.5209,-0.505,-0.4487,-0.317,-0.268,-0.2041,-0.0639,-0.0201,0.0,0.0,0.0,0.0,0.0,0.0,0.0,0.0,0.0,0.0,0.0,0.0,0.0,0.0,0.0,0.0,0.0,0.0,0.009,0.0262,0.0,0.0,0.0,0.0,0.0,0.0,0.0,0.0,0.0,0.0,0.0,0.0,0.0,0.0,0.0,0.0,0.0,0.0,0.0,0.0,0.0,0.0,0.0,0.0,0.0,0.0,0.0,0.0,0.0,0.0,-0.0956,-0.2117,-0.3312,-0.4327,-0.5378,-0.6424,-0.6511,-0.6446,-0.6296,-0.6293,-0.6179,-0.5986,-0.5874,-0.5732,-0.5596,-0.5481,-0.5409,-0.5409,-0.5402,-0.5402,-0.5402,-0.5395,-0.5395,-0.5395,-0.5395,-0.5395,-0.5423,-0.5681,-0.5708,-0.5583,-0.5589,-0.5532,-0.5531,-0.6367,-0.6658,-0.6793,-0.7637,-0.7929,-0.7929,-0.7929,-0.7929,-0.773,-0.6883,-0.6654,-0.6461,-0.5617,-0.5388,-0.5388,-0.5388,-0.5385,-0.5385,-0.5392,-0.5388,-0.5382,-0.5385,-0.5121,-0.4681,-0.3944,-0.3081,-0.2217,-0.1417,-0.0571,0.0,0.0,0.0,0.0,0.0,0.0,0.0,0.0,0.0,0.0,0.0,0.0,0.0,0.0,0.0,0.0,0.0,0.0,0.0,0.0,0.0,0.0,0.0,0.0,0.0,0.0,0.0,0.0,0.0,0.0,0.0,0.0,0.0,0.0,0.0,0.0,0.0,0.0,0.0,0.0,0.0,0.0,0.0,0.0,0.0,0.0,0.0,0.0,0.0,0.0,-0.0954,-0.2089,-0.3255,-0.4301,-0.536,-0.6434,-0.6511,-0.6356,-0.6101,-0.6095,-0.602,-0.5867,-0.5823,-0.5783,-0.5742,-0.5701,-0.5681,-0.5677,-0.5576,-0.5562,-0.5556,-0.5443,-0.5395,-0.5395,-0.5395,-0.5395,-0.5416,-0.5572,-0.5555,-0.547,-0.5549,-0.5562,-0.5579,-0.5693,-0.5829,-0.5943,-0.6055,-0.6112,-0.6112,-0.6112,-0.6112,-0.6079,-0.5815,-0.5752,-0.5657,-0.5284,-0.5196,-0.5196,-0.5196,-0.5114,-0.5101,-0.5347,-0.5192,-0.507,-0.5172,-0.5096,-0.482,-0.4073,-0.3238,-0.2323,-0.1424,-0.0551,0.0,0.0,0.0,0.0,0.0,0.0,0.0,0.0,0.0,0.0,0.0,0.0,0.0,0.0,0.0,0.0,0.0,0.0,0.0,0.0,0.0,0.0,0.0,0.0,0.0,0.0,0.0,0.0,0.0,0.0,0.0,0.0,0.0,0.0,0.0,0.0,0.0,0.0,0.0,0.0,0.0,0.0,0.0,0.0,0.0,0.0,0.0,0.0,0.0,0.0,-0.0966,-0.2103,-0.3354,-0.4338,-0.5413,-0.6532,-0.6549,-0.6366,-0.6135,-0.6125,-0.6054,-0.5898,-0.5895,-0.5864,-0.58,-0.58,-0.58,-0.5796,-0.5718,-0.5647,0.0,-0.5528,-0.5453,-0.5395,-0.5395,-0.5395,0.0,0.0,0.0,0.0,0.0,-0.5528,-0.5515,-0.5426,-0.5684,-0.5977,-0.5556,-0.5653,-0.5881,-0.5524,-0.5395,-0.5395,-0.5395,-0.5395,-0.5375,-0.525,-0.5226,-0.5226,-0.5226,-0.5114,-0.5022,-0.523,-0.5084,-0.4931,-0.5069,-0.51,0.0,-0.4522,-0.3745,-0.2849,-0.1951,-0.1035,-0.0358,-0.0029,0.0,0.0,0.0,0.0,0.0,0.0,0.0,0.0,0.0,0.0,0.0,0.0,0.0,0.0,0.0,0.0,0.0,0.0,0.0,0.0,0.0,0.0,0.0,0.0,0.0,0.0,0.0,0.0,0.0,0.0,0.0,0.0,0.0,0.0,0.0,0.0,0.0,0.0,0.0,0.0,0.0,0.0,0.0,0.0,0.0,0.0,0.0,0.0,-0.0847,-0.1999,-0.3461,-0.4295,-0.5285,-0.6592,0.0,0.0,0.0,0.0,-0.6196,-0.602,-0.602,-0.5986,-0.5854,-0.5854,-0.5854,-0.5854,-0.5833,-0.5759,-0.5637,-0.5603,-0.5545,-0.5419,-0.5402,-0.5395,-0.5395,-0.5395,-0.5395,-0.5395,-0.5395,-0.5395,-0.5395,-0.5395,0.0,0.0,-0.5653,-0.5914,-0.6396,-0.562,-0.5395,-0.5395,-0.5395,-0.5395,-0.5392,-0.5375,-0.5368,-0.5368,-0.5368,-0.5216,-0.5079,-0.5096,-0.4975,-0.4897,-0.5026,-0.5049,-0.5046,-0.5026,-0.4264,-0.3391,-0.2611,-0.1643,-0.0734,-0.0088,0.0,0.0,0.0,0.0,0.0,0.0,0.0,0.0,0.0,0.0,0.0,0.0,0.0,0.0,0.0,0.0,0.0,0.0,0.0,0.0,0.0,0.0,0.0,0.0,0.0,0.0,0.0,0.0,0.0,0.0,0.0,0.0,0.0,0.0,0.0,0.0,0.0,0.0,0.0,0.0,0.0,0.0,0.0,0.0,0.0,0.0,0.0,0.0,-0.0177,-0.1145,-0.3208,-0.358,-0.4529,-0.6448,-0.6528,-0.6446,-0.6306,-0.63,-0.6286,-0.6255,-0.6255,-0.6238,-0.6211,0.0,0.0,-0.6204,-0.6044,-0.5932,-0.5895,-0.5694,-0.5572,-0.5569,-0.5446,-0.5395,-0.5395,-0.5395,-0.5395,-0.5395,-0.5395,-0.5395,-0.5395,-0.5395,-0.5524,-0.562,-0.5458,-0.5524,-0.562,-0.5458,-0.5395,0.0,-0.5395,-0.5395,-0.5365,-0.5206,-0.5143,-0.5143,-0.5143,-0.5032,-0.4961,-0.5073,-0.4921,-0.4745,-0.4769,-0.4775,-0.4738,-0.4641,-0.3666,-0.2833,-0.2537,-0.1209,-0.0147,-0.0029,0.0,0.0,0.0,0.0,0.0,0.0,0.0,0.0,0.0,0.0,0.0,0.0,0.0,0.0,0.0,0.0,0.0,0.0,0.0,0.0,0.0,0.0,0.0,0.0,0.0,0.0,0.0,0.0,0.0,0.0,0.0,0.0,0.0,0.0,0.0,0.0,0.0,0.0,0.0,0.0,0.0,0.0,0.0,0.0,0.0,0.0,0.0,0.0,0.0,-0.0919,-0.32,-0.3288,-0.4185,-0.6398,-0.6446,-0.6375,-0.6303,-0.63,-0.63,-0.63,-0.63,-0.63,-0.63,-0.63,-0.63,-0.6296,-0.6179,-0.6101,-0.5983,-0.5874,-0.5766,-0.5684,-0.5573,-0.5463,-0.5395,-0.5395,-0.5395,-0.5395,-0.5395,-0.5395,-0.5395,-0.5395,-0.5686,-0.5976,-0.5557,-0.5686,-0.5976,-0.5524,-0.5395,-0.5395,-0.5395,-0.5395,-0.5378,-0.5267,-0.5247,-0.5247,-0.5247,-0.5131,-0.5012,-0.5083,-0.4928,-0.4806,-0.4806,-0.4806,-0.4755,-0.4631,-0.3808,-0.2959,-0.242,-0.1336,-0.0412,-0.0059,0.0,0.0,0.0,0.0,0.0,0.0,0.0,0.0,0.0,0.0,0.0,0.0,0.0,0.0,0.0,0.0,0.0,0.0,0.0,0.0,0.0,0.0,0.0,0.0,0.0,0.0,0.0,0.0,0.0,0.0,0.0,0.0,0.0,0.0,0.0,0.0,0.0,0.0,0.0,0.0,0.0,0.0,0.0,0.0,0.0,0.0,0.0,0.0,0.0,-0.0941,-0.3168,-0.319,-0.4076,-0.6351,-0.6361,-0.63,-0.63,-0.63,-0.63,-0.63,-0.63,-0.63,-0.63,-0.63,-0.63,-0.63,-0.63,-0.6193,-0.6071,-0.6003,-0.5905,-0.5793,-0.5677,-0.5559,-0.5477,-0.545,-0.544,-0.5436,-0.5405,-0.5395,-0.5395,-0.5395,-0.5848,-0.633,-0.562,-0.5881,-0.6301,-0.562,-0.5395,-0.5395,-0.5395,-0.5395,-0.5395,-0.5395,-0.5395,-0.5395,-0.5395,-0.5267,-0.5137,-0.5106,-0.5009,-0.4921,-0.4894,-0.4887,-0.487,-0.4718,-0.4074,-0.3276,-0.2354,-0.157,-0.0846,-0.0088,0.0,0.0,0.0,0.0,0.0,0.0,0.0,0.0,0.0,0.0,0.0,0.0,0.0,0.0,0.0,0.0,0.0,0.0,0.0,0.0,0.0,0.0,0.0,0.3558,0.2251,0.1094,0.1003,0.0497,0.0,0.0,0.0,0.0,0.0,0.0,0.0,0.0,0.0,0.0,0.0,0.0,0.0,0.0,0.0,0.0,0.0,0.0,0.0,0.0,0.0,-0.0877,-0.2971,-0.312,-0.4048,-0.621,-0.631,-0.63,-0.63,-0.63,-0.63,-0.63,-0.63,-0.63,-0.63,-0.63,-0.63,-0.63,-0.63,-0.6289,-0.6265,-0.6091,-0.5905,-0.58,-0.5783,-0.5769,-0.5739,-0.5613,-0.5562,-0.5549,-0.5446,-0.5395,-0.5395,-0.5395,-0.5458,-0.5524,-0.5428,-0.5458,-0.5524,-0.5428,-0.5395,-0.5395,-0.5395,-0.5395,-0.5395,-0.5395,-0.5395,-0.5395,-0.5395,-0.5382,-0.533,-0.513,-0.5086,-0.5036,-0.4914,-0.4887,-0.487,-0.4718,-0.4074,-0.3276,-0.2354,-0.1568,-0.0824,-0.0088,0.0,0.0,0.0,0.0,0.0,0.0,0.0,0.0,0.0,0.0,0.0,0.0,0.0,0.0,0.0,0.0,0.0,0.0,0.0,0.0,0.0,0.0,0.0,0.3331,0.2375,0.1528,0.0676,0.0215,0.0,0.0,0.0,0.0,0.0,0.0,0.0,0.0,0.0,0.0,0.0,0.0,0.0,0.0,0.0,0.0,0.0,0.0,0.0,0.0,0.0,-0.0622,-0.211,-0.2776,-0.3748,-0.5279,-0.5944,-0.63,-0.63,-0.63,-0.63,-0.63,-0.63,-0.63,-0.63,-0.63,-0.63,-0.63,-0.63,-0.63,-0.6296,-0.6231,-0.6078,-0.5899,-0.5899,-0.5881,-0.5786,-0.5644,-0.5589,-0.5569,-0.545,-0.5395,-0.5395,-0.5395,-0.5395,-0.5395,-0.5395,-0.5395,-0.5395,-0.5395,-0.5395,-0.5395,-0.5395,-0.5395,-0.5395,-0.5395,-0.5395,-0.5395,-0.5395,-0.5395,-0.5378,-0.5281,-0.5267,-0.522,-0.5039,-0.5012,-0.4965,-0.485,-0.4551,-0.3905,-0.2569,-0.1638,-0.0839,-0.0088,0.0,0.0,0.0,0.0,0.0,0.0,0.0,0.0,0.0,0.0,0.0,0.0,0.0,0.0,0.0,0.0,0.0,0.0,0.0,0.0,0.0,0.0,0.0,0.3263,0.2552,0.1897,0.0614,0.0138,0.0,0.0,0.0,0.0,0.0,0.0,0.0,0.0,0.0,0.0,0.0,0.0,0.0,0.0,0.0,0.0,0.0,0.0,0.0,0.0,0.0,-0.0452,-0.1508,-0.2277,-0.3164,-0.4217,-0.5276,-0.5867,-0.5867,-0.6141,-0.63,-0.63,-0.63,-0.63,-0.63,-0.63,-0.63,-0.63,-0.63,-0.63,-0.63,-0.63,-0.6235,-0.6095,-0.6095,-0.603,-0.5915,-0.5769,-0.5711,-0.5691,-0.5573,-0.5467,-0.5395,-0.5395,-0.5395,-0.5395,-0.5395,-0.5395,-0.5395,-0.5395,-0.5395,-0.5395,-0.5395,-0.5395,-0.5395,-0.5395,-0.5395,-0.5395,-0.5395,-0.5395,-0.5395,-0.5395,-0.5395,-0.5361,-0.5216,-0.5196,-0.5148,-0.4972,-0.4945,-0.4403,-0.2745,-0.1932,-0.1123,-0.0116,0.0,0.0,0.0,0.0,0.0,0.0,0.0,0.0,0.0,0.0,0.0,0.0,0.0,0.0,0.0,0.0,0.0,0.0,0.0,0.0,0.0,0.0,0.0,0.3564,0.2765,0.2031,0.1242,0.0518,0.0,0.0,0.0,0.0,0.0,0.0,0.0,0.0,0.0,0.0,0.0,0.0,0.0,0.0,0.0,0.0,0.0,0.0,0.0,0.0,0.0,-0.0447,-0.1501,-0.1628,-0.2074,-0.3085,-0.4178,-0.4766,-0.4766,-0.5747,-0.63,-0.63,-0.63,-0.63,-0.63,-0.63,-0.63,-0.63,-0.63,-0.63,-0.63,-0.63,-0.6296,-0.6293,-0.6293,-0.6289,-0.6269,-0.6074,-0.5979,-0.5959,-0.5844,-0.5606,-0.5395,-0.5395,-0.5395,-0.5395,-0.5395,-0.5395,-0.5395,-0.5395,-0.5395,-0.5395,-0.5395,-0.5395,-0.5395,-0.5395,-0.5395,-0.5395,-0.5395,-0.5395,-0.5395,-0.5395,-0.5395,-0.5392,-0.5388,-0.5388,-0.5337,-0.5117,-0.5093,-0.4505,-0.2774,-0.2485,-0.1862,-0.0198,0.0,0.0,0.0,0.0,0.0,0.0,0.0,0.0,0.0,0.0,0.0,0.0,0.0,0.0,0.0,0.0,0.0,0.0,0.0,0.0,0.0,0.0,0.0,0.4266,0.3332,0.2363,0.1735,0.0767,0.0,0.0,0.0,0.0,0.0,0.0,0.0,0.0,0.0,0.0,0.0,0.0,0.0,0.0,0.0,0.0,0.0,0.0,0.0,0.0,0.0,0.0,-0.0529,-0.121,-0.1752,-0.2077,-0.375,-0.4688,-0.4688,-0.5747,-0.63,-0.63,-0.63,-0.63,-0.63,-0.63,-0.63,-0.63,-0.63,-0.63,-0.63,-0.63,-0.63,-0.63,-0.63,-0.63,-0.6282,-0.6091,-0.5993,-0.5973,-0.5857,-0.5739,-0.5654,-0.5654,-0.5559,-0.5412,-0.5515,-0.5477,-0.5395,-0.5395,-0.5395,-0.5395,-0.5395,-0.5395,-0.5395,-0.5395,-0.5395,-0.5395,-0.5395,-0.5395,-0.5395,-0.5395,-0.5395,-0.5395,-0.5395,-0.5395,-0.5378,-0.5324,-0.5284,-0.4708,-0.2888,-0.1623,-0.0652,-0.0058,0.0,0.0,0.0,0.0,0.0,0.0,0.0,0.0,0.0,0.0,0.0,0.0,0.0,0.0,0.0,0.0,0.0,0.0,0.0,0.0,0.0,0.0,0.0,0.4651,0.3955,0.3171,0.2052,0.1196,0.0528,0.0088,0.0,0.0,0.0,0.0,0.0,0.0,0.0,0.0,0.0,0.0,0.0,0.0,0.0,0.0,0.0,0.0,0.0,0.0,0.0,0.0,0.0,-0.0657,-0.1009,-0.1034,-0.2984,-0.4139,-0.4139,-0.555,-0.63,-0.63,-0.63,-0.63,-0.63,-0.63,-0.63,-0.63,-0.63,-0.63,-0.63,-0.63,-0.63,-0.63,-0.63,-0.63,-0.6289,-0.6149,-0.6112,-0.6101,-0.6003,-0.5928,-0.5874,-0.582,-0.5677,-0.5569,-0.5633,-0.5599,-0.5552,-0.5552,-0.5552,-0.5542,-0.5491,-0.5477,-0.5463,-0.5409,-0.5395,-0.5395,-0.5395,-0.5395,-0.5395,-0.5395,-0.5395,-0.5395,-0.5395,-0.5395,-0.5395,-0.5395,-0.5123,-0.4392,-0.2939,-0.141,-0.0364,-0.003,0.0,0.0,0.0,0.0,0.0,0.0,0.0,0.0,0.0,0.0,0.0,0.0,0.0,0.0,0.0,0.0,0.0,0.0,0.0,0.0,0.0,0.0,0.0,0.4787,0.4675,0.4276,0.2364,0.1854,0.148,0.0269,0.0,0.0,0.0,0.0,0.0,0.0,0.0,0.0,0.0,0.0,0.0,0.0,0.0,0.0,0.0,0.0,0.0,0.0,0.0,0.0,0.0,0.0,0.0,0.0,-0.198,-0.3085,-0.3085,-0.5196,-0.63,-0.63,-0.63,-0.63,-0.63,-0.63,-0.63,-0.63,-0.63,-0.63,-0.63,-0.63,-0.63,-0.63,-0.63,-0.63,-0.63,-0.63,-0.63,-0.63,-0.63,-0.6169,-0.5983,-0.5874,-0.5813,-0.5803,-0.581,-0.581,-0.58,-0.58,-0.58,-0.5772,-0.564,-0.5596,-0.5555,-0.5443,-0.5399,-0.5395,-0.5395,-0.5395,-0.5395,-0.5395,-0.5395,-0.5395,-0.5395,-0.5395,-0.5395,-0.5395,-0.4619,-0.3713,-0.2878,-0.1934,-0.099,-0.0124,0.0,0.0,0.0,0.0,0.0,0.0,0.0,0.0,0.0,0.0,0.0,0.0,0.0,0.0,0.0,0.0,0.0,0.0,0.0,0.0,0.0,0.0,0.0,0.6228,0.5763,0.4913,0.3604,0.2598,0.1592,0.0309,0.0,0.0,0.0,0.0,0.0,0.0,0.0,0.0,0.0,0.0,0.0,0.0,0.0,0.0,0.0,0.0,0.0,0.0,0.0,0.0,0.0,0.0,0.0,0.0,-0.198,-0.3085,-0.3085,-0.5196,-0.63,-0.63,-0.63,-0.63,-0.63,-0.63,-0.63,-0.63,-0.63,-0.63,-0.63,-0.63,-0.63,-0.63,-0.63,-0.63,-0.63,-0.63,-0.63,-0.63,-0.63,-0.6276,-0.6235,-0.6194,-0.5993,-0.582,-0.5935,-0.5895,-0.58,-0.58,-0.58,-0.5793,-0.5755,-0.5671,-0.5583,-0.5542,-0.5481,-0.5395,-0.5395,-0.5395,-0.5395,-0.5395,-0.5395,-0.5395,-0.5395,-0.5395,-0.5395,-0.5395,-0.4619,-0.3915,-0.3713,-0.233,-0.0986,-0.0096,0.0,0.0,0.0,0.0,0.0,0.0,0.0,0.0,0.0,0.0,0.0,0.0,0.0,0.0,0.0,0.0,0.0,0.0,0.0,0.0,0.0,0.0,0.0,0.6869,0.6234,0.5324,0.4741,0.3227,0.1728,0.0942,0.0374,0.0,0.0,0.0,0.0,0.0,0.0,0.0,0.0,0.0,0.0,0.0,0.0,0.0,0.0,0.0,0.0,0.0,0.0,0.0,0.0,0.0,0.0,0.0,-0.1952,-0.3085,-0.3085,-0.5196,-0.63,-0.63,-0.63,-0.63,-0.63,-0.63,-0.63,-0.63,-0.63,-0.63,-0.63,0.0,-0.63,-0.63,-0.63,-0.63,-0.63,-0.63,-0.63,-0.63,-0.63,-0.63,-0.63,-0.63,-0.6187,-0.6017,-0.6101,-0.6368,-0.6589,-0.6152,-0.6003,-0.5989,-0.5922,-0.5844,-0.5769,-0.5701,-0.5572,-0.5494,-0.5494,-0.5443,-0.5395,-0.5395,-0.5395,-0.5395,-0.5395,-0.5395,-0.5395,-0.5395,-0.4957,-0.4486,-0.4048,-0.2811,-0.16,-0.069,-0.0224,0.0,0.0,0.0,0.0,0.0,0.0,0.0,0.0,0.0,0.0,0.0,0.0,0.0,0.0,0.0,0.0,0.0,0.0,0.0,0.0,0.0,0.0,0.7068,0.6291,0.5353,0.5393,0.3602,0.1761,0.1608,0.0752,0.0,0.0,0.0,0.0,0.0,0.0,0.0,0.0,0.0,0.0,0.0,0.0,0.0,0.0,0.0,0.0,0.0,0.0,0.0,0.0,0.0,0.0,0.0,-0.1963,-0.324,-0.3513,-0.5315,-0.63,-0.63,-0.63,-0.63,-0.63,-0.63,-0.63,-0.63,-0.63,-0.63,-0.63,0.0,0.0,-0.63,-0.63,-0.63,-0.63,-0.63,-0.63,-0.63,-0.63,-0.63,-0.63,-0.63,-0.6377,-0.649,-0.649,-0.6984,-0.748,-0.6718,-0.6412,-0.6272,-0.6098,-0.601,-0.5963,-0.5867,-0.5725,-0.5616,-0.5616,-0.5535,-0.5426,-0.5426,-0.5409,-0.5395,-0.5395,-0.5395,-0.5395,-0.5395,-0.5395,-0.5123,-0.4317,-0.3345,-0.241,-0.1574,-0.0625,0.0,0.0,0.0,0.0,0.0,0.0,0.0,0.0,0.0,0.0,0.0,0.0,0.0,0.0,0.0,0.0,0.0,0.0,0.0,0.0,0.0,0.0,0.7119,0.5828,0.416,0.4271,0.3129,0.1665,0.0567,0.0153,0.0,0.0,0.0,0.0,0.0,0.0,0.0,0.0,0.0,0.0,0.0,0.0,0.0,0.0,0.0,0.0,0.0,0.0,0.0,0.0,0.0,0.0,0.0,-0.1985,-0.3904,-0.5709,-0.6103,-0.63,-0.63,-0.63,-0.63,-0.63,-0.63,-0.63,-0.63,-0.63,-0.63,-0.63,-0.63,0.0,-0.63,-0.63,-0.63,-0.63,-0.63,-0.63,-0.63,-0.63,-0.63,-0.63,-0.63,-0.6834,-0.7557,-0.7557,-0.7099,-0.6679,-0.7326,-0.6945,-0.6293,-0.6269,-0.6129,-0.5986,-0.5959,-0.5878,-0.5766,-0.5766,-0.5654,-0.5549,-0.5549,-0.5484,-0.5395,-0.5395,-0.5395,-0.5395,-0.5395,-0.5395,-0.5359,-0.5193,-0.3747,-0.2644,-0.2477,-0.1003,0.0,0.0,0.0,0.0,0.0,0.0,0.0,0.0,0.0,0.0,0.0,0.0,0.0,0.0,0.0,0.0,0.0,0.0,0.0,0.0,0.0,0.0,0.538,0.4284,0.3016,0.3721,0.2397,0.0958,0.0932,0.0436,0.0,0.0,0.0,0.0,0.0,0.0,0.0,0.0,0.0,0.0,0.0,0.0,0.0,0.0,0.0,0.0,0.0,0.0,0.0,0.0,0.0,0.0,0.0,-0.198,-0.41,-0.6219,-0.63,-0.63,-0.63,-0.63,-0.63,-0.63,-0.63,-0.63,-0.63,-0.63,-0.63,-0.63,-0.63,0.0,-0.63,-0.63,-0.63,-0.63,-0.63,-0.63,-0.63,-0.63,-0.63,-0.63,-0.63,-0.6606,-0.7099,-0.7633,-0.748,-0.7061,-0.7022,-0.6679,-0.63,-0.63,-0.6245,-0.6149,-0.6149,-0.6037,-0.5922,-0.5922,-0.5806,-0.5681,-0.5606,-0.5532,-0.5491,-0.5412,-0.5395,-0.5395,-0.5395,-0.5395,-0.5395,-0.5395,-0.3849,-0.2711,-0.2711,-0.1109,0.0,0.0,0.0,0.0,0.0,0.0,0.0,0.0,0.0,0.0,0.0,0.0,0.0,0.0,0.0,0.0,0.0,0.0,0.0,0.0,0.0,0.0,0.3722,0.2728,0.1887,0.3083,0.1671,0.0252,0.1197,0.0697,0.0,0.0,0.0,0.0,0.0,0.0,0.0,0.0,0.0,0.0,0.0,0.0,0.0,0.0,0.0,0.0,0.0,0.0,0.0,0.0,0.0,-0.0198,-0.0645,-0.2212,-0.41,-0.6219,-0.63,-0.63,-0.63,-0.63,-0.63,-0.63,-0.63,-0.63,-0.63,-0.63,-0.63,-0.63,-0.63,0.0,0.0,-0.63,-0.63,-0.63,-0.63,-0.63,-0.63,-0.63,-0.63,-0.63,-0.63,-0.63,-0.6416,-0.7211,-0.748,-0.7365,-0.6795,-0.649,-0.63,-0.63,-0.63,-0.63,-0.63,-0.6169,-0.6071,-0.6,-0.5939,-0.581,-0.5664,-0.561,-0.5555,-0.5467,-0.5419,-0.5395,-0.5395,-0.5395,-0.5395,-0.5395,-0.3849,-0.2711,-0.2711,-0.1109,0.0,0.0,0.0,0.0,0.0,0.0,0.0,0.0,0.0,0.0,0.0,0.0,0.0,0.0,0.0,0.0,0.0,0.0,0.0,0.0,0.0,0.0,0.3448,0.2018,0.0523,0.1815,0.1062,0.0041,0.0149,0.0069,0.0,0.0,0.0,0.0,0.0,0.0,0.0,0.0,0.0,0.0,0.0,0.0,0.0,0.0,0.0,0.0,0.0,0.0,0.0,0.0,0.0,-0.0824,-0.2704,-0.301,-0.41,-0.6219,-0.63,-0.63,-0.63,-0.63,-0.63,-0.63,-0.63,-0.63,-0.63,-0.63,-0.63,-0.63,-0.63,0.0,0.0,-0.63,-0.63,-0.63,-0.63,-0.63,-0.63,-0.63,-0.63,-0.63,-0.63,-0.63,-0.63,-0.6412,-0.6451,-0.6606,-0.7403,-0.7022,-0.63,-0.63,-0.63,-0.63,-0.63,-0.6289,-0.6242,-0.6027,-0.5983,-0.5929,-0.5817,-0.5681,-0.5586,-0.5572,-0.5491,-0.5395,-0.5395,-0.5395,-0.5395,-0.5395,-0.3849,-0.2711,-0.2711,-0.1109,0.0,0.0,0.0,0.0,0.0,0.0,0.0,0.0,0.0,0.0,0.0,0.0,0.0,0.0,0.0,0.0,0.0,0.0,0.0,0.0,0.0,0.0,0.1373,0.079,0.014,0.0685,0.0386,0.0,0.0,0.0,0.0,0.0,0.0,0.0,0.0,0.0,0.0,0.0,0.0,0.0,0.0,0.0,0.0,0.0,0.0,0.0,0.0,0.0,0.0,0.0,0.0,-0.0901,-0.3007,-0.3085,-0.41,-0.6219,-0.63,-0.63,-0.63,-0.63,-0.63,-0.63,-0.63,-0.63,-0.63,-0.63,-0.63,-0.63,-0.63,0.0,0.0,-0.63,-0.63,-0.63,-0.63,-0.63,-0.63,-0.63,-0.63,-0.63,-0.63,-0.63,-0.63,-0.63,-0.6718,-0.7176,-0.6945,-0.6606,-0.63,-0.63,-0.63,-0.63,-0.63,-0.63,-0.6259,-0.603,-0.6101,-0.6125,-0.5973,-0.5895,-0.5803,-0.5627,-0.5542,-0.5504,-0.5412,-0.5395,-0.5395,-0.5395,-0.3849,-0.2711,-0.2711,-0.1109,0.0,0.0,0.0,0.0,0.0,0.0,0.0,0.0,0.0,0.0,0.0,0.0,0.0,0.0,0.0,0.0,0.0,0.0,0.0,0.0,0.0,0.0,0.0,0.0,0.0,0.0,0.0,0.0,0.0,0.0,0.0,0.0,0.0,0.0,0.0,0.0,0.0,0.0,0.0,0.0,0.0,0.0,0.0,0.0,0.0,0.0,0.0,0.0,0.0,0.0,0.0,-0.0901,-0.3007,-0.3085,-0.41,-0.6219,-0.63,-0.63,-0.63,-0.63,-0.63,-0.63,-0.63,-0.63,-0.63,-0.63,-0.63,-0.63,-0.63,0.0,0.0,-0.63,-0.63,-0.63,-0.63,-0.63,-0.63,-0.63,-0.63,-0.63,-0.63,-0.63,-0.6338,-0.6644,-0.7211,-0.7706,-0.7326,-0.6984,-0.6679,-0.6377,-0.63,-0.63,-0.63,-0.63,-0.6272,-0.6125,-0.6179,-0.6269,-0.6122,-0.6023,-0.5932,-0.5759,-0.565,-0.5555,-0.5481,-0.5426,-0.5395,-0.5395,-0.4084,-0.2978,-0.2744,-0.1342,-0.0269,-0.0034,0.0,0.0,0.0,0.0,0.0,0.0,0.0,0.0,0.0,0.0,0.0,0.0,0.0,0.0,0.0,0.0,0.0,0.0,0.0,0.0,0.0,0.0,0.0,0.0,0.0,0.0,0.0,0.0,0.0,0.0,0.0,0.0,0.0,0.0,0.0,0.0,0.0,0.0,0.0,0.0,0.0,0.0,0.0,0.0,0.0,0.0,0.0,0.0,0.0,0.0,-0.3007,-0.3085,-0.41,-0.6219,-0.63,-0.63,-0.63,-0.63,-0.63,-0.63,-0.63,-0.63,-0.63,-0.63,-0.63,0.0,0.0,0.0,0.0,-0.63,-0.63,-0.63,-0.63,-0.63,-0.63,-0.63,-0.63,-0.63,-0.63,-0.63,-0.6451,-0.748,-0.7783,-0.7974,-0.896,-0.858,-0.7595,-0.6567,-0.63,-0.63,-0.63,-0.63,-0.63,-0.6296,-0.6296,-0.63,-0.6296,-0.6139,-0.599,-0.599,-0.5789,-0.5589,-0.5589,-0.5494,-0.5395,-0.5395,-0.4586,-0.368,-0.2811,-0.1876,-0.0939,-0.0101,0.0,0.0,0.0,0.0,0.0,0.0,0.0,0.0,0.0,0.0,0.0,0.0,0.0,0.0,0.0,0.0,0.0,0.0,0.0,0.0,0.0,0.0,0.0,0.0,0.0,0.0,0.0,0.0,0.0,0.0,0.0,0.0,0.0,0.0,0.0,0.0,0.0,0.0,0.0,0.0,0.0,0.0,0.0,0.0,0.0,0.0,0.0,0.0,0.0,-0.0901,-0.3007,-0.3085,-0.41,-0.6219,-0.63,-0.63,-0.63,-0.63,-0.63,-0.63,-0.63,-0.63,-0.63,-0.63,-0.63,0.0,0.0,0.0,0.0,-0.63,-0.63,-0.63,-0.63,-0.63,-0.63,-0.63,-0.63,-0.63,-0.63,-0.63,-0.6451,-0.748,-0.8275,-0.8765,-0.8389,-0.8542,-0.8618,-0.7591,-0.6834,-0.6276,-0.6132,-0.6179,-0.6272,-0.6129,-0.6183,-0.6272,-0.6125,-0.6064,-0.5932,-0.5769,-0.5732,-0.5671,-0.5501,-0.5515,-0.5518,-0.5412,-0.4586,-0.368,-0.2811,-0.1876,-0.0973,-0.0101,0.0,0.0,0.0,0.0,0.0,0.0,0.0,0.0,0.0,0.0,0.0,0.0,0.0,0.0,0.0,0.0,0.0,0.0,0.0,0.0,0.0,0.0,0.0,0.0,0.0,0.0,0.0,0.0,0.0,0.0,0.0,0.0,0.0,0.0,0.0,0.0,0.0,0.0,0.0,0.0,0.0,0.0,0.0,0.0,0.0,0.0,0.0,0.0,0.0,-0.0901,-0.3007,-0.3085,-0.41,-0.6219,-0.63,-0.63,-0.63,-0.63,-0.63,-0.63,-0.63,-0.63,-0.63,-0.63,-0.63,0.0,0.0,0.0,0.0,-0.63,-0.63,-0.63,-0.63,-0.6265,-0.6173,-0.6173,-0.6135,-0.6132,-0.6156,-0.6173,-0.6283,-0.735,-0.8556,-0.9558,-0.9259,-0.8711,-0.8127,-0.7859,-0.7061,-0.6279,-0.6142,-0.6186,-0.6276,-0.6139,-0.6193,-0.6272,-0.6139,-0.6115,-0.6061,-0.5881,-0.5867,-0.583,-0.5644,-0.5599,-0.5559,-0.5494,-0.4922,-0.4084,-0.2845,-0.2177,-0.1374,-0.0135,0.0,0.0,0.0,0.0,0.0,0.0,0.0,0.0,0.0,0.0,0.0,0.0,0.0,0.0,0.0,0.0,0.0,0.0,0.0,0.0,0.0,0.0,0.0,0.0,0.0,0.0,0.0,0.0,0.0,0.0,0.0,0.0,0.0,0.0,0.0,0.0,0.0,0.0,0.0,0.0,0.0,0.0,0.0,0.0,0.0,0.0,0.0,0.0,0.0,-0.0901,-0.3007,-0.3085,-0.41,-0.6219,-0.63,-0.63,-0.63,-0.63,-0.63,-0.63,-0.63,-0.63,-0.63,-0.63,-0.6293,0.0,0.0,0.0,0.0,-0.6269,-0.6269,-0.6269,-0.6269,-0.6139,-0.5976,-0.5976,-0.5925,-0.5823,-0.5929,-0.5922,-0.6003,-0.7127,-0.8612,-1.017,-1.1039,-0.9031,-0.6661,-0.7609,-0.7126,-0.63,-0.63,-0.63,-0.63,-0.63,-0.63,-0.6296,-0.6286,-0.6282,-0.6279,-0.6269,-0.6122,-0.5986,-0.5963,-0.5789,-0.561,-0.5579,-0.5494,-0.4767,-0.3011,-0.2744,-0.2044,-0.0269,-0.0034,0.0,0.0,0.0,0.0,0.0,0.0,0.0,0.0,0.0,0.0,0.0,0.0,0.0,0.0,0.0,0.0,0.0,0.0,0.0,0.0,0.0,0.0,0.0,0.0,0.0,0.0,0.0,0.0,0.0,0.0,0.0,0.0,0.0,0.0,0.0,0.0,0.0,0.0,0.0,0.0,0.0,0.0,0.0,0.0,0.0,0.0,0.0,0.0,-0.0901,-0.3007,-0.3085,-0.41,-0.6219,-0.63,-0.63,-0.63,-0.63,-0.63,-0.63,-0.63,-0.63,-0.63,-0.63,-0.6235,0.0,0.0,0.0,-0.5908,-0.5908,-0.5908,-0.5908,-0.5908,-0.5888,-0.5857,-0.5857,-0.5833,-0.5806,-0.584,-0.583,-0.5982,-0.7016,-0.8063,-0.912,-1.0101,-0.9383,-0.825,-0.8508,-0.7475,-0.63,-0.63,-0.63,-0.63,-0.63,-0.63,-0.6269,-0.6108,-0.6084,-0.6051,-0.5932,-0.5973,-0.5922,-0.5732,-0.5823,-0.581,-0.5501,-0.5518,-0.5114,-0.3859,-0.3111,-0.2277,-0.1107,-0.0404,0.0,0.0,0.0,0.0,0.0,0.0,0.0,0.0,0.0,0.0,0.0,0.0,0.0,0.0,0.0,0.0,0.0,0.0,0.0,0.0344,0.0448,0.042,0.0083,0.0249,0.042,0.0084,0.0,0.0,0.0,0.0,0.0,0.0,0.0,0.0,0.0,0.0,0.0,0.0,0.0,0.0,0.0,0.0,0.0,0.0,0.0,0.0,0.0,0.0,-0.0901,-0.3007,-0.3085,-0.4039,-0.608,-0.6156,-0.619,-0.63,-0.63,-0.63,-0.63,-0.6186,-0.6156,-0.6152,-0.6081,-0.6003,0.0,0.0,0.0,-0.58,-0.58,-0.58,-0.58,-0.58,-0.5762,-0.5705,-0.5705,-0.5661,-0.561,-0.5681,-0.598,-0.6448,-0.7327,-0.8219,-0.9108,-1.0053,-0.9474,-0.8563,-0.8663,-0.7436,-0.6105,-0.6135,-0.6156,-0.6173,-0.6282,-0.63,-0.6276,-0.6156,-0.6135,-0.6112,-0.6027,-0.6078,-0.6084,-0.5962,-0.5969,-0.5909,-0.5705,-0.5677,-0.5335,-0.4349,-0.382,-0.2988,-0.1601,-0.1011,-0.0524,-0.0035,0.0,0.0,0.0,0.0,0.0,0.0,0.0,0.0,0.0,0.0,0.0,0.0,0.0,0.0,0.0,0.0,0.0,0.0814,0.1185,0.1246,0.0505,0.0791,0.1118,0.0476,0.0336,0.0308,0.0196,0.0168,0.0141,0.0028,0.0,0.0,0.0,0.0,0.0,0.0,0.0,0.0,0.0,0.0,0.0,0.0,0.0,0.0,0.0,0.0,-0.0896,-0.2952,-0.3058,-0.3978,-0.5922,-0.5956,-0.6057,-0.6228,-0.6228,-0.6228,-0.6228,-0.6057,-0.5956,-0.5952,-0.5861,-0.5789,-0.5769,0.0,0.0,-0.5735,-0.5735,-0.5735,-0.5735,-0.5735,-0.5661,-0.559,-0.5724,-0.5606,-0.5446,-0.5678,-0.6329,-0.7173,-0.7794,-0.8581,-0.9434,-1.0174,-0.9349,-0.8218,-0.8438,-0.7205,-0.583,-0.5925,-0.5956,-0.6034,-0.6228,-0.6265,-0.6272,-0.6293,-0.63,-0.63,-0.63,-0.63,-0.6293,-0.6269,-0.6135,-0.6013,-0.5966,-0.5905,-0.5571,-0.4784,-0.4599,-0.3804,-0.1998,-0.1672,-0.1164,-0.0109,0.0,0.0,0.0,0.0,0.0,0.0,0.0,0.0,0.0,0.0,0.0,0.0,0.0,0.0,0.0,0.0,0.0,0.1151,0.2079,0.2753,0.1911,0.1851,0.2009,0.1898,0.187,0.1675,0.1062,0.0923,0.074,0.0121,0.0,0.0,0.0,0.0,0.0,0.0,0.0,0.0,0.0,0.0,0.0,0.0,0.0,0.0,0.0,0.0,-0.0874,-0.2844,-0.2935,-0.381,-0.5765,-0.5837,-0.5847,-0.5871,-0.5871,-0.5871,-0.5871,-0.5847,-0.5837,-0.5837,-0.5813,-0.5735,0.0,0.0,-0.5549,-0.5463,-0.5463,-0.5463,-0.5463,-0.5463,-0.545,-0.5526,-0.6275,-0.6065,-0.5495,-0.6267,-0.7091,-0.7844,-0.7972,-0.8581,-0.9338,-0.9466,-0.8802,-0.8055,-0.8085,-0.6971,-0.5806,-0.583,-0.5837,-0.5874,-0.6027,-0.6027,-0.6101,-0.6272,-0.63,-0.63,-0.63,-0.63,-0.6259,-0.6088,-0.6156,-0.6173,-0.5874,-0.5925,-0.5875,-0.5637,-0.4964,-0.4022,-0.2832,-0.2035,-0.1164,-0.0109,0.0,0.0,0.0,0.0,0.0,0.0,0.0,0.0,0.0,0.0,0.0,0.0,0.0,0.0,0.0,0.0,0.0,0.1844,0.2612,0.3182,0.3195,0.3064,0.2864,0.2464,0.235,0.2276,0.2025,0.1974,0.1694,0.0858,0.0696,0.056,0.007,0.0,0.0,0.0,0.0,0.0,0.0,0.0,0.0,0.0,0.0,0.0,0.0,0.0,0.0,-0.2808,-0.2888,-0.375,-0.5617,-0.5688,-0.5647,-0.5597,-0.5597,-0.5644,-0.58,-0.5725,-0.5688,-0.5684,-0.5599,-0.5562,-0.5501,0.0,-0.546,-0.5395,-0.5395,-0.5395,-0.5395,-0.5395,-0.5395,-0.5491,-0.6363,-0.6461,-0.6235,-0.7111,-0.7962,-0.8716,-0.8716,-0.93,-1.0009,-1.0009,-0.9069,-0.7994,-0.7994,-0.6818,-0.5617,-0.5667,-0.5688,-0.5725,-0.5871,-0.5932,-0.6013,-0.6122,-0.6242,-0.63,-0.63,-0.63,-0.6276,-0.6166,-0.6252,-0.6252,-0.6108,-0.6112,-0.6129,-0.6098,-0.5707,-0.5064,-0.4006,-0.2986,-0.2004,-0.0947,-0.0345,0.0,0.0,0.0,0.0,0.0,0.0,0.0,0.0,0.0,0.0,0.0,0.0,0.0,0.0,0.0,0.0,0.2488,0.3069,0.3493,0.4128,0.4049,0.37,0.3218,0.3098,0.3058,0.3051,0.2871,0.249,0.1788,0.1482,0.1008,0.0146,0.0,0.0,0.0,0.0,0.0,0.0,0.0,0.0,0.0,0.0,0.0,0.0,0.0,0.0,-0.2769,-0.304,-0.3883,-0.5504,-0.5538,-0.5515,-0.5395,-0.5395,-0.5508,-0.5698,-0.5589,-0.5538,-0.5566,-0.5446,-0.5395,-0.5395,-0.5395,-0.5395,-0.5395,-0.5395,-0.5395,-0.5395,-0.5395,-0.5524,-0.5818,-0.6691,-0.7144,-0.7405,-0.8059,-0.8877,-0.9594,-0.9594,-1.0047,-1.0593,-1.0593,-0.939,-0.7994,-0.7994,-0.6728,-0.5423,-0.5539,-0.5538,-0.5572,-0.5718,-0.5867,-0.5949,-0.5986,-0.6149,-0.63,-0.63,-0.63,-0.63,-0.63,-0.63,-0.63,-0.63,-0.63,-0.63,-0.63,-0.63,-0.5906,-0.4805,-0.3984,-0.2969,-0.1724,-0.0628,0.0,0.0,0.0,0.0,0.0,0.0,0.0,0.0,0.0,0.0,0.0,0.0,0.0,0.0,0.0,0.0,0.2835,0.3595,0.4187,0.4409,0.4463,0.4529,0.4848,0.481,0.4609,0.4181,0.3355,0.2708,0.2783,0.1985,0.1022,0.015,0.0,0.0,0.0,0.0,0.0,0.0,0.0,0.0,0.0,0.0,0.0,0.0,0.0,0.0,-0.2659,-0.3483,-0.4372,-0.5379,-0.5412,-0.5405,-0.5395,-0.5395,-0.5405,-0.5426,-0.5416,-0.5412,-0.5412,-0.5399,-0.5395,-0.5395,-0.5395,-0.5395,-0.5395,-0.5395,-0.5395,-0.5395,-0.5395,-0.5881,-0.6719,-0.7567,-0.842,-0.9107,-0.9172,-0.9786,-1.0498,-1.0498,-1.0561,-1.0593,-1.0593,-0.939,-0.7994,-0.7994,-0.6728,-0.5395,-0.5409,-0.5412,-0.545,-0.5569,-0.5715,-0.5857,-0.5963,-0.6149,-0.63,-0.63,-0.63,-0.63,-0.63,-0.63,-0.63,-0.63,-0.63,-0.63,-0.63,-0.63,-0.5906,-0.4805,-0.4647,-0.3791,-0.1762,-0.0628,0.0,0.0,0.0,0.0,0.0,0.0,0.0,0.0,0.0,0.0,0.0,0.0,0.0,0.0,0.0,0.0,0.3109,0.3791,0.4207,0.4291,0.4538,0.4813,0.5042,0.5056,0.5063,0.5171,0.4365,0.3446,0.2884,0.1541,0.0551,0.0791,0.0343,0.0,0.0,0.0,0.0,0.0,0.0,0.0,0.0,0.0,0.0,0.0,0.0,0.0,-0.2618,-0.3029,-0.3882,-0.5359,-0.5395,-0.5395,-0.5395,-0.5395,-0.5395,-0.5395,-0.5395,-0.5395,-0.5395,-0.5395,-0.5395,-0.5395,-0.5395,-0.5395,-0.5395,-0.5395,-0.5395,-0.5395,-0.5395,-0.5947,-0.6817,-0.7665,-0.8549,-0.937,-0.9913,-1.0333,-1.0593,-1.0593,-1.0593,-1.0593,-1.0593,-0.9748,-0.8683,-0.8156,-0.7149,-0.6075,-0.5524,-0.5395,-0.5409,-0.5467,-0.5562,-0.5708,-0.5857,-0.601,-0.6146,-0.6279,-0.63,-0.63,-0.63,-0.63,-0.63,-0.63,-0.63,-0.63,-0.63,-0.63,-0.6141,-0.5747,-0.5079,-0.3867,-0.1762,-0.1215,-0.0706,-0.0039,0.0,0.0,0.0,0.0,0.0,0.0,0.0,0.0,0.0,0.0,0.0,0.0,0.0,0.0,0.3394,0.3917,0.4207,0.4277,0.4557,0.4921,0.5209,0.5241,0.5403,0.5854,0.5283,0.4207,0.2651,0.1526,0.0844,0.0903,0.0378,0.0,0.0,0.0,0.0,0.0,0.0,0.0,0.0,0.0,0.0,0.0,0.0,0.0,0.0,-0.2945,-0.3816,-0.5359,-0.5395,-0.5395,-0.5395,-0.5395,-0.5395,-0.5395,-0.5395,-0.5395,-0.5395,-0.5395,-0.5395,-0.5395,-0.5395,-0.5395,-0.5395,-0.5395,-0.5395,-0.5428,-0.5686,-0.617,-0.685,-0.7994,-0.878,-0.9434,-1.0301,-1.0593,-1.0593,-1.0593,-1.0593,-1.0593,-1.0593,-0.9983,-0.9107,-0.8253,-0.7372,-0.6494,-0.562,-0.5395,-0.5395,-0.5395,-0.5515,-0.5616,-0.5715,-0.5891,-0.6023,-0.6166,-0.6265,-0.63,-0.63,-0.63,-0.63,-0.63,-0.63,-0.63,-0.63,-0.63,-0.63,-0.63,-0.5354,-0.3984,-0.2231,-0.1802,-0.1137,-0.0079,0.0,0.0,0.0,0.0,0.0,0.0,0.0,0.0,0.0,0.0,0.0,0.0,0.0,0.0,0.3624,0.3991,0.4257,0.4453,0.4607,0.4853,0.5454,0.5589,0.5718,0.6207,0.6017,0.4931,0.2143,0.2181,0.2089,0.0302,0.0,0.0,0.0,0.0,0.0,0.0,0.0,0.0,0.0,0.0,0.0,0.0,0.0,0.0,0.0,-0.3513,-0.4417,-0.5362,-0.5395,-0.5395,-0.5395,-0.5395,-0.5395,-0.5395,-0.5395,-0.5395,-0.5395,-0.5395,-0.5395,-0.5395,-0.5395,-0.5395,-0.5395,-0.5395,-0.5395,-0.5491,-0.6363,-0.6719,-0.6915,-0.8651,-0.9306,-0.9434,-1.0301,-1.0593,-1.0593,-1.0593,-1.0593,-1.0593,-1.0593,-0.9983,-0.9139,-0.8253,-0.7372,-0.6527,-0.562,-0.5395,-0.5395,-0.5395,-0.5511,-0.5589,-0.5589,-0.582,-0.599,-0.5993,-0.6156,-0.6296,-0.63,-0.63,-0.63,-0.63,-0.63,-0.63,-0.63,-0.63,-0.63,-0.63,-0.5354,-0.4295,-0.3202,-0.219,-0.1176,-0.0079,0.0,0.0,0.0,0.0,0.0,0.0,0.0,0.0,0.0,0.0,0.0,0.0,0.0,0.0,0.3624,0.3991,0.4257,0.4453,0.4846,0.5269,0.5525,0.5589,0.5503,0.5237,0.4498,0.3616,0.2686,0.1568,0.0824,0.0906,0.041,0.0,0.0,0.0,0.0,0.0,0.0,0.0,0.0,0.0,0.0,0.0,0.0,0.0,0.0,-0.2945,-0.3782,-0.5359,-0.5395,-0.5395,-0.5395,-0.5395,-0.5395,-0.5395,-0.5395,-0.5395,-0.5395,-0.5395,-0.5395,-0.5395,-0.5395,-0.5395,-0.5395,-0.5395,-0.5395,-0.5491,-0.6363,-0.7079,-0.7767,-0.8877,-0.969,-1.0238,-1.0498,-1.0593,-1.0593,-1.0593,-1.0593,-1.0593,-1.0593,-1.0434,-0.9913,-0.8415,-0.7827,-0.7279,-0.5785,-0.5395,-0.5395,-0.5395,-0.5429,-0.5491,-0.5566,-0.5657,-0.5783,-0.5952,-0.603,-0.6132,-0.6279,-0.63,-0.63,-0.63,-0.63,-0.63,-0.63,-0.63,-0.63,-0.63,-0.6025,-0.5392,-0.4334,-0.3242,-0.2229,-0.1176,-0.0432,0.0,0.0,0.0,0.0,0.0,0.0,0.0,0.0,0.0,0.0,0.0,0.0,0.0,0.3383,0.3734,0.408,0.4535,0.5037,0.5467,0.5701,0.5813,0.5785,0.5422,0.4754,0.4006,0.313,0.1996,0.1087,0.0841,0.0336,0.0,0.0,0.0,0.0,0.0,0.0,0.0,0.0,0.0,0.0,0.0,0.0,0.0,0.0,-0.2711,-0.3513,-0.5326,-0.5395,-0.5395,-0.5395,-0.5395,-0.5365,-0.527,-0.5365,-0.5361,-0.5274,-0.5365,-0.5395,-0.5395,-0.5395,-0.5395,-0.5395,-0.5395,-0.5395,-0.5458,-0.5976,-0.6724,-0.76,-0.8452,-0.9332,-1.0142,-1.0466,-1.0593,-1.0593,-1.0593,-1.0593,-1.0593,-1.0593,-1.0593,-1.0301,-0.8903,-0.8517,-0.8124,-0.6371,-0.5914,-0.5815,-0.5491,-0.5395,-0.5419,-0.5515,-0.5549,-0.5644,-0.582,-0.5912,-0.6023,-0.6152,-0.6259,-0.63,-0.63,-0.63,-0.63,-0.63,-0.63,-0.63,-0.63,-0.63,-0.5867,-0.4805,-0.41,-0.3125,-0.1685,-0.098,-0.0432,0.0,0.0,0.0,0.0,0.0,0.0,0.0,0.0,0.0,0.0,0.0,0.0,0.3105,0.3412,0.3842,0.4687,0.5152,0.5528,0.5895,0.6139,0.6282,0.6296,0.6069,0.5327,0.3461,0.294,0.2155,0.0312,0.0,0.0,0.0,0.0,0.0,0.0,0.0,0.0,0.0,0.0,0.0,0.0,0.0,0.0,0.0,-0.2711,-0.3513,-0.5326,-0.5395,-0.5395,-0.5395,-0.5395,-0.5324,0.0,-0.5327,-0.5287,-0.5123,-0.533,-0.5388,-0.5375,-0.5375,-0.5375,-0.5375,-0.5388,-0.5395,-0.5395,-0.5491,-0.6042,-0.6915,-0.78,-0.8678,-0.953,-1.0333,-1.0593,-1.0593,-1.0593,-1.0593,-1.0593,-1.0593,-1.0593,-1.0434,-0.9562,-0.9306,-0.8909,-0.7144,-0.6687,-0.6494,-0.5624,-0.5395,-0.5395,-0.5395,-0.5504,-0.5572,-0.5586,-0.5817,-0.5976,-0.599,-0.6159,-0.63,-0.63,-0.63,-0.63,-0.63,-0.63,-0.63,-0.63,-0.63,-0.5906,-0.4924,-0.4766,-0.3908,-0.1997,-0.1724,-0.1176,-0.0196,-0.0039,0.0,0.0,0.0,0.0,0.0,0.0,0.0,0.0,0.0,0.0,0.3729,0.3946,0.4202,0.4753,0.5233,0.5627,0.5919,0.602,0.6112,0.6276,0.5604,0.458,0.3315,0.2442,0.1471,0.0196,0.0,0.0,0.0,0.0,0.0,0.0,0.0,0.0,0.0,0.0,0.0,0.0,0.0,0.0,-0.2611,-0.2711,-0.3513,-0.5326,-0.5395,-0.5395,-0.5395,-0.5395,-0.5378,0.0,-0.5378,-0.5378,-0.5347,-0.5378,-0.5327,-0.5179,-0.5179,-0.5179,-0.5189,-0.5344,-0.5395,-0.5458,-0.6141,-0.6948,-0.7832,-0.8716,-0.9556,-1.0333,-1.053,-1.0593,-1.0593,-1.0593,-1.0593,-1.0593,-1.0593,-1.0593,-1.0434,-0.9562,-0.9306,-0.8909,-0.7144,-0.6687,-0.6494,-0.5624,-0.5395,-0.5395,-0.5395,-0.5423,-0.5481,-0.5566,-0.5732,-0.5888,-0.5973,-0.6159,-0.63,-0.63,-0.63,-0.63,-0.63,-0.63,-0.63,-0.63,-0.63,-0.6222,-0.5983,-0.5196,-0.4491,-0.4064,-0.2504,-0.1489,-0.1254,-0.0432,0.0,0.0,0.0,0.0,0.0,0.0,0.0,0.0,0.0,0.0,0.3404,0.3731,0.4213,0.5013,0.5416,0.5647,0.5871,0.5922,0.5942,0.6023,0.573,0.4999,0.3396,0.2673,0.1817,0.0235,0.0,0.0,0.0,0.0,0.0,0.0,0.0,0.0,0.0,0.0,0.0,0.0,0.0,-0.0807,-0.2611,-0.2711,-0.3513,-0.5326,-0.5395,-0.5395,-0.5395,-0.5395,-0.5358,-0.525,-0.5358,-0.5395,-0.5395,-0.5395,-0.5351,-0.5237,-0.513,-0.51,-0.51,-0.5145,-0.5148,-0.5219,-0.5728,-0.6463,-0.7337,-0.8313,-0.923,-1.004,-1.046,-1.0593,-1.0593,-1.0593,-1.0593,-1.0593,-1.0593,-1.0593,-1.0498,-1.0047,-0.9626,-0.9011,-0.7665,-0.7013,-0.6494,-0.5624,-0.5395,-0.5395,-0.5395,-0.5395,-0.5419,-0.5498,-0.5599,-0.5745,-0.5895,-0.6112,-0.63,-0.63,-0.63,-0.63,-0.63,-0.63,-0.63,-0.63,-0.63,-0.63,-0.63,-0.5786,-0.5237,-0.4727,-0.3675,-0.2621,-0.1646,-0.1058,-0.051,0.0,0.0,0.0,0.0,0.0,0.0,0.0,0.0,0.0,0.2892,0.3443,0.4189,0.5233,0.5528,0.5589,0.5732,0.5766,0.5737,0.5614,0.5814,0.5405,0.3432,0.2925,0.2228,0.0309,0.0,0.0,0.0,0.0,0.0,0.0,0.0,0.0,0.0,0.0,0.0,0.0,0.0,-0.0807,-0.2611,-0.2711,-0.3513,-0.5326,-0.5395,-0.5395,-0.5395,-0.5395,-0.533,-0.514,-0.5334,-0.5395,-0.5395,-0.5395,-0.5382,-0.5347,-0.5162,-0.5063,-0.5052,-0.4935,-0.4979,-0.5111,-0.5199,-0.5868,-0.6853,-0.7788,-0.8681,-0.9565,-1.032,-1.0593,-1.0593,-1.0593,-1.0593,-1.0593,-1.0593,-1.0593,-1.0593,-1.0593,-1.0079,-0.93,-0.8253,-0.747,-0.6654,-0.5657,-0.5395,-0.5395,-0.5395,-0.5395,-0.5395,-0.5395,-0.5518,-0.5644,-0.5813,-0.6051,-0.6269,-0.6296,-0.63,-0.63,-0.63,-0.63,-0.63,-0.63,-0.63,-0.63,-0.63,-0.63,-0.5828,-0.4766,-0.453,-0.3556,-0.1685,-0.1411,-0.0902,0.0,0.0,0.0,0.0,0.0,0.0,0.0,0.0,0.0,0.3196,0.3804,0.4517,0.5042,0.5291,0.5467,0.5583,0.5616,0.5437,0.4797,0.4698,0.4356,0.3152,0.2305,0.139,0.0184,0.0,0.0,0.0,0.0,0.0,0.0,0.0,0.0,0.0,0.0,0.0,0.0,0.0,-0.0807,-0.2611,-0.2711,-0.3513,-0.5326,-0.5395,-0.5395,-0.5395,-0.5395,-0.5385,-0.5365,-0.5385,-0.5395,-0.5395,-0.5395,-0.532,-0.512,-0.4978,-0.4918,-0.4914,-0.4894,-0.5279,-0.5846,-0.587,-0.6801,-0.8171,-0.8566,-0.926,-1.0054,-1.0468,-1.0593,-1.0593,-1.0593,-1.0593,-1.0593,-1.0593,-1.0593,-1.0593,-1.0593,-1.053,-1.004,-0.8415,-0.7929,-0.7409,-0.5785,-0.5395,-0.5395,-0.5395,-0.5395,-0.5395,-0.5395,-0.5518,-0.5677,-0.5915,-0.5996,-0.6105,-0.6279,-0.63,-0.63,-0.63,-0.63,-0.63,-0.63,-0.63,-0.63,-0.63,-0.63,-0.5828,-0.4766,-0.3826,-0.2813,-0.1646,-0.0706,-0.0157,0.0,0.0,0.0,0.0,0.0,0.0,0.0,0.0,0.0,0.3674,0.4065,0.445,0.487,0.5121,0.525,0.5318,0.4992,0.462,0.429,0.3397,0.2591,0.224,0.1854,0.1236,0.0182,0.0,0.0,0.0,0.0,0.0,0.0,0.0,0.0,0.0,0.0,0.0,0.0,0.0,-0.0807,-0.2611,-0.2711,-0.3513,-0.5326,-0.5395,-0.5395,-0.5395,-0.5395,-0.5395,-0.5395,-0.5395,-0.5395,-0.5395,-0.5395,-0.5277,-0.5093,-0.4951,-0.487,-0.4782,-0.4697,-0.5088,-0.5718,-0.5852,-0.6881,-0.8305,-0.8492,-0.9228,-1.0134,-1.0267,-1.0452,-1.0593,-1.0593,-1.0593,-1.0593,-1.0593,-1.0593,-1.0593,-1.0593,-1.0238,-0.969,-0.8941,-0.7994,-0.7079,-0.6301,-0.5752,-0.5395,-0.5395,-0.5395,-0.5395,-0.5395,-0.5518,-0.5657,-0.5867,-0.5936,-0.6084,-0.6276,-0.63,-0.63,-0.63,-0.63,-0.63,-0.63,-0.63,-0.63,-0.63,-0.63,-0.5828,-0.4766,-0.4256,-0.3283,-0.1685,-0.1137,-0.0628,0.0,0.0,0.0,0.0,0.0,0.0,0.0,0.0,0.0,0.3859,0.4078,0.4213,0.4691,0.4942,0.499,0.4801,0.4334,0.3815,0.3407,0.2242,0.129,0.1204,0.1177,0.0928,0.0143,0.0,0.0,0.0,0.0,0.0,0.0,0.0,0.0,0.0,0.0,0.0,0.0,-0.0202,-0.1008,-0.2611,-0.2911,-0.3747,-0.5359,-0.5395,-0.5395,-0.5395,-0.5395,-0.5395,-0.5395,-0.5395,-0.5395,-0.5392,-0.5354,-0.522,-0.5039,-0.4935,-0.4833,-0.4677,-0.4552,-0.5003,-0.5778,-0.5726,-0.6796,-0.8352,-0.835,-0.8986,-0.9877,-0.998,-1.02,-1.0479,-1.0479,-1.0526,-1.0593,-1.0593,-1.0593,-1.0593,-1.0593,-1.0142,-0.9594,-0.937,-0.8156,-0.6981,-0.6752,-0.6042,-0.5395,-0.5395,-0.5395,-0.5395,-0.5395,-0.5487,-0.5589,-0.5769,-0.5895,-0.6037,-0.6272,-0.63,-0.63,-0.63,-0.63,-0.63,-0.63,-0.63,-0.63,-0.63,-0.63,-0.5709,-0.4373,-0.4295,-0.3361,-0.1293,-0.1176,-0.0824,0.0,0.0,0.0,0.0,0.0,0.0,0.0,0.0,0.0,0.3471,0.3733,0.3924,0.4402,0.4711,0.4716,0.4014,0.3847,0.3365,0.1765,0.1374,0.1041,0.0237,0.0068,0.0068,0.0,0.0,0.0,0.0,0.0,0.0,0.0,0.0,0.0,0.0,0.0,0.0,0.0,-0.0772,-0.1675,-0.2644,-0.348,-0.4384,-0.5362,-0.5395,-0.5395,-0.5395,-0.5395,-0.5395,-0.5395,-0.5395,-0.5395,-0.5388,-0.5209,-0.5032,-0.4897,-0.4891,-0.4833,-0.4677,-0.4552,-0.5308,-0.648,-0.5773,-0.6858,-0.8731,-0.8346,-0.8646,-0.9297,-0.9606,-0.99,-1.014,-1.014,-1.0327,-1.0593,-1.0593,-1.0593,-1.0593,-1.0593,-1.0561,-1.0333,-0.953,-0.8619,-0.773,-0.6883,-0.6042,-0.5395,-0.5395,-0.5395,-0.5395,-0.5395,-0.5402,-0.5498,-0.5752,-0.581,-0.5915,-0.6252,-0.63,-0.63,-0.63,-0.63,-0.63,-0.63,-0.63,-0.63,-0.63,-0.63,-0.5395,-0.3318,-0.3202,-0.2267,-0.0157,-0.0079,-0.0039,0.0,0.0,0.0,0.0,0.0,0.0,0.0,0.0,0.0,0.3202,0.3374,0.3569,0.3944,0.3887,0.3702,0.3527,0.2819,0.2015,0.1428,0.085,0.0362,0.0067,0.0,0.0,0.0,0.0,0.0,0.0,0.0,0.0,0.0,0.0,0.0,0.0,0.0,0.0,0.0,0.0,-0.1941,-0.3447,-0.3813,-0.4417,-0.5362,-0.5395,-0.5395,-0.5395,-0.5395,-0.5395,-0.5395,-0.5395,-0.5395,-0.5392,-0.5337,-0.5148,-0.4887,-0.4887,-0.4775,-0.4566,-0.4511,-0.5058,-0.5923,-0.6118,-0.6988,-0.8141,-0.8456,-0.886,-0.9224,-0.9331,-0.9684,-1.0083,-1.0083,-1.0314,-1.0593,-1.0593,-1.0593,-1.0593,-1.0593,-1.0593,-1.053,-1.0206,-0.9492,-0.8484,-0.7046,-0.6042,-0.5395,-0.5395,-0.5395,-0.5395,-0.5395,-0.5395,-0.5487,-0.5749,-0.58,-0.5939,-0.6375,-0.6358,-0.6334,-0.6422,-0.6358,-0.63,-0.63,-0.63,-0.63,-0.63,-0.63,-0.5392,-0.324,-0.3085,-0.215,-0.0079,0.0,0.0,0.0,0.0,0.0,0.0,0.0,0.0,0.0,0.0,0.0,0.299,0.3155,0.3376,0.3717,0.3572,0.3273,0.3,0.2193,0.1413,0.0963,0.041,0.0,0.0,0.0,0.0,0.0,0.0,0.0,0.0,0.0,0.0,0.0,0.0,0.0,0.0,0.0,0.0,0.0,0.0,0.0,-0.3774,-0.4132,-0.459,-0.5213,-0.5245,-0.5269,-0.5284,-0.5284,-0.5344,-0.5395,-0.5395,-0.5395,-0.5392,-0.5293,-0.5104,-0.4884,-0.4809,-0.4679,-0.4491,-0.4491,-0.4893,-0.5542,-0.6036,-0.6826,-0.775,-0.8235,-0.871,-0.9071,-0.9071,-0.9384,-0.981,-0.994,-1.0174,-1.0459,-1.0566,-1.0593,-1.0593,-1.0593,-1.0593,-1.0593,-1.0593,-0.9748,-0.8484,-0.7046,-0.6042,-0.5395,-0.5395,-0.5395,-0.5395,-0.5395,-0.5436,-0.5549,-0.5759,-0.5844,-0.5996,-0.6388,-0.6361,-0.6334,-0.6429,-0.6358,-0.63,-0.63,-0.63,-0.63,-0.63,-0.63,-0.555,-0.3748,-0.3632,-0.2852,-0.1096,-0.0706,-0.0549,-0.0549,-0.0196,0.0,0.0,0.0,0.0,0.0,0.0,0.0,0.0,0.0,0.0,0.37,0.3771,0.3474,0.2437,0.208,0.1628,0.0292,0.003,0.0031,0.0,0.0,0.0,0.0,0.0,0.0,0.0,0.0,0.0,0.0,0.0,0.0,0.0,0.0,0.0,0.0,-0.1998,-0.2826,-0.3592,-0.4424,-0.4887,-0.4887,-0.4887,-0.4955,-0.5093,-0.5093,-0.5199,-0.5382,-0.5385,-0.5388,-0.5378,-0.506,-0.4897,-0.4877,-0.4641,-0.4508,-0.4501,-0.4494,-0.4893,-0.5487,-0.5515,-0.6411,-0.767,-0.7723,-0.8182,-0.8804,-0.8804,-0.8971,-0.9257,-0.9579,-0.9873,-1.0174,-1.0492,-1.0586,-1.0593,-1.0593,-1.0593,-1.0593,-1.0593,-0.932,-0.7827,-0.6948,-0.6075,-0.5428,-0.5395,-0.5395,-0.5395,-0.5395,-0.5518,-0.5637,-0.5776,-0.5928,-0.6084,-0.6282,-0.6306,-0.6306,-0.6306,-0.6306,-0.6306,-0.63,-0.63,-0.63,-0.63,-0.63,-0.5828,-0.4766,-0.4688,-0.4217,-0.3163,-0.2151,-0.1645,-0.1645,-0.0588,-0.0039,-0.0039,0.0,0.0,0.0,0.0,0.0,0.2924,0.0,0.0,0.0,0.0,0.0,0.2432,0.205,0.1506,0.0808,0.0657,0.0525,0.0092,0.0,0.0,0.0,0.0,0.0,0.0,0.0,0.0,0.0,0.0,0.0,0.0,0.0,0.0,0.0,-0.2366,-0.3103,-0.4455,-0.4766,-0.4887,-0.4887,-0.4887,-0.4908,-0.4945,-0.4945,-0.4999,-0.5043,-0.5145,-0.5196,-0.5196,-0.5226,-0.5176,-0.5036,-0.4951,-0.4887,-0.4775,-0.4583,-0.4598,-0.4869,-0.5905,-0.6556,-0.7047,-0.8103,-0.8619,-0.8804,-0.8804,-0.8971,-0.9224,-0.9311,-0.9677,-1.0134,-1.0214,-1.0419,-1.0593,-1.0593,-1.0593,-1.0593,-1.0593,-0.9786,-0.871,-0.7864,-0.6981,-0.617,-0.5524,-0.5395,-0.5395,-0.5395,-0.5518,-0.5637,-0.5776,-0.5928,-0.6115,-0.6416,-0.6453,-0.6453,-0.6453,-0.6453,-0.6416,-0.631,-0.63,-0.63,-0.63,-0.63,-0.5828,-0.4766,-0.4688,-0.4217,-0.3163,-0.2852,-0.2696,-0.2696,-0.1684,-0.1176,-0.1137,-0.0392,0.0,0.0,0.0,0.0,0.302,0.3084,0.3195,0.3215,0.0,0.0,0.2256,0.1887,0.1396,0.0,0.053,0.0407,0.0057,0.0,0.0,0.0,0.0,0.0,0.0,0.0,0.0,0.0,0.0,0.0,0.0,0.0,-0.0652,-0.2246,-0.2364,-0.3071,-0.464,-0.4728,-0.4728,-0.4728,-0.4728,-0.4758,-0.4823,-0.4823,-0.4857,-0.4891,-0.4972,-0.5012,-0.5015,-0.5135,-0.5128,-0.5012,-0.5012,-0.4965,-0.4874,-0.4724,-0.488,-0.5327,-0.6459,-0.705,-0.7417,-0.8546,-0.8884,-0.8804,-0.8804,-0.8891,-0.9051,-0.9171,-0.9524,-0.996,-1.008,-1.0321,-1.0593,-1.0593,-1.0593,-1.0593,-1.0593,-0.9951,-0.9075,-0.8221,-0.734,-0.6461,-0.5591,-0.5395,-0.5395,-0.5395,-0.5566,-0.5705,-0.5786,-0.5979,-0.6183,-0.6399,-0.6422,-0.6422,-0.6422,-0.6422,-0.6392,-0.631,-0.63,-0.63,-0.63,-0.63,-0.6025,-0.5395,-0.5354,-0.5079,-0.445,-0.4021,-0.3787,-0.3787,-0.2348,-0.1372,-0.0941,-0.0314,0.0,0.0,0.0,0.0,0.3212,0.3273,0.3374,0.3402,0.3293,0.0,0.2124,0.1867,0.148,0.0,0.017,0.015,0.0025,0.0,0.0,0.0,0.0,0.0,0.0,0.0,0.0,0.0,0.0,0.0,0.0,0.0,-0.0615,-0.2091,-0.2371,-0.3065,-0.4436,-0.4491,-0.4491,-0.4491,-0.4491,-0.4556,-0.4663,-0.4667,-0.4731,-0.4867,-0.4887,-0.4864,-0.4864,-0.4881,-0.4897,-0.4911,-0.4911,-0.4921,-0.4969,-0.4969,-0.5457,-0.628,-0.7022,-0.7703,-0.8327,-0.9006,-0.9078,-0.8851,-0.8851,-0.8831,-0.8851,-0.9078,-0.9412,-0.9733,-0.9987,-1.0301,-1.0593,-1.0593,-1.0593,-1.0593,-1.0593,-1.0047,-0.9204,-0.8221,-0.7405,-0.6593,-0.5624,-0.5395,-0.5395,-0.5395,-0.5634,-0.58,-0.58,-0.6095,-0.63,-0.63,-0.6313,-0.6317,-0.6303,-0.6313,-0.6317,-0.6303,-0.63,-0.63,-0.63,-0.63,-0.63,-0.63,-0.63,-0.63,-0.63,-0.5392,-0.4882,-0.4882,-0.2817,-0.1176,0.0,0.0,0.0,0.0,0.0,0.0,0.3666,0.3683,0.368,0.3587,0.3535,0.0,0.2947,0.2955,0.2715,0.0,0.129,0.1018,0.0168,0.0,0.0,0.0,0.0,0.0,0.0,0.0,0.0,0.0,0.0,0.0,0.0,0.0,-0.0615,-0.2091,-0.3345,-0.4181,-0.4491,-0.4491,-0.4491,-0.4491,-0.4491,-0.4505,-0.4535,-0.4535,-0.4549,-0.4583,-0.4677,-0.4735,-0.4741,-0.4863,-0.4951,-0.5059,-0.5059,-0.5159,-0.5306,-0.5306,-0.5663,-0.628,-0.7022,-0.78,-0.862,-0.9333,-0.9412,-0.9131,-0.9131,-0.8978,-0.8818,-0.8871,-0.9252,-0.9722,-0.9753,-1.0171,-1.0593,-1.0593,-1.0593,-1.0593,-1.0593,-1.0466,-0.9939,-0.8382,-0.7864,-0.7312,-0.5752,-0.5395,-0.5395,-0.5395,-0.5634,-0.58,-0.58,-0.6095,-0.63,-0.63,-0.6399,-0.6429,-0.6313,-0.6402,-0.6426,-0.6313,-0.63,-0.63,-0.63,-0.63,-0.63,-0.63,-0.63,-0.63,-0.63,-0.6103,-0.5983,-0.5983,-0.3906,-0.1878,0.0,0.0,0.0,0.0,0.0,0.0,0.3927,0.3907,0.387,0.3724,0.3424,0.0,0.0,0.2402,0.2067,0.1013,0.0994,0.0919,0.0137,0.0,0.0,0.0,0.0,0.0,0.0,0.0,0.0,0.0,0.0,0.0,0.0,0.0,-0.0605,-0.2089,-0.3624,-0.4491,-0.4491,-0.4491,-0.4491,-0.4491,-0.4491,-0.4491,-0.4491,-0.4491,-0.4491,-0.4491,-0.4566,-0.4604,-0.461,-0.4735,-0.4843,-0.4918,-0.5036,-0.5143,-0.5283,-0.5814,-0.6456,-0.713,-0.7499,-0.836,-0.9381,-0.9751,-0.959,-0.9211,-0.9211,-0.9024,-0.8804,-0.8804,-0.9105,-0.9492,-0.9639,-1.0124,-1.0593,-1.0593,-1.0593,-1.0593,-1.0593,-1.0593,-1.0269,-0.8973,-0.8323,-0.7637,-0.6334,-0.5719,-0.5395,-0.5395,-0.5634,-0.58,-0.58,-0.6095,-0.63,-0.63,-0.6361,-0.6381,-0.631,-0.6361,-0.6378,-0.6306,-0.63,-0.63,-0.63,-0.63,-0.63,-0.63,-0.63,-0.63,-0.63,-0.63,-0.5786,-0.4727,-0.3632,-0.2072,0.0,0.0,0.0,0.0,0.0,0.0,0.4138,0.4104,0.406,0.388,0.3339,0.27,0.0,0.0,0.0,0.045,0.0512,0.0548,0.0088,0.0,0.0,0.0,0.0,0.0,0.0,0.0,0.0,0.0,0.0,0.0,0.0,-0.013,-0.076,-0.2073,-0.3479,-0.4331,-0.4447,-0.4474,-0.4491,-0.4491,-0.4491,-0.4491,-0.4491,-0.4491,-0.4491,-0.4491,-0.4491,-0.4491,-0.4494,-0.4617,-0.4663,-0.4704,-0.4941,-0.5073,-0.5173,-0.6258,-0.7209,-0.8027,-0.8188,-0.9032,-1.02,-1.02,-0.9837,-0.9371,-0.9317,-0.9104,-0.8858,-0.8824,-0.9018,-0.9351,-0.9679,-1.0171,-1.0593,-1.0593,-1.0593,-1.0593,-1.0593,-1.0466,-1.0142,-0.9268,-0.8388,-0.7502,-0.6625,-0.5881,-0.5395,-0.5395,-0.5634,-0.58,-0.58,-0.6095,-0.63,-0.63,-0.63,-0.63,-0.63,-0.63,-0.63,-0.63,-0.63,-0.63,-0.63,-0.63,-0.63,-0.63,-0.63,-0.63,-0.63,-0.63,-0.5392,-0.3435,-0.3202,-0.2189,-0.0314,-0.0118,0.0,0.0,0.0,0.0,0.4443,0.444,0.4371,0.4063,0.3641,0.3293,0.3234,0.0,0.1676,0.1462,0.0,0.0564,0.0,0.0,0.0,0.0,0.0,0.0,0.0,0.0,0.0,0.0,0.0,0.0,0.0,-0.0585,-0.1273,-0.1977,-0.2962,-0.3741,-0.4207,-0.4392,-0.4491,-0.4491,-0.4491,-0.4491,-0.4491,-0.4491,-0.4491,-0.4491,-0.4491,-0.4491,-0.4491,-0.4508,-0.459,-0.4701,-0.487,-0.4982,-0.5173,-0.6258,-0.7209,-0.8091,-0.8844,-0.9735,-1.0539,-1.0539,-1.0301,-0.995,-0.9719,-0.9439,-0.9124,-0.8891,-0.9185,-0.9686,-0.998,-1.0301,-1.0593,-1.0593,-1.0593,-1.0593,-1.0593,-1.0047,-0.9236,-0.8355,-0.747,-0.6625,-0.5752,-0.5458,-0.5395,-0.5395,-0.5634,-0.58,-0.58,-0.6095,-0.63,-0.63,-0.63,-0.63,-0.63,-0.63,-0.63,-0.63,-0.63,-0.63,-0.63,-0.63,-0.63,-0.63,-0.63,-0.63,-0.63,-0.63,-0.5747,-0.453,-0.3591,-0.254,-0.1411,-0.0471,0.0,0.0,0.0,0.0,0.4491,0.4491,0.444,0.418,0.0,0.0,0.2695,0.0,0.1494,0.0,0.0,0.0,0.0,0.0,0.0,0.0,0.0,0.0,0.0,0.0,0.0,0.0,0.0,0.0,0.0,0.0,0.0,0.0,-0.2769,-0.3503,-0.4174,-0.4277,-0.4375,-0.4487,-0.4491,-0.4491,-0.4491,-0.4491,-0.4491,-0.4491,-0.4491,-0.4491,-0.4491,-0.4491,-0.4525,-0.4593,-0.4721,-0.487,-0.5051,-0.6109,-0.7108,-0.8091,-0.8947,-0.9817,-1.0593,-1.0593,-1.0298,-0.9846,-0.9726,-0.9379,-0.8944,-0.8844,-0.9205,-0.9735,-0.9826,-1.0218,-1.0593,-1.0593,-1.0593,-1.0593,-1.0593,-0.9951,-0.9204,-0.8844,-0.7697,-0.6588,-0.6235,-0.5752,-0.5423,-0.5511,-0.5661,-0.583,-0.5918,-0.6115,-0.63,-0.63,-0.63,-0.63,-0.63,-0.63,-0.63,-0.63,-0.63,-0.63,-0.63,-0.63,-0.63,-0.63,-0.63,-0.63,-0.63,-0.63,-0.5786,-0.4727,-0.3632,-0.2618,-0.1607,-0.051,0.0,0.0,0.0,0.0,0.4125,0.0,0.0,0.0,0.0,0.0,0.0,0.0,0.0,0.0,0.0,0.0,0.0,0.0,0.0,0.0,0.0,0.0,0.0,0.0,0.0,0.0,0.0,0.0,0.0,0.0,0.0,0.0,0.0,0.0,-0.4046,-0.415,-0.4271,-0.4399,-0.447,-0.4491,-0.4491,-0.4491,-0.4491,-0.4491,-0.4491,-0.4491,-0.4491,-0.4491,-0.4491,-0.4498,-0.4651,-0.4775,-0.4992,-0.5973,-0.7035,-0.8091,-0.8947,-0.9817,-1.0593,-1.0593,-1.0271,-0.9793,-0.9713,-0.9299,-0.8824,-0.8871,-0.9272,-0.9729,-0.978,-1.0191,-1.0593,-1.0593,-1.0593,-1.0593,-1.0593,-0.9786,-0.8941,-0.8941,-0.7605,-0.633,-0.633,-0.5848,-0.544,-0.5559,-0.5705,-0.585,-0.5966,-0.6159,-0.63,-0.63,-0.63,-0.63,-0.63,-0.63,-0.63,-0.63,-0.63,-0.63,-0.63,-0.63,-0.63,-0.63,-0.63,-0.63,-0.63,-0.63,-0.5944,-0.5157,-0.41,-0.3047,-0.1996,-0.0941,-0.0275,0.0,0.0,0.0,0.0,0.0,0.0,0.3179,0.0,0.0,0.0,0.0,0.0212,0.0,0.0,0.0,0.0,0.0,0.0,0.0,0.0,0.0,0.0,0.0,0.0,0.0,0.0,0.0,0.0,0.0,0.0,0.0,0.0,0.0,-0.3758,-0.4062,-0.4197,-0.4204,-0.4389,-0.4491,-0.4491,-0.4491,-0.4491,-0.4491,-0.4491,-0.4491,-0.4491,-0.4491,-0.4491,-0.4498,-0.4651,-0.4775,-0.4992,-0.5973,-0.7035,-0.8091,-0.8947,-0.9817,-1.0593,-1.0593,-1.0399,-1.006,-0.978,-0.9299,-0.8851,-0.9111,-0.9432,-0.974,-1.002,-1.0314,-1.0593,-1.0593,-1.0593,-1.0593,-1.0593,-0.932,-0.8027,-0.8027,-0.6695,-0.5428,-0.5428,-0.5428,-0.544,-0.5559,-0.5705,-0.585,-0.5966,-0.6159,-0.63,-0.63,-0.63,-0.63,-0.63,-0.63,-0.63,-0.63,-0.63,-0.63,-0.63,-0.63,-0.63,-0.63,-0.63,-0.63,-0.63,-0.63,-0.63,-0.6261,-0.5198,-0.4139,-0.3046,-0.2035,-0.102,0.0,0.0,0.0,0.0,0.0,0.2675,0.3006,0.0,0.0,0.0,0.0,0.0,0.0,0.0,0.0,0.0,0.0,0.0,0.0,0.0,0.0,0.0,0.0,0.0,0.0,0.0,0.0,0.0,0.0,0.0,0.0,-0.2265,0.0,0.0,-0.4014,-0.4115,-0.419,-0.4267,-0.4365,-0.4487,-0.4491,-0.4491,-0.4491,-0.4491,-0.4491,-0.4491,-0.4491,-0.4491,-0.4494,-0.4545,-0.4684,-0.4925,-0.5276,-0.6419,-0.8027,-0.8323,-0.9326,-1.0593,-1.0593,-1.0278,-0.976,-0.9272,-0.8978,-0.8851,-0.9118,-0.9439,-0.974,-1.0027,-1.0321,-1.0593,-1.0593,-1.0593,-1.0593,-1.0593,-0.932,-0.7994,-0.7994,-0.6662,-0.5395,-0.5395,-0.5474,-0.5555,-0.5701,-0.585,-0.6003,-0.6156,-0.6265,-0.63,-0.63,-0.63,-0.63,-0.63,-0.63,-0.63,-0.63,-0.63,-0.63,-0.63,-0.63,-0.63,-0.63,-0.63,-0.63,-0.63,-0.63,-0.63,-0.63,-0.5237,-0.4178,-0.3085,-0.2074,-0.1058,0.0,-0.0745,-0.067,0.173,0.1814,0.0,0.23,0.2035,0.0,0.1347,0.0,0.0468,0.0,0.0,0.0,0.0,0.0,0.0,0.0,0.0,0.0,0.0,0.0,0.0,0.0,0.0,0.0,0.0,-0.0282,-0.0869,-0.1857,-0.2244,-0.2882,0.0,0.0,-0.4065,-0.419,-0.4197,-0.4291,-0.4487,-0.4491,-0.4491,-0.4491,-0.4491,-0.4491,-0.4491,-0.4491,-0.4491,-0.4491,-0.4491,-0.4665,-0.4887,-0.4887,-0.6114,-0.7994,-0.7994,-0.9006,-1.0432,-1.0432,-1.0027,-0.9452,-0.8971,-0.8804,-0.8871,-0.9237,-0.9526,-0.9789,-1.0154,-1.0439,-1.0593,-1.0593,-1.0593,-1.0593,-1.0593,-0.9524,-0.8388,-0.8059,-0.6892,-0.5782,-0.5458,-0.5515,-0.5633,-0.5772,-0.5925,-0.6078,-0.6272,-0.63,-0.63,-0.63,-0.63,-0.63,-0.63,-0.63,-0.63,-0.63,-0.63,-0.63,-0.63,-0.63,-0.63,-0.63,-0.63,-0.63,-0.63,-0.63,-0.63,-0.63,-0.5628,-0.4569,-0.3085,-0.2464,-0.1606,-0.0588,-0.1293,-0.1215]}]]